<?xml version="1.0" encoding="UTF-8" standalone="no" ?>
<gpx xmlns="http://www.topografix.com/GPX/1/1" xmlns:xsi="http://www.w3.org/2001/XMLSchema-instance" xsi:schemaLocation="http://www.topografix.com/GPX/1/1 http://www.topografix.com/GPX/1/1/gpx.xsd" version="1.1" creator="VisuGPX - https://www.visugpx.com">
  <metadata>
    <name>Col de Marraut (au dessus de Luz Saint Sauveur)</name>
    <desc><![CDATA[Au début 20 à 25 minutes de marche à pieds pour cause de neige sur la route puis montée avec les couteaux. Mur assez  raide sur la fin et vue splendide depuis le col sur Gavarnie et la brèche de Rolland. Neige pourrie à la descente (et skieur fatigué !). Très belle sortie.]]></desc>
  </metadata>
  <trk>
    <name><![CDATA[Col de Marraut (au dessus de Luz Saint Sauveur)_1]]></name>
    <trkseg>
      <trkpt lat="42.85138" lon="0.02005">
        <ele>1519</ele>
        <time>2012-03-31T07:01:13Z</time>
      </trkpt>
      <trkpt lat="42.85133" lon="0.02042">
        <ele>1512</ele>
        <time>2012-03-31T07:14:50Z</time>
      </trkpt>
      <trkpt lat="42.85132" lon="0.02047">
        <ele>1512</ele>
        <time>2012-03-31T07:14:54Z</time>
      </trkpt>
      <trkpt lat="42.85131" lon="0.02051">
        <ele>1512</ele>
        <time>2012-03-31T07:14:58Z</time>
      </trkpt>
      <trkpt lat="42.85128" lon="0.02055">
        <ele>1512</ele>
        <time>2012-03-31T07:15:02Z</time>
      </trkpt>
      <trkpt lat="42.85127" lon="0.02059">
        <ele>1512</ele>
        <time>2012-03-31T07:15:05Z</time>
      </trkpt>
      <trkpt lat="42.85126" lon="0.02063">
        <ele>1512</ele>
        <time>2012-03-31T07:15:09Z</time>
      </trkpt>
      <trkpt lat="42.85125" lon="0.02067">
        <ele>1512</ele>
        <time>2012-03-31T07:15:12Z</time>
      </trkpt>
      <trkpt lat="42.85124" lon="0.02072">
        <ele>1512</ele>
        <time>2012-03-31T07:15:15Z</time>
      </trkpt>
      <trkpt lat="42.85124" lon="0.02076">
        <ele>1512</ele>
        <time>2012-03-31T07:15:18Z</time>
      </trkpt>
      <trkpt lat="42.85123" lon="0.02082">
        <ele>1512</ele>
        <time>2012-03-31T07:15:22Z</time>
      </trkpt>
      <trkpt lat="42.85122" lon="0.02087">
        <ele>1512</ele>
        <time>2012-03-31T07:15:26Z</time>
      </trkpt>
      <trkpt lat="42.85122" lon="0.02091">
        <ele>1512</ele>
        <time>2012-03-31T07:15:29Z</time>
      </trkpt>
      <trkpt lat="42.8512" lon="0.02095">
        <ele>1512</ele>
        <time>2012-03-31T07:15:32Z</time>
      </trkpt>
      <trkpt lat="42.85118" lon="0.021">
        <ele>1512</ele>
        <time>2012-03-31T07:15:36Z</time>
      </trkpt>
      <trkpt lat="42.85117" lon="0.02104">
        <ele>1512</ele>
        <time>2012-03-31T07:15:39Z</time>
      </trkpt>
      <trkpt lat="42.85114" lon="0.02108">
        <ele>1512</ele>
        <time>2012-03-31T07:15:43Z</time>
      </trkpt>
      <trkpt lat="42.85112" lon="0.02112">
        <ele>1512</ele>
        <time>2012-03-31T07:15:47Z</time>
      </trkpt>
      <trkpt lat="42.85111" lon="0.02114">
        <ele>1512</ele>
        <time>2012-03-31T07:15:50Z</time>
      </trkpt>
      <trkpt lat="42.85109" lon="0.02119">
        <ele>1512</ele>
        <time>2012-03-31T07:15:54Z</time>
      </trkpt>
      <trkpt lat="42.85105" lon="0.02122">
        <ele>1512</ele>
        <time>2012-03-31T07:15:58Z</time>
      </trkpt>
      <trkpt lat="42.85102" lon="0.02126">
        <ele>1512</ele>
        <time>2012-03-31T07:16:02Z</time>
      </trkpt>
      <trkpt lat="42.85099" lon="0.02129">
        <ele>1512</ele>
        <time>2012-03-31T07:16:06Z</time>
      </trkpt>
      <trkpt lat="42.85096" lon="0.02132">
        <ele>1512</ele>
        <time>2012-03-31T07:16:10Z</time>
      </trkpt>
      <trkpt lat="42.85093" lon="0.02135">
        <ele>1512</ele>
        <time>2012-03-31T07:16:14Z</time>
      </trkpt>
      <trkpt lat="42.8509" lon="0.02139">
        <ele>1512</ele>
        <time>2012-03-31T07:16:18Z</time>
      </trkpt>
      <trkpt lat="42.85087" lon="0.02144">
        <ele>1512</ele>
        <time>2012-03-31T07:16:22Z</time>
      </trkpt>
      <trkpt lat="42.85085" lon="0.02148">
        <ele>1512</ele>
        <time>2012-03-31T07:16:26Z</time>
      </trkpt>
      <trkpt lat="42.85084" lon="0.02152">
        <ele>1512</ele>
        <time>2012-03-31T07:16:29Z</time>
      </trkpt>
      <trkpt lat="42.85083" lon="0.02156">
        <ele>1512</ele>
        <time>2012-03-31T07:16:32Z</time>
      </trkpt>
      <trkpt lat="42.85082" lon="0.0216">
        <ele>1512</ele>
        <time>2012-03-31T07:16:35Z</time>
      </trkpt>
      <trkpt lat="42.85081" lon="0.02165">
        <ele>1512</ele>
        <time>2012-03-31T07:16:39Z</time>
      </trkpt>
      <trkpt lat="42.8508" lon="0.02169">
        <ele>1513</ele>
        <time>2012-03-31T07:16:42Z</time>
      </trkpt>
      <trkpt lat="42.85079" lon="0.02175">
        <ele>1513</ele>
        <time>2012-03-31T07:16:46Z</time>
      </trkpt>
      <trkpt lat="42.85079" lon="0.0218">
        <ele>1513</ele>
        <time>2012-03-31T07:16:50Z</time>
      </trkpt>
      <trkpt lat="42.85078" lon="0.02183">
        <ele>1513</ele>
        <time>2012-03-31T07:16:53Z</time>
      </trkpt>
      <trkpt lat="42.85077" lon="0.02188">
        <ele>1513</ele>
        <time>2012-03-31T07:16:57Z</time>
      </trkpt>
      <trkpt lat="42.85077" lon="0.02194">
        <ele>1515</ele>
        <time>2012-03-31T07:17:01Z</time>
      </trkpt>
      <trkpt lat="42.85077" lon="0.02199">
        <ele>1515</ele>
        <time>2012-03-31T07:17:04Z</time>
      </trkpt>
      <trkpt lat="42.85077" lon="0.02204">
        <ele>1515</ele>
        <time>2012-03-31T07:17:07Z</time>
      </trkpt>
      <trkpt lat="42.85077" lon="0.02208">
        <ele>1515</ele>
        <time>2012-03-31T07:17:10Z</time>
      </trkpt>
      <trkpt lat="42.85078" lon="0.02213">
        <ele>1515</ele>
        <time>2012-03-31T07:17:13Z</time>
      </trkpt>
      <trkpt lat="42.85077" lon="0.02217">
        <ele>1515</ele>
        <time>2012-03-31T07:17:17Z</time>
      </trkpt>
      <trkpt lat="42.85076" lon="0.02222">
        <ele>1515</ele>
        <time>2012-03-31T07:17:21Z</time>
      </trkpt>
      <trkpt lat="42.85075" lon="0.02227">
        <ele>1516</ele>
        <time>2012-03-31T07:17:25Z</time>
      </trkpt>
      <trkpt lat="42.85075" lon="0.0223">
        <ele>1518</ele>
        <time>2012-03-31T07:17:28Z</time>
      </trkpt>
      <trkpt lat="42.85074" lon="0.02235">
        <ele>1519</ele>
        <time>2012-03-31T07:17:32Z</time>
      </trkpt>
      <trkpt lat="42.85073" lon="0.02241">
        <ele>1519</ele>
        <time>2012-03-31T07:17:36Z</time>
      </trkpt>
      <trkpt lat="42.85072" lon="0.02245">
        <ele>1520</ele>
        <time>2012-03-31T07:17:39Z</time>
      </trkpt>
      <trkpt lat="42.85072" lon="0.02249">
        <ele>1520</ele>
        <time>2012-03-31T07:17:42Z</time>
      </trkpt>
      <trkpt lat="42.85072" lon="0.02251">
        <ele>1521</ele>
        <time>2012-03-31T07:17:45Z</time>
      </trkpt>
      <trkpt lat="42.85072" lon="0.02257">
        <ele>1521</ele>
        <time>2012-03-31T07:17:49Z</time>
      </trkpt>
      <trkpt lat="42.8507" lon="0.02261">
        <ele>1521</ele>
        <time>2012-03-31T07:17:53Z</time>
      </trkpt>
      <trkpt lat="42.85069" lon="0.02265">
        <ele>1521</ele>
        <time>2012-03-31T07:17:56Z</time>
      </trkpt>
      <trkpt lat="42.85067" lon="0.0227">
        <ele>1521</ele>
        <time>2012-03-31T07:18:00Z</time>
      </trkpt>
      <trkpt lat="42.85065" lon="0.02275">
        <ele>1521</ele>
        <time>2012-03-31T07:18:04Z</time>
      </trkpt>
      <trkpt lat="42.85063" lon="0.02279">
        <ele>1521</ele>
        <time>2012-03-31T07:18:08Z</time>
      </trkpt>
      <trkpt lat="42.85061" lon="0.02284">
        <ele>1521</ele>
        <time>2012-03-31T07:18:12Z</time>
      </trkpt>
      <trkpt lat="42.85059" lon="0.02288">
        <ele>1521</ele>
        <time>2012-03-31T07:18:16Z</time>
      </trkpt>
      <trkpt lat="42.85056" lon="0.02293">
        <ele>1521</ele>
        <time>2012-03-31T07:18:20Z</time>
      </trkpt>
      <trkpt lat="42.85055" lon="0.02297">
        <ele>1521</ele>
        <time>2012-03-31T07:18:23Z</time>
      </trkpt>
      <trkpt lat="42.85053" lon="0.02302">
        <ele>1521</ele>
        <time>2012-03-31T07:18:27Z</time>
      </trkpt>
      <trkpt lat="42.85051" lon="0.02307">
        <ele>1521</ele>
        <time>2012-03-31T07:18:31Z</time>
      </trkpt>
      <trkpt lat="42.85051" lon="0.02311">
        <ele>1521</ele>
        <time>2012-03-31T07:18:34Z</time>
      </trkpt>
      <trkpt lat="42.85049" lon="0.02317">
        <ele>1521</ele>
        <time>2012-03-31T07:18:38Z</time>
      </trkpt>
      <trkpt lat="42.85048" lon="0.02321">
        <ele>1521</ele>
        <time>2012-03-31T07:18:41Z</time>
      </trkpt>
      <trkpt lat="42.85046" lon="0.02324">
        <ele>1521</ele>
        <time>2012-03-31T07:18:44Z</time>
      </trkpt>
      <trkpt lat="42.85045" lon="0.02328">
        <ele>1521</ele>
        <time>2012-03-31T07:18:47Z</time>
      </trkpt>
      <trkpt lat="42.85043" lon="0.02331">
        <ele>1521</ele>
        <time>2012-03-31T07:18:50Z</time>
      </trkpt>
      <trkpt lat="42.85041" lon="0.02336">
        <ele>1521</ele>
        <time>2012-03-31T07:18:54Z</time>
      </trkpt>
      <trkpt lat="42.85039" lon="0.0234">
        <ele>1521</ele>
        <time>2012-03-31T07:18:57Z</time>
      </trkpt>
      <trkpt lat="42.85037" lon="0.02344">
        <ele>1521</ele>
        <time>2012-03-31T07:19:01Z</time>
      </trkpt>
      <trkpt lat="42.85036" lon="0.02348">
        <ele>1521</ele>
        <time>2012-03-31T07:19:04Z</time>
      </trkpt>
      <trkpt lat="42.85035" lon="0.02353">
        <ele>1522</ele>
        <time>2012-03-31T07:19:08Z</time>
      </trkpt>
      <trkpt lat="42.85034" lon="0.02357">
        <ele>1523</ele>
        <time>2012-03-31T07:19:11Z</time>
      </trkpt>
      <trkpt lat="42.85032" lon="0.02362">
        <ele>1523</ele>
        <time>2012-03-31T07:19:15Z</time>
      </trkpt>
      <trkpt lat="42.85031" lon="0.02367">
        <ele>1523</ele>
        <time>2012-03-31T07:19:19Z</time>
      </trkpt>
      <trkpt lat="42.85029" lon="0.02372">
        <ele>1523</ele>
        <time>2012-03-31T07:19:23Z</time>
      </trkpt>
      <trkpt lat="42.85027" lon="0.02376">
        <ele>1523</ele>
        <time>2012-03-31T07:19:27Z</time>
      </trkpt>
      <trkpt lat="42.85026" lon="0.02382">
        <ele>1524</ele>
        <time>2012-03-31T07:19:31Z</time>
      </trkpt>
      <trkpt lat="42.85024" lon="0.02387">
        <ele>1525</ele>
        <time>2012-03-31T07:19:35Z</time>
      </trkpt>
      <trkpt lat="42.85023" lon="0.02391">
        <ele>1525</ele>
        <time>2012-03-31T07:19:38Z</time>
      </trkpt>
      <trkpt lat="42.85021" lon="0.02396">
        <ele>1525</ele>
        <time>2012-03-31T07:19:42Z</time>
      </trkpt>
      <trkpt lat="42.8502" lon="0.02402">
        <ele>1525</ele>
        <time>2012-03-31T07:19:46Z</time>
      </trkpt>
      <trkpt lat="42.85019" lon="0.02406">
        <ele>1525</ele>
        <time>2012-03-31T07:19:49Z</time>
      </trkpt>
      <trkpt lat="42.85018" lon="0.02411">
        <ele>1531</ele>
        <time>2012-03-31T07:20:28Z</time>
      </trkpt>
      <trkpt lat="42.85017" lon="0.02415">
        <ele>1531</ele>
        <time>2012-03-31T07:20:31Z</time>
      </trkpt>
      <trkpt lat="42.85017" lon="0.0242">
        <ele>1531</ele>
        <time>2012-03-31T07:20:35Z</time>
      </trkpt>
      <trkpt lat="42.85017" lon="0.02424">
        <ele>1531</ele>
        <time>2012-03-31T07:20:38Z</time>
      </trkpt>
      <trkpt lat="42.85015" lon="0.0243">
        <ele>1531</ele>
        <time>2012-03-31T07:20:42Z</time>
      </trkpt>
      <trkpt lat="42.85015" lon="0.02434">
        <ele>1531</ele>
        <time>2012-03-31T07:20:46Z</time>
      </trkpt>
      <trkpt lat="42.85014" lon="0.02438">
        <ele>1531</ele>
        <time>2012-03-31T07:20:49Z</time>
      </trkpt>
      <trkpt lat="42.85012" lon="0.02444">
        <ele>1531</ele>
        <time>2012-03-31T07:20:53Z</time>
      </trkpt>
      <trkpt lat="42.85012" lon="0.02448">
        <ele>1531</ele>
        <time>2012-03-31T07:20:56Z</time>
      </trkpt>
      <trkpt lat="42.85011" lon="0.02454">
        <ele>1531</ele>
        <time>2012-03-31T07:21:00Z</time>
      </trkpt>
      <trkpt lat="42.8501" lon="0.02459">
        <ele>1531</ele>
        <time>2012-03-31T07:21:04Z</time>
      </trkpt>
      <trkpt lat="42.85009" lon="0.02464">
        <ele>1531</ele>
        <time>2012-03-31T07:21:07Z</time>
      </trkpt>
      <trkpt lat="42.8501" lon="0.02467">
        <ele>1531</ele>
        <time>2012-03-31T07:21:17Z</time>
      </trkpt>
      <trkpt lat="42.85011" lon="0.02468">
        <ele>1532</ele>
        <time>2012-03-31T07:21:40Z</time>
      </trkpt>
      <trkpt lat="42.85012" lon="0.02469">
        <ele>1532</ele>
        <time>2012-03-31T07:21:46Z</time>
      </trkpt>
      <trkpt lat="42.85011" lon="0.0247">
        <ele>1532</ele>
        <time>2012-03-31T07:21:52Z</time>
      </trkpt>
      <trkpt lat="42.85009" lon="0.02471">
        <ele>1532</ele>
        <time>2012-03-31T07:21:56Z</time>
      </trkpt>
      <trkpt lat="42.85008" lon="0.02469">
        <ele>1532</ele>
        <time>2012-03-31T07:22:01Z</time>
      </trkpt>
      <trkpt lat="42.85007" lon="0.02468">
        <ele>1534</ele>
        <time>2012-03-31T07:22:06Z</time>
      </trkpt>
      <trkpt lat="42.85006" lon="0.02467">
        <ele>1539</ele>
        <time>2012-03-31T07:22:14Z</time>
      </trkpt>
      <trkpt lat="42.85007" lon="0.02469">
        <ele>1542</ele>
        <time>2012-03-31T07:22:20Z</time>
      </trkpt>
      <trkpt lat="42.85006" lon="0.02473">
        <ele>1542</ele>
        <time>2012-03-31T07:22:23Z</time>
      </trkpt>
      <trkpt lat="42.85007" lon="0.02478">
        <ele>1542</ele>
        <time>2012-03-31T07:22:26Z</time>
      </trkpt>
      <trkpt lat="42.85007" lon="0.02483">
        <ele>1542</ele>
        <time>2012-03-31T07:22:29Z</time>
      </trkpt>
      <trkpt lat="42.85006" lon="0.02487">
        <ele>1539</ele>
        <time>2012-03-31T07:22:32Z</time>
      </trkpt>
      <trkpt lat="42.85006" lon="0.02492">
        <ele>1537</ele>
        <time>2012-03-31T07:22:35Z</time>
      </trkpt>
      <trkpt lat="42.85006" lon="0.02498">
        <ele>1535</ele>
        <time>2012-03-31T07:22:39Z</time>
      </trkpt>
      <trkpt lat="42.85005" lon="0.02503">
        <ele>1534</ele>
        <time>2012-03-31T07:22:42Z</time>
      </trkpt>
      <trkpt lat="42.85005" lon="0.02508">
        <ele>1533</ele>
        <time>2012-03-31T07:22:45Z</time>
      </trkpt>
      <trkpt lat="42.85004" lon="0.02513">
        <ele>1532</ele>
        <time>2012-03-31T07:22:48Z</time>
      </trkpt>
      <trkpt lat="42.85003" lon="0.02518">
        <ele>1531</ele>
        <time>2012-03-31T07:22:51Z</time>
      </trkpt>
      <trkpt lat="42.85002" lon="0.02523">
        <ele>1531</ele>
        <time>2012-03-31T07:22:54Z</time>
      </trkpt>
      <trkpt lat="42.85" lon="0.02528">
        <ele>1531</ele>
        <time>2012-03-31T07:22:57Z</time>
      </trkpt>
      <trkpt lat="42.84998" lon="0.02533">
        <ele>1531</ele>
        <time>2012-03-31T07:23:00Z</time>
      </trkpt>
      <trkpt lat="42.84998" lon="0.02538">
        <ele>1531</ele>
        <time>2012-03-31T07:23:03Z</time>
      </trkpt>
      <trkpt lat="42.84997" lon="0.02544">
        <ele>1531</ele>
        <time>2012-03-31T07:23:07Z</time>
      </trkpt>
      <trkpt lat="42.84996" lon="0.02547">
        <ele>1531</ele>
        <time>2012-03-31T07:23:10Z</time>
      </trkpt>
      <trkpt lat="42.84995" lon="0.02554">
        <ele>1531</ele>
        <time>2012-03-31T07:23:13Z</time>
      </trkpt>
      <trkpt lat="42.84993" lon="0.02559">
        <ele>1531</ele>
        <time>2012-03-31T07:23:16Z</time>
      </trkpt>
      <trkpt lat="42.84991" lon="0.02564">
        <ele>1531</ele>
        <time>2012-03-31T07:23:19Z</time>
      </trkpt>
      <trkpt lat="42.8499" lon="0.02569">
        <ele>1531</ele>
        <time>2012-03-31T07:23:22Z</time>
      </trkpt>
      <trkpt lat="42.84987" lon="0.02575">
        <ele>1531</ele>
        <time>2012-03-31T07:23:26Z</time>
      </trkpt>
      <trkpt lat="42.84984" lon="0.0258">
        <ele>1531</ele>
        <time>2012-03-31T07:23:30Z</time>
      </trkpt>
      <trkpt lat="42.84982" lon="0.02584">
        <ele>1530</ele>
        <time>2012-03-31T07:23:33Z</time>
      </trkpt>
      <trkpt lat="42.84981" lon="0.02591">
        <ele>1528</ele>
        <time>2012-03-31T07:23:37Z</time>
      </trkpt>
      <trkpt lat="42.8498" lon="0.02595">
        <ele>1527</ele>
        <time>2012-03-31T07:23:40Z</time>
      </trkpt>
      <trkpt lat="42.84978" lon="0.026">
        <ele>1527</ele>
        <time>2012-03-31T07:23:43Z</time>
      </trkpt>
      <trkpt lat="42.84977" lon="0.02605">
        <ele>1527</ele>
        <time>2012-03-31T07:23:46Z</time>
      </trkpt>
      <trkpt lat="42.84978" lon="0.0261">
        <ele>1527</ele>
        <time>2012-03-31T07:23:49Z</time>
      </trkpt>
      <trkpt lat="42.84977" lon="0.02615">
        <ele>1527</ele>
        <time>2012-03-31T07:23:52Z</time>
      </trkpt>
      <trkpt lat="42.84978" lon="0.02621">
        <ele>1527</ele>
        <time>2012-03-31T07:23:55Z</time>
      </trkpt>
      <trkpt lat="42.84979" lon="0.02626">
        <ele>1527</ele>
        <time>2012-03-31T07:23:58Z</time>
      </trkpt>
      <trkpt lat="42.8498" lon="0.02631">
        <ele>1527</ele>
        <time>2012-03-31T07:24:01Z</time>
      </trkpt>
      <trkpt lat="42.8498" lon="0.02636">
        <ele>1526</ele>
        <time>2012-03-31T07:24:04Z</time>
      </trkpt>
      <trkpt lat="42.84981" lon="0.02641">
        <ele>1526</ele>
        <time>2012-03-31T07:24:07Z</time>
      </trkpt>
      <trkpt lat="42.84981" lon="0.02647">
        <ele>1526</ele>
        <time>2012-03-31T07:24:10Z</time>
      </trkpt>
      <trkpt lat="42.84981" lon="0.02652">
        <ele>1526</ele>
        <time>2012-03-31T07:24:13Z</time>
      </trkpt>
      <trkpt lat="42.84982" lon="0.02658">
        <ele>1526</ele>
        <time>2012-03-31T07:24:17Z</time>
      </trkpt>
      <trkpt lat="42.84981" lon="0.02663">
        <ele>1526</ele>
        <time>2012-03-31T07:24:21Z</time>
      </trkpt>
      <trkpt lat="42.8498" lon="0.02667">
        <ele>1526</ele>
        <time>2012-03-31T07:24:24Z</time>
      </trkpt>
      <trkpt lat="42.84979" lon="0.02671">
        <ele>1526</ele>
        <time>2012-03-31T07:24:27Z</time>
      </trkpt>
      <trkpt lat="42.84979" lon="0.02677">
        <ele>1526</ele>
        <time>2012-03-31T07:24:31Z</time>
      </trkpt>
      <trkpt lat="42.84979" lon="0.02681">
        <ele>1525</ele>
        <time>2012-03-31T07:24:34Z</time>
      </trkpt>
      <trkpt lat="42.84979" lon="0.02685">
        <ele>1523</ele>
        <time>2012-03-31T07:24:37Z</time>
      </trkpt>
      <trkpt lat="42.84978" lon="0.02691">
        <ele>1521</ele>
        <time>2012-03-31T07:24:41Z</time>
      </trkpt>
      <trkpt lat="42.84977" lon="0.02695">
        <ele>1521</ele>
        <time>2012-03-31T07:24:44Z</time>
      </trkpt>
      <trkpt lat="42.84976" lon="0.02699">
        <ele>1521</ele>
        <time>2012-03-31T07:24:47Z</time>
      </trkpt>
      <trkpt lat="42.84975" lon="0.02704">
        <ele>1521</ele>
        <time>2012-03-31T07:24:50Z</time>
      </trkpt>
      <trkpt lat="42.84974" lon="0.02708">
        <ele>1521</ele>
        <time>2012-03-31T07:24:53Z</time>
      </trkpt>
      <trkpt lat="42.84973" lon="0.02712">
        <ele>1520</ele>
        <time>2012-03-31T07:24:56Z</time>
      </trkpt>
      <trkpt lat="42.84972" lon="0.02717">
        <ele>1519</ele>
        <time>2012-03-31T07:24:59Z</time>
      </trkpt>
      <trkpt lat="42.8497" lon="0.02723">
        <ele>1518</ele>
        <time>2012-03-31T07:25:03Z</time>
      </trkpt>
      <trkpt lat="42.84969" lon="0.02727">
        <ele>1518</ele>
        <time>2012-03-31T07:25:06Z</time>
      </trkpt>
      <trkpt lat="42.84968" lon="0.02731">
        <ele>1517</ele>
        <time>2012-03-31T07:25:09Z</time>
      </trkpt>
      <trkpt lat="42.84966" lon="0.02736">
        <ele>1517</ele>
        <time>2012-03-31T07:25:12Z</time>
      </trkpt>
      <trkpt lat="42.84965" lon="0.02741">
        <ele>1517</ele>
        <time>2012-03-31T07:25:15Z</time>
      </trkpt>
      <trkpt lat="42.84963" lon="0.02746">
        <ele>1517</ele>
        <time>2012-03-31T07:25:19Z</time>
      </trkpt>
      <trkpt lat="42.84961" lon="0.0275">
        <ele>1517</ele>
        <time>2012-03-31T07:25:22Z</time>
      </trkpt>
      <trkpt lat="42.8496" lon="0.02754">
        <ele>1517</ele>
        <time>2012-03-31T07:25:25Z</time>
      </trkpt>
      <trkpt lat="42.84958" lon="0.02759">
        <ele>1517</ele>
        <time>2012-03-31T07:25:29Z</time>
      </trkpt>
      <trkpt lat="42.84956" lon="0.02764">
        <ele>1517</ele>
        <time>2012-03-31T07:25:32Z</time>
      </trkpt>
      <trkpt lat="42.84955" lon="0.02767">
        <ele>1516</ele>
        <time>2012-03-31T07:25:35Z</time>
      </trkpt>
      <trkpt lat="42.84953" lon="0.02772">
        <ele>1516</ele>
        <time>2012-03-31T07:25:38Z</time>
      </trkpt>
      <trkpt lat="42.84951" lon="0.02777">
        <ele>1516</ele>
        <time>2012-03-31T07:25:42Z</time>
      </trkpt>
      <trkpt lat="42.84948" lon="0.02781">
        <ele>1516</ele>
        <time>2012-03-31T07:25:45Z</time>
      </trkpt>
      <trkpt lat="42.84946" lon="0.02786">
        <ele>1516</ele>
        <time>2012-03-31T07:25:48Z</time>
      </trkpt>
      <trkpt lat="42.84945" lon="0.02791">
        <ele>1516</ele>
        <time>2012-03-31T07:25:52Z</time>
      </trkpt>
      <trkpt lat="42.84944" lon="0.02795">
        <ele>1516</ele>
        <time>2012-03-31T07:25:55Z</time>
      </trkpt>
      <trkpt lat="42.84943" lon="0.02801">
        <ele>1516</ele>
        <time>2012-03-31T07:25:58Z</time>
      </trkpt>
      <trkpt lat="42.84943" lon="0.02805">
        <ele>1515</ele>
        <time>2012-03-31T07:26:01Z</time>
      </trkpt>
      <trkpt lat="42.84942" lon="0.0281">
        <ele>1514</ele>
        <time>2012-03-31T07:26:04Z</time>
      </trkpt>
      <trkpt lat="42.84941" lon="0.02814">
        <ele>1514</ele>
        <time>2012-03-31T07:26:07Z</time>
      </trkpt>
      <trkpt lat="42.84941" lon="0.02819">
        <ele>1514</ele>
        <time>2012-03-31T07:26:10Z</time>
      </trkpt>
      <trkpt lat="42.8494" lon="0.02824">
        <ele>1514</ele>
        <time>2012-03-31T07:26:13Z</time>
      </trkpt>
      <trkpt lat="42.84939" lon="0.0283">
        <ele>1513</ele>
        <time>2012-03-31T07:26:16Z</time>
      </trkpt>
      <trkpt lat="42.84938" lon="0.02834">
        <ele>1513</ele>
        <time>2012-03-31T07:26:19Z</time>
      </trkpt>
      <trkpt lat="42.84937" lon="0.0284">
        <ele>1513</ele>
        <time>2012-03-31T07:26:22Z</time>
      </trkpt>
      <trkpt lat="42.84936" lon="0.02844">
        <ele>1513</ele>
        <time>2012-03-31T07:26:25Z</time>
      </trkpt>
      <trkpt lat="42.84935" lon="0.02849">
        <ele>1513</ele>
        <time>2012-03-31T07:26:29Z</time>
      </trkpt>
      <trkpt lat="42.84933" lon="0.02853">
        <ele>1513</ele>
        <time>2012-03-31T07:26:32Z</time>
      </trkpt>
      <trkpt lat="42.84931" lon="0.02857">
        <ele>1513</ele>
        <time>2012-03-31T07:26:35Z</time>
      </trkpt>
      <trkpt lat="42.84928" lon="0.02862">
        <ele>1513</ele>
        <time>2012-03-31T07:26:38Z</time>
      </trkpt>
      <trkpt lat="42.84925" lon="0.02866">
        <ele>1513</ele>
        <time>2012-03-31T07:26:41Z</time>
      </trkpt>
      <trkpt lat="42.84922" lon="0.02872">
        <ele>1513</ele>
        <time>2012-03-31T07:26:45Z</time>
      </trkpt>
      <trkpt lat="42.8492" lon="0.02876">
        <ele>1512</ele>
        <time>2012-03-31T07:26:49Z</time>
      </trkpt>
      <trkpt lat="42.84917" lon="0.0288">
        <ele>1511</ele>
        <time>2012-03-31T07:26:52Z</time>
      </trkpt>
      <trkpt lat="42.84914" lon="0.02884">
        <ele>1510</ele>
        <time>2012-03-31T07:26:56Z</time>
      </trkpt>
      <trkpt lat="42.84911" lon="0.02888">
        <ele>1510</ele>
        <time>2012-03-31T07:27:00Z</time>
      </trkpt>
      <trkpt lat="42.84908" lon="0.02891">
        <ele>1510</ele>
        <time>2012-03-31T07:27:03Z</time>
      </trkpt>
      <trkpt lat="42.84904" lon="0.02894">
        <ele>1510</ele>
        <time>2012-03-31T07:27:06Z</time>
      </trkpt>
      <trkpt lat="42.84902" lon="0.02897">
        <ele>1510</ele>
        <time>2012-03-31T07:27:09Z</time>
      </trkpt>
      <trkpt lat="42.84901" lon="0.02898">
        <ele>1510</ele>
        <time>2012-03-31T07:27:13Z</time>
      </trkpt>
      <trkpt lat="42.84897" lon="0.02902">
        <ele>1510</ele>
        <time>2012-03-31T07:27:17Z</time>
      </trkpt>
      <trkpt lat="42.84894" lon="0.02905">
        <ele>1510</ele>
        <time>2012-03-31T07:27:20Z</time>
      </trkpt>
      <trkpt lat="42.84892" lon="0.02908">
        <ele>1510</ele>
        <time>2012-03-31T07:27:23Z</time>
      </trkpt>
      <trkpt lat="42.8489" lon="0.02914">
        <ele>1510</ele>
        <time>2012-03-31T07:27:27Z</time>
      </trkpt>
      <trkpt lat="42.84888" lon="0.02919">
        <ele>1510</ele>
        <time>2012-03-31T07:27:30Z</time>
      </trkpt>
      <trkpt lat="42.84887" lon="0.02923">
        <ele>1510</ele>
        <time>2012-03-31T07:27:33Z</time>
      </trkpt>
      <trkpt lat="42.84887" lon="0.02929">
        <ele>1510</ele>
        <time>2012-03-31T07:27:36Z</time>
      </trkpt>
      <trkpt lat="42.84886" lon="0.02933">
        <ele>1510</ele>
        <time>2012-03-31T07:27:39Z</time>
      </trkpt>
      <trkpt lat="42.84885" lon="0.02939">
        <ele>1510</ele>
        <time>2012-03-31T07:27:42Z</time>
      </trkpt>
      <trkpt lat="42.84885" lon="0.02944">
        <ele>1510</ele>
        <time>2012-03-31T07:27:45Z</time>
      </trkpt>
      <trkpt lat="42.84884" lon="0.0295">
        <ele>1509</ele>
        <time>2012-03-31T07:27:48Z</time>
      </trkpt>
      <trkpt lat="42.84883" lon="0.02955">
        <ele>1508</ele>
        <time>2012-03-31T07:27:51Z</time>
      </trkpt>
      <trkpt lat="42.84882" lon="0.02961">
        <ele>1508</ele>
        <time>2012-03-31T07:27:55Z</time>
      </trkpt>
      <trkpt lat="42.84881" lon="0.02966">
        <ele>1508</ele>
        <time>2012-03-31T07:27:58Z</time>
      </trkpt>
      <trkpt lat="42.8488" lon="0.02971">
        <ele>1508</ele>
        <time>2012-03-31T07:28:01Z</time>
      </trkpt>
      <trkpt lat="42.8488" lon="0.02976">
        <ele>1508</ele>
        <time>2012-03-31T07:28:04Z</time>
      </trkpt>
      <trkpt lat="42.8488" lon="0.02981">
        <ele>1508</ele>
        <time>2012-03-31T07:28:07Z</time>
      </trkpt>
      <trkpt lat="42.8488" lon="0.02986">
        <ele>1508</ele>
        <time>2012-03-31T07:28:10Z</time>
      </trkpt>
      <trkpt lat="42.8488" lon="0.02991">
        <ele>1508</ele>
        <time>2012-03-31T07:28:13Z</time>
      </trkpt>
      <trkpt lat="42.84879" lon="0.02998">
        <ele>1508</ele>
        <time>2012-03-31T07:28:17Z</time>
      </trkpt>
      <trkpt lat="42.84879" lon="0.03003">
        <ele>1508</ele>
        <time>2012-03-31T07:28:20Z</time>
      </trkpt>
      <trkpt lat="42.84879" lon="0.03008">
        <ele>1508</ele>
        <time>2012-03-31T07:28:23Z</time>
      </trkpt>
      <trkpt lat="42.84879" lon="0.03013">
        <ele>1508</ele>
        <time>2012-03-31T07:28:26Z</time>
      </trkpt>
      <trkpt lat="42.84879" lon="0.03018">
        <ele>1508</ele>
        <time>2012-03-31T07:28:29Z</time>
      </trkpt>
      <trkpt lat="42.84879" lon="0.03024">
        <ele>1508</ele>
        <time>2012-03-31T07:28:32Z</time>
      </trkpt>
      <trkpt lat="42.8488" lon="0.03029">
        <ele>1508</ele>
        <time>2012-03-31T07:28:35Z</time>
      </trkpt>
      <trkpt lat="42.8488" lon="0.03035">
        <ele>1508</ele>
        <time>2012-03-31T07:28:38Z</time>
      </trkpt>
      <trkpt lat="42.84881" lon="0.03041">
        <ele>1508</ele>
        <time>2012-03-31T07:28:41Z</time>
      </trkpt>
      <trkpt lat="42.84882" lon="0.03045">
        <ele>1508</ele>
        <time>2012-03-31T07:28:44Z</time>
      </trkpt>
      <trkpt lat="42.84884" lon="0.03049">
        <ele>1508</ele>
        <time>2012-03-31T07:28:47Z</time>
      </trkpt>
      <trkpt lat="42.84885" lon="0.03053">
        <ele>1508</ele>
        <time>2012-03-31T07:28:50Z</time>
      </trkpt>
      <trkpt lat="42.84887" lon="0.03058">
        <ele>1508</ele>
        <time>2012-03-31T07:28:53Z</time>
      </trkpt>
      <trkpt lat="42.8489" lon="0.03063">
        <ele>1508</ele>
        <time>2012-03-31T07:28:56Z</time>
      </trkpt>
      <trkpt lat="42.84892" lon="0.03067">
        <ele>1507</ele>
        <time>2012-03-31T07:28:59Z</time>
      </trkpt>
      <trkpt lat="42.84894" lon="0.03071">
        <ele>1507</ele>
        <time>2012-03-31T07:29:02Z</time>
      </trkpt>
      <trkpt lat="42.84896" lon="0.03076">
        <ele>1507</ele>
        <time>2012-03-31T07:29:05Z</time>
      </trkpt>
      <trkpt lat="42.84898" lon="0.0308">
        <ele>1507</ele>
        <time>2012-03-31T07:29:08Z</time>
      </trkpt>
      <trkpt lat="42.84899" lon="0.03086">
        <ele>1507</ele>
        <time>2012-03-31T07:29:11Z</time>
      </trkpt>
      <trkpt lat="42.849" lon="0.0309">
        <ele>1507</ele>
        <time>2012-03-31T07:29:14Z</time>
      </trkpt>
      <trkpt lat="42.84901" lon="0.03095">
        <ele>1507</ele>
        <time>2012-03-31T07:29:17Z</time>
      </trkpt>
      <trkpt lat="42.84901" lon="0.031">
        <ele>1507</ele>
        <time>2012-03-31T07:29:20Z</time>
      </trkpt>
      <trkpt lat="42.84901" lon="0.03106">
        <ele>1507</ele>
        <time>2012-03-31T07:29:23Z</time>
      </trkpt>
      <trkpt lat="42.84901" lon="0.03111">
        <ele>1507</ele>
        <time>2012-03-31T07:29:26Z</time>
      </trkpt>
      <trkpt lat="42.84901" lon="0.03116">
        <ele>1507</ele>
        <time>2012-03-31T07:29:29Z</time>
      </trkpt>
      <trkpt lat="42.84902" lon="0.0312">
        <ele>1507</ele>
        <time>2012-03-31T07:29:32Z</time>
      </trkpt>
      <trkpt lat="42.84903" lon="0.03125">
        <ele>1507</ele>
        <time>2012-03-31T07:29:35Z</time>
      </trkpt>
      <trkpt lat="42.84903" lon="0.03131">
        <ele>1507</ele>
        <time>2012-03-31T07:29:39Z</time>
      </trkpt>
      <trkpt lat="42.84904" lon="0.03137">
        <ele>1507</ele>
        <time>2012-03-31T07:29:42Z</time>
      </trkpt>
      <trkpt lat="42.84904" lon="0.03142">
        <ele>1507</ele>
        <time>2012-03-31T07:29:45Z</time>
      </trkpt>
      <trkpt lat="42.84904" lon="0.03148">
        <ele>1507</ele>
        <time>2012-03-31T07:29:48Z</time>
      </trkpt>
      <trkpt lat="42.84905" lon="0.03154">
        <ele>1507</ele>
        <time>2012-03-31T07:29:51Z</time>
      </trkpt>
      <trkpt lat="42.84905" lon="0.03158">
        <ele>1507</ele>
        <time>2012-03-31T07:29:54Z</time>
      </trkpt>
      <trkpt lat="42.84906" lon="0.03164">
        <ele>1507</ele>
        <time>2012-03-31T07:29:57Z</time>
      </trkpt>
      <trkpt lat="42.84906" lon="0.03168">
        <ele>1507</ele>
        <time>2012-03-31T07:30:00Z</time>
      </trkpt>
      <trkpt lat="42.84907" lon="0.03173">
        <ele>1507</ele>
        <time>2012-03-31T07:30:03Z</time>
      </trkpt>
      <trkpt lat="42.84908" lon="0.03177">
        <ele>1507</ele>
        <time>2012-03-31T07:30:06Z</time>
      </trkpt>
      <trkpt lat="42.84908" lon="0.03181">
        <ele>1507</ele>
        <time>2012-03-31T07:30:09Z</time>
      </trkpt>
      <trkpt lat="42.84909" lon="0.03186">
        <ele>1507</ele>
        <time>2012-03-31T07:30:13Z</time>
      </trkpt>
      <trkpt lat="42.84909" lon="0.0319">
        <ele>1507</ele>
        <time>2012-03-31T07:30:16Z</time>
      </trkpt>
      <trkpt lat="42.84911" lon="0.03195">
        <ele>1507</ele>
        <time>2012-03-31T07:30:20Z</time>
      </trkpt>
      <trkpt lat="42.84912" lon="0.03199">
        <ele>1507</ele>
        <time>2012-03-31T07:30:23Z</time>
      </trkpt>
      <trkpt lat="42.84914" lon="0.03203">
        <ele>1507</ele>
        <time>2012-03-31T07:30:27Z</time>
      </trkpt>
      <trkpt lat="42.84915" lon="0.03207">
        <ele>1507</ele>
        <time>2012-03-31T07:30:31Z</time>
      </trkpt>
      <trkpt lat="42.84917" lon="0.03211">
        <ele>1508</ele>
        <time>2012-03-31T07:30:35Z</time>
      </trkpt>
      <trkpt lat="42.84919" lon="0.03217">
        <ele>1510</ele>
        <time>2012-03-31T07:30:39Z</time>
      </trkpt>
      <trkpt lat="42.84919" lon="0.03221">
        <ele>1513</ele>
        <time>2012-03-31T07:30:42Z</time>
      </trkpt>
      <trkpt lat="42.8492" lon="0.03225">
        <ele>1516</ele>
        <time>2012-03-31T07:30:45Z</time>
      </trkpt>
      <trkpt lat="42.84921" lon="0.03229">
        <ele>1518</ele>
        <time>2012-03-31T07:30:48Z</time>
      </trkpt>
      <trkpt lat="42.84922" lon="0.03233">
        <ele>1519</ele>
        <time>2012-03-31T07:30:52Z</time>
      </trkpt>
      <trkpt lat="42.84923" lon="0.03237">
        <ele>1519</ele>
        <time>2012-03-31T07:30:55Z</time>
      </trkpt>
      <trkpt lat="42.84924" lon="0.03241">
        <ele>1520</ele>
        <time>2012-03-31T07:30:59Z</time>
      </trkpt>
      <trkpt lat="42.84925" lon="0.03245">
        <ele>1520</ele>
        <time>2012-03-31T07:31:03Z</time>
      </trkpt>
      <trkpt lat="42.84924" lon="0.0325">
        <ele>1522</ele>
        <time>2012-03-31T07:31:06Z</time>
      </trkpt>
      <trkpt lat="42.84925" lon="0.03254">
        <ele>1524</ele>
        <time>2012-03-31T07:31:09Z</time>
      </trkpt>
      <trkpt lat="42.84927" lon="0.03258">
        <ele>1525</ele>
        <time>2012-03-31T07:31:13Z</time>
      </trkpt>
      <trkpt lat="42.84928" lon="0.03261">
        <ele>1526</ele>
        <time>2012-03-31T07:31:16Z</time>
      </trkpt>
      <trkpt lat="42.84931" lon="0.03264">
        <ele>1527</ele>
        <time>2012-03-31T07:31:20Z</time>
      </trkpt>
      <trkpt lat="42.84934" lon="0.03268">
        <ele>1527</ele>
        <time>2012-03-31T07:31:24Z</time>
      </trkpt>
      <trkpt lat="42.84936" lon="0.03272">
        <ele>1527</ele>
        <time>2012-03-31T07:31:27Z</time>
      </trkpt>
      <trkpt lat="42.84938" lon="0.03276">
        <ele>1527</ele>
        <time>2012-03-31T07:31:31Z</time>
      </trkpt>
      <trkpt lat="42.84941" lon="0.03279">
        <ele>1527</ele>
        <time>2012-03-31T07:31:35Z</time>
      </trkpt>
      <trkpt lat="42.84943" lon="0.03282">
        <ele>1527</ele>
        <time>2012-03-31T07:31:39Z</time>
      </trkpt>
      <trkpt lat="42.84945" lon="0.03287">
        <ele>1527</ele>
        <time>2012-03-31T07:31:42Z</time>
      </trkpt>
      <trkpt lat="42.84945" lon="0.03291">
        <ele>1527</ele>
        <time>2012-03-31T07:31:45Z</time>
      </trkpt>
      <trkpt lat="42.84945" lon="0.03296">
        <ele>1527</ele>
        <time>2012-03-31T07:31:49Z</time>
      </trkpt>
      <trkpt lat="42.84945" lon="0.033">
        <ele>1527</ele>
        <time>2012-03-31T07:31:53Z</time>
      </trkpt>
      <trkpt lat="42.84944" lon="0.03305">
        <ele>1527</ele>
        <time>2012-03-31T07:31:57Z</time>
      </trkpt>
      <trkpt lat="42.84943" lon="0.03309">
        <ele>1527</ele>
        <time>2012-03-31T07:32:00Z</time>
      </trkpt>
      <trkpt lat="42.84943" lon="0.03314">
        <ele>1527</ele>
        <time>2012-03-31T07:32:04Z</time>
      </trkpt>
      <trkpt lat="42.84944" lon="0.03319">
        <ele>1527</ele>
        <time>2012-03-31T07:32:08Z</time>
      </trkpt>
      <trkpt lat="42.84945" lon="0.03322">
        <ele>1527</ele>
        <time>2012-03-31T07:32:11Z</time>
      </trkpt>
      <trkpt lat="42.84946" lon="0.03325">
        <ele>1527</ele>
        <time>2012-03-31T07:32:14Z</time>
      </trkpt>
      <trkpt lat="42.84948" lon="0.03329">
        <ele>1529</ele>
        <time>2012-03-31T07:32:18Z</time>
      </trkpt>
      <trkpt lat="42.8495" lon="0.03332">
        <ele>1530</ele>
        <time>2012-03-31T07:32:22Z</time>
      </trkpt>
      <trkpt lat="42.84953" lon="0.03334">
        <ele>1530</ele>
        <time>2012-03-31T07:32:26Z</time>
      </trkpt>
      <trkpt lat="42.84956" lon="0.03338">
        <ele>1530</ele>
        <time>2012-03-31T07:32:30Z</time>
      </trkpt>
      <trkpt lat="42.84959" lon="0.03342">
        <ele>1530</ele>
        <time>2012-03-31T07:32:34Z</time>
      </trkpt>
      <trkpt lat="42.8496" lon="0.03346">
        <ele>1531</ele>
        <time>2012-03-31T07:32:38Z</time>
      </trkpt>
      <trkpt lat="42.84961" lon="0.0335">
        <ele>1532</ele>
        <time>2012-03-31T07:32:41Z</time>
      </trkpt>
      <trkpt lat="42.84961" lon="0.03354">
        <ele>1533</ele>
        <time>2012-03-31T07:32:45Z</time>
      </trkpt>
      <trkpt lat="42.84961" lon="0.03359">
        <ele>1533</ele>
        <time>2012-03-31T07:32:49Z</time>
      </trkpt>
      <trkpt lat="42.84961" lon="0.03363">
        <ele>1533</ele>
        <time>2012-03-31T07:32:53Z</time>
      </trkpt>
      <trkpt lat="42.8496" lon="0.03368">
        <ele>1533</ele>
        <time>2012-03-31T07:32:57Z</time>
      </trkpt>
      <trkpt lat="42.8496" lon="0.03372">
        <ele>1533</ele>
        <time>2012-03-31T07:33:00Z</time>
      </trkpt>
      <trkpt lat="42.8496" lon="0.03376">
        <ele>1533</ele>
        <time>2012-03-31T07:33:04Z</time>
      </trkpt>
      <trkpt lat="42.84959" lon="0.03381">
        <ele>1531</ele>
        <time>2012-03-31T07:33:08Z</time>
      </trkpt>
      <trkpt lat="42.84959" lon="0.03384">
        <ele>1530</ele>
        <time>2012-03-31T07:33:12Z</time>
      </trkpt>
      <trkpt lat="42.84959" lon="0.03389">
        <ele>1530</ele>
        <time>2012-03-31T07:33:16Z</time>
      </trkpt>
      <trkpt lat="42.8496" lon="0.03393">
        <ele>1530</ele>
        <time>2012-03-31T07:33:20Z</time>
      </trkpt>
      <trkpt lat="42.84961" lon="0.03397">
        <ele>1530</ele>
        <time>2012-03-31T07:33:24Z</time>
      </trkpt>
      <trkpt lat="42.84962" lon="0.03401">
        <ele>1530</ele>
        <time>2012-03-31T07:33:28Z</time>
      </trkpt>
      <trkpt lat="42.84963" lon="0.03404">
        <ele>1530</ele>
        <time>2012-03-31T07:33:32Z</time>
      </trkpt>
      <trkpt lat="42.84964" lon="0.03407">
        <ele>1531</ele>
        <time>2012-03-31T07:33:36Z</time>
      </trkpt>
      <trkpt lat="42.84965" lon="0.03411">
        <ele>1532</ele>
        <time>2012-03-31T07:33:40Z</time>
      </trkpt>
      <trkpt lat="42.84965" lon="0.03414">
        <ele>1532</ele>
        <time>2012-03-31T07:33:44Z</time>
      </trkpt>
      <trkpt lat="42.84966" lon="0.03418">
        <ele>1532</ele>
        <time>2012-03-31T07:33:48Z</time>
      </trkpt>
      <trkpt lat="42.84966" lon="0.03423">
        <ele>1532</ele>
        <time>2012-03-31T07:33:52Z</time>
      </trkpt>
      <trkpt lat="42.84967" lon="0.03427">
        <ele>1532</ele>
        <time>2012-03-31T07:33:55Z</time>
      </trkpt>
      <trkpt lat="42.84967" lon="0.03431">
        <ele>1531</ele>
        <time>2012-03-31T07:33:59Z</time>
      </trkpt>
      <trkpt lat="42.84967" lon="0.03436">
        <ele>1529</ele>
        <time>2012-03-31T07:34:03Z</time>
      </trkpt>
      <trkpt lat="42.84968" lon="0.0344">
        <ele>1528</ele>
        <time>2012-03-31T07:34:06Z</time>
      </trkpt>
      <trkpt lat="42.84968" lon="0.03444">
        <ele>1527</ele>
        <time>2012-03-31T07:34:09Z</time>
      </trkpt>
      <trkpt lat="42.84968" lon="0.03449">
        <ele>1525</ele>
        <time>2012-03-31T07:34:13Z</time>
      </trkpt>
      <trkpt lat="42.84968" lon="0.03454">
        <ele>1524</ele>
        <time>2012-03-31T07:34:17Z</time>
      </trkpt>
      <trkpt lat="42.84968" lon="0.03459">
        <ele>1523</ele>
        <time>2012-03-31T07:34:21Z</time>
      </trkpt>
      <trkpt lat="42.84967" lon="0.03464">
        <ele>1523</ele>
        <time>2012-03-31T07:34:25Z</time>
      </trkpt>
      <trkpt lat="42.84966" lon="0.03468">
        <ele>1523</ele>
        <time>2012-03-31T07:34:29Z</time>
      </trkpt>
      <trkpt lat="42.84966" lon="0.03472">
        <ele>1523</ele>
        <time>2012-03-31T07:34:33Z</time>
      </trkpt>
      <trkpt lat="42.84965" lon="0.03477">
        <ele>1524</ele>
        <time>2012-03-31T07:34:37Z</time>
      </trkpt>
      <trkpt lat="42.84964" lon="0.03482">
        <ele>1524</ele>
        <time>2012-03-31T07:34:41Z</time>
      </trkpt>
      <trkpt lat="42.84963" lon="0.03484">
        <ele>1528</ele>
        <time>2012-03-31T07:34:51Z</time>
      </trkpt>
      <trkpt lat="42.84961" lon="0.03488">
        <ele>1529</ele>
        <time>2012-03-31T07:34:55Z</time>
      </trkpt>
      <trkpt lat="42.8496" lon="0.03493">
        <ele>1530</ele>
        <time>2012-03-31T07:34:59Z</time>
      </trkpt>
      <trkpt lat="42.84959" lon="0.03497">
        <ele>1534</ele>
        <time>2012-03-31T07:35:03Z</time>
      </trkpt>
      <trkpt lat="42.84957" lon="0.03501">
        <ele>1536</ele>
        <time>2012-03-31T07:35:06Z</time>
      </trkpt>
      <trkpt lat="42.84956" lon="0.03506">
        <ele>1537</ele>
        <time>2012-03-31T07:35:09Z</time>
      </trkpt>
      <trkpt lat="42.84955" lon="0.03511">
        <ele>1539</ele>
        <time>2012-03-31T07:35:13Z</time>
      </trkpt>
      <trkpt lat="42.84954" lon="0.03515">
        <ele>1539</ele>
        <time>2012-03-31T07:35:16Z</time>
      </trkpt>
      <trkpt lat="42.84952" lon="0.0352">
        <ele>1539</ele>
        <time>2012-03-31T07:35:19Z</time>
      </trkpt>
      <trkpt lat="42.84951" lon="0.03524">
        <ele>1539</ele>
        <time>2012-03-31T07:35:22Z</time>
      </trkpt>
      <trkpt lat="42.84949" lon="0.03529">
        <ele>1539</ele>
        <time>2012-03-31T07:35:26Z</time>
      </trkpt>
      <trkpt lat="42.84949" lon="0.03531">
        <ele>1540</ele>
        <time>2012-03-31T07:35:32Z</time>
      </trkpt>
      <trkpt lat="42.84947" lon="0.03536">
        <ele>1540</ele>
        <time>2012-03-31T07:35:35Z</time>
      </trkpt>
      <trkpt lat="42.84946" lon="0.0354">
        <ele>1540</ele>
        <time>2012-03-31T07:35:38Z</time>
      </trkpt>
      <trkpt lat="42.84944" lon="0.03545">
        <ele>1542</ele>
        <time>2012-03-31T07:35:42Z</time>
      </trkpt>
      <trkpt lat="42.84943" lon="0.0355">
        <ele>1542</ele>
        <time>2012-03-31T07:35:46Z</time>
      </trkpt>
      <trkpt lat="42.84942" lon="0.03554">
        <ele>1542</ele>
        <time>2012-03-31T07:35:50Z</time>
      </trkpt>
      <trkpt lat="42.84941" lon="0.03558">
        <ele>1542</ele>
        <time>2012-03-31T07:35:53Z</time>
      </trkpt>
      <trkpt lat="42.8494" lon="0.03562">
        <ele>1542</ele>
        <time>2012-03-31T07:35:57Z</time>
      </trkpt>
      <trkpt lat="42.8494" lon="0.03568">
        <ele>1542</ele>
        <time>2012-03-31T07:36:01Z</time>
      </trkpt>
      <trkpt lat="42.84939" lon="0.03571">
        <ele>1542</ele>
        <time>2012-03-31T07:36:05Z</time>
      </trkpt>
      <trkpt lat="42.84939" lon="0.03575">
        <ele>1542</ele>
        <time>2012-03-31T07:36:09Z</time>
      </trkpt>
      <trkpt lat="42.8494" lon="0.03579">
        <ele>1542</ele>
        <time>2012-03-31T07:36:13Z</time>
      </trkpt>
      <trkpt lat="42.84939" lon="0.03584">
        <ele>1542</ele>
        <time>2012-03-31T07:36:17Z</time>
      </trkpt>
      <trkpt lat="42.84938" lon="0.03588">
        <ele>1542</ele>
        <time>2012-03-31T07:36:21Z</time>
      </trkpt>
      <trkpt lat="42.84938" lon="0.03592">
        <ele>1542</ele>
        <time>2012-03-31T07:36:25Z</time>
      </trkpt>
      <trkpt lat="42.84937" lon="0.03596">
        <ele>1542</ele>
        <time>2012-03-31T07:36:29Z</time>
      </trkpt>
      <trkpt lat="42.84937" lon="0.03599">
        <ele>1544</ele>
        <time>2012-03-31T07:36:33Z</time>
      </trkpt>
      <trkpt lat="42.84937" lon="0.03602">
        <ele>1545</ele>
        <time>2012-03-31T07:36:36Z</time>
      </trkpt>
      <trkpt lat="42.84937" lon="0.03605">
        <ele>1546</ele>
        <time>2012-03-31T07:36:40Z</time>
      </trkpt>
      <trkpt lat="42.84937" lon="0.0361">
        <ele>1547</ele>
        <time>2012-03-31T07:36:43Z</time>
      </trkpt>
      <trkpt lat="42.84937" lon="0.03614">
        <ele>1549</ele>
        <time>2012-03-31T07:36:46Z</time>
      </trkpt>
      <trkpt lat="42.84937" lon="0.03618">
        <ele>1550</ele>
        <time>2012-03-31T07:36:49Z</time>
      </trkpt>
      <trkpt lat="42.84937" lon="0.03622">
        <ele>1550</ele>
        <time>2012-03-31T07:36:52Z</time>
      </trkpt>
      <trkpt lat="42.84938" lon="0.03625">
        <ele>1550</ele>
        <time>2012-03-31T07:36:56Z</time>
      </trkpt>
      <trkpt lat="42.84939" lon="0.0363">
        <ele>1550</ele>
        <time>2012-03-31T07:37:00Z</time>
      </trkpt>
      <trkpt lat="42.8494" lon="0.03634">
        <ele>1550</ele>
        <time>2012-03-31T07:37:04Z</time>
      </trkpt>
      <trkpt lat="42.84941" lon="0.03636">
        <ele>1550</ele>
        <time>2012-03-31T07:37:07Z</time>
      </trkpt>
      <trkpt lat="42.84942" lon="0.0364">
        <ele>1550</ele>
        <time>2012-03-31T07:37:10Z</time>
      </trkpt>
      <trkpt lat="42.84943" lon="0.03644">
        <ele>1550</ele>
        <time>2012-03-31T07:37:14Z</time>
      </trkpt>
      <trkpt lat="42.84944" lon="0.03648">
        <ele>1550</ele>
        <time>2012-03-31T07:37:18Z</time>
      </trkpt>
      <trkpt lat="42.84946" lon="0.03652">
        <ele>1550</ele>
        <time>2012-03-31T07:37:22Z</time>
      </trkpt>
      <trkpt lat="42.84946" lon="0.03657">
        <ele>1550</ele>
        <time>2012-03-31T07:37:26Z</time>
      </trkpt>
      <trkpt lat="42.84947" lon="0.03662">
        <ele>1550</ele>
        <time>2012-03-31T07:37:29Z</time>
      </trkpt>
      <trkpt lat="42.84946" lon="0.03667">
        <ele>1550</ele>
        <time>2012-03-31T07:37:33Z</time>
      </trkpt>
      <trkpt lat="42.84945" lon="0.03671">
        <ele>1550</ele>
        <time>2012-03-31T07:37:36Z</time>
      </trkpt>
      <trkpt lat="42.84945" lon="0.03672">
        <ele>1550</ele>
        <time>2012-03-31T07:37:40Z</time>
      </trkpt>
      <trkpt lat="42.84943" lon="0.03677">
        <ele>1550</ele>
        <time>2012-03-31T07:37:44Z</time>
      </trkpt>
      <trkpt lat="42.84942" lon="0.03682">
        <ele>1550</ele>
        <time>2012-03-31T07:37:48Z</time>
      </trkpt>
      <trkpt lat="42.84941" lon="0.03687">
        <ele>1550</ele>
        <time>2012-03-31T07:37:51Z</time>
      </trkpt>
      <trkpt lat="42.84939" lon="0.03691">
        <ele>1550</ele>
        <time>2012-03-31T07:37:55Z</time>
      </trkpt>
      <trkpt lat="42.84937" lon="0.03694">
        <ele>1550</ele>
        <time>2012-03-31T07:37:59Z</time>
      </trkpt>
      <trkpt lat="42.84934" lon="0.03698">
        <ele>1550</ele>
        <time>2012-03-31T07:38:03Z</time>
      </trkpt>
      <trkpt lat="42.84932" lon="0.03701">
        <ele>1550</ele>
        <time>2012-03-31T07:38:07Z</time>
      </trkpt>
      <trkpt lat="42.84932" lon="0.03705">
        <ele>1551</ele>
        <time>2012-03-31T07:38:11Z</time>
      </trkpt>
      <trkpt lat="42.8493" lon="0.03706">
        <ele>1552</ele>
        <time>2012-03-31T07:38:15Z</time>
      </trkpt>
      <trkpt lat="42.84929" lon="0.03711">
        <ele>1552</ele>
        <time>2012-03-31T07:38:19Z</time>
      </trkpt>
      <trkpt lat="42.84928" lon="0.03716">
        <ele>1552</ele>
        <time>2012-03-31T07:38:23Z</time>
      </trkpt>
      <trkpt lat="42.84928" lon="0.0372">
        <ele>1552</ele>
        <time>2012-03-31T07:38:27Z</time>
      </trkpt>
      <trkpt lat="42.84927" lon="0.03724">
        <ele>1552</ele>
        <time>2012-03-31T07:38:31Z</time>
      </trkpt>
      <trkpt lat="42.84925" lon="0.03728">
        <ele>1552</ele>
        <time>2012-03-31T07:38:36Z</time>
      </trkpt>
      <trkpt lat="42.84924" lon="0.03732">
        <ele>1553</ele>
        <time>2012-03-31T07:38:40Z</time>
      </trkpt>
      <trkpt lat="42.84922" lon="0.03737">
        <ele>1553</ele>
        <time>2012-03-31T07:38:44Z</time>
      </trkpt>
      <trkpt lat="42.8492" lon="0.03742">
        <ele>1553</ele>
        <time>2012-03-31T07:38:48Z</time>
      </trkpt>
      <trkpt lat="42.84919" lon="0.03746">
        <ele>1553</ele>
        <time>2012-03-31T07:38:52Z</time>
      </trkpt>
      <trkpt lat="42.84918" lon="0.0375">
        <ele>1553</ele>
        <time>2012-03-31T07:38:56Z</time>
      </trkpt>
      <trkpt lat="42.84918" lon="0.03756">
        <ele>1554</ele>
        <time>2012-03-31T07:39:00Z</time>
      </trkpt>
      <trkpt lat="42.84918" lon="0.03762">
        <ele>1554</ele>
        <time>2012-03-31T07:39:04Z</time>
      </trkpt>
      <trkpt lat="42.84918" lon="0.03765">
        <ele>1554</ele>
        <time>2012-03-31T07:39:08Z</time>
      </trkpt>
      <trkpt lat="42.84919" lon="0.03769">
        <ele>1554</ele>
        <time>2012-03-31T07:39:12Z</time>
      </trkpt>
      <trkpt lat="42.8492" lon="0.03774">
        <ele>1554</ele>
        <time>2012-03-31T07:39:16Z</time>
      </trkpt>
      <trkpt lat="42.84921" lon="0.03778">
        <ele>1555</ele>
        <time>2012-03-31T07:39:20Z</time>
      </trkpt>
      <trkpt lat="42.84921" lon="0.03782">
        <ele>1556</ele>
        <time>2012-03-31T07:39:24Z</time>
      </trkpt>
      <trkpt lat="42.84922" lon="0.03783">
        <ele>1557</ele>
        <time>2012-03-31T07:39:27Z</time>
      </trkpt>
      <trkpt lat="42.84924" lon="0.03787">
        <ele>1560</ele>
        <time>2012-03-31T07:39:31Z</time>
      </trkpt>
      <trkpt lat="42.84928" lon="0.03789">
        <ele>1562</ele>
        <time>2012-03-31T07:39:35Z</time>
      </trkpt>
      <trkpt lat="42.8493" lon="0.03792">
        <ele>1563</ele>
        <time>2012-03-31T07:39:39Z</time>
      </trkpt>
      <trkpt lat="42.84933" lon="0.03795">
        <ele>1564</ele>
        <time>2012-03-31T07:39:42Z</time>
      </trkpt>
      <trkpt lat="42.84935" lon="0.03799">
        <ele>1565</ele>
        <time>2012-03-31T07:39:46Z</time>
      </trkpt>
      <trkpt lat="42.84935" lon="0.03801">
        <ele>1566</ele>
        <time>2012-03-31T07:40:09Z</time>
      </trkpt>
      <trkpt lat="42.84934" lon="0.03802">
        <ele>1566</ele>
        <time>2012-03-31T07:40:15Z</time>
      </trkpt>
      <trkpt lat="42.84933" lon="0.03806">
        <ele>1567</ele>
        <time>2012-03-31T07:40:28Z</time>
      </trkpt>
      <trkpt lat="42.84933" lon="0.03807">
        <ele>1568</ele>
        <time>2012-03-31T07:40:52Z</time>
      </trkpt>
      <trkpt lat="42.84933" lon="0.03809">
        <ele>1568</ele>
        <time>2012-03-31T07:40:55Z</time>
      </trkpt>
      <trkpt lat="42.84933" lon="0.03811">
        <ele>1568</ele>
        <time>2012-03-31T07:41:00Z</time>
      </trkpt>
      <trkpt lat="42.84933" lon="0.03812">
        <ele>1568</ele>
        <time>2012-03-31T07:41:04Z</time>
      </trkpt>
      <trkpt lat="42.84933" lon="0.03814">
        <ele>1568</ele>
        <time>2012-03-31T07:41:09Z</time>
      </trkpt>
      <trkpt lat="42.84932" lon="0.03816">
        <ele>1568</ele>
        <time>2012-03-31T07:41:19Z</time>
      </trkpt>
      <trkpt lat="42.84932" lon="0.03817">
        <ele>1568</ele>
        <time>2012-03-31T07:41:23Z</time>
      </trkpt>
      <trkpt lat="42.84932" lon="0.03819">
        <ele>1568</ele>
        <time>2012-03-31T07:41:26Z</time>
      </trkpt>
      <trkpt lat="42.8493" lon="0.0382">
        <ele>1568</ele>
        <time>2012-03-31T07:41:38Z</time>
      </trkpt>
      <trkpt lat="42.84929" lon="0.03819">
        <ele>1568</ele>
        <time>2012-03-31T07:41:43Z</time>
      </trkpt>
      <trkpt lat="42.84928" lon="0.03818">
        <ele>1569</ele>
        <time>2012-03-31T07:41:46Z</time>
      </trkpt>
      <trkpt lat="42.84927" lon="0.03819">
        <ele>1569</ele>
        <time>2012-03-31T07:41:55Z</time>
      </trkpt>
      <trkpt lat="42.84924" lon="0.03821">
        <ele>1572</ele>
        <time>2012-03-31T07:42:01Z</time>
      </trkpt>
      <trkpt lat="42.84922" lon="0.03822">
        <ele>1573</ele>
        <time>2012-03-31T07:42:04Z</time>
      </trkpt>
      <trkpt lat="42.84923" lon="0.03821">
        <ele>1577</ele>
        <time>2012-03-31T07:42:13Z</time>
      </trkpt>
      <trkpt lat="42.84924" lon="0.0382">
        <ele>1578</ele>
        <time>2012-03-31T07:42:48Z</time>
      </trkpt>
      <trkpt lat="42.84925" lon="0.03819">
        <ele>1579</ele>
        <time>2012-03-31T07:43:15Z</time>
      </trkpt>
      <trkpt lat="42.84925" lon="0.0382">
        <ele>1580</ele>
        <time>2012-03-31T07:43:26Z</time>
      </trkpt>
      <trkpt lat="42.84924" lon="0.03819">
        <ele>1580</ele>
        <time>2012-03-31T07:43:46Z</time>
      </trkpt>
      <trkpt lat="42.84922" lon="0.03818">
        <ele>1581</ele>
        <time>2012-03-31T07:43:54Z</time>
      </trkpt>
      <trkpt lat="42.84923" lon="0.03819">
        <ele>1581</ele>
        <time>2012-03-31T07:44:08Z</time>
      </trkpt>
      <trkpt lat="42.84924" lon="0.03821">
        <ele>1581</ele>
        <time>2012-03-31T07:44:20Z</time>
      </trkpt>
      <trkpt lat="42.84924" lon="0.03822">
        <ele>1581</ele>
        <time>2012-03-31T07:44:34Z</time>
      </trkpt>
      <trkpt lat="42.84923" lon="0.03822">
        <ele>1579</ele>
        <time>2012-03-31T07:44:37Z</time>
      </trkpt>
      <trkpt lat="42.84924" lon="0.03821">
        <ele>1574</ele>
        <time>2012-03-31T07:44:51Z</time>
      </trkpt>
      <trkpt lat="42.84924" lon="0.03822">
        <ele>1574</ele>
        <time>2012-03-31T07:45:06Z</time>
      </trkpt>
      <trkpt lat="42.84922" lon="0.03822">
        <ele>1574</ele>
        <time>2012-03-31T07:45:12Z</time>
      </trkpt>
      <trkpt lat="42.84919" lon="0.03823">
        <ele>1572</ele>
        <time>2012-03-31T07:45:15Z</time>
      </trkpt>
      <trkpt lat="42.84919" lon="0.03822">
        <ele>1573</ele>
        <time>2012-03-31T07:45:34Z</time>
      </trkpt>
      <trkpt lat="42.84921" lon="0.03822">
        <ele>1576</ele>
        <time>2012-03-31T07:45:48Z</time>
      </trkpt>
      <trkpt lat="42.84921" lon="0.03823">
        <ele>1578</ele>
        <time>2012-03-31T07:46:09Z</time>
      </trkpt>
      <trkpt lat="42.8492" lon="0.03824">
        <ele>1580</ele>
        <time>2012-03-31T07:46:29Z</time>
      </trkpt>
      <trkpt lat="42.84918" lon="0.03824">
        <ele>1580</ele>
        <time>2012-03-31T07:46:32Z</time>
      </trkpt>
      <trkpt lat="42.84917" lon="0.03828">
        <ele>1581</ele>
        <time>2012-03-31T07:46:38Z</time>
      </trkpt>
      <trkpt lat="42.84917" lon="0.03832">
        <ele>1582</ele>
        <time>2012-03-31T07:46:43Z</time>
      </trkpt>
      <trkpt lat="42.84917" lon="0.03833">
        <ele>1582</ele>
        <time>2012-03-31T07:46:48Z</time>
      </trkpt>
      <trkpt lat="42.84917" lon="0.03837">
        <ele>1582</ele>
        <time>2012-03-31T07:46:54Z</time>
      </trkpt>
      <trkpt lat="42.84916" lon="0.03838">
        <ele>1582</ele>
        <time>2012-03-31T07:46:57Z</time>
      </trkpt>
      <trkpt lat="42.84916" lon="0.03841">
        <ele>1583</ele>
        <time>2012-03-31T07:47:02Z</time>
      </trkpt>
      <trkpt lat="42.84916" lon="0.03844">
        <ele>1584</ele>
        <time>2012-03-31T07:47:06Z</time>
      </trkpt>
      <trkpt lat="42.84915" lon="0.03848">
        <ele>1585</ele>
        <time>2012-03-31T07:47:11Z</time>
      </trkpt>
      <trkpt lat="42.84915" lon="0.03852">
        <ele>1585</ele>
        <time>2012-03-31T07:47:16Z</time>
      </trkpt>
      <trkpt lat="42.84915" lon="0.03855">
        <ele>1585</ele>
        <time>2012-03-31T07:47:21Z</time>
      </trkpt>
      <trkpt lat="42.84914" lon="0.03858">
        <ele>1586</ele>
        <time>2012-03-31T07:47:26Z</time>
      </trkpt>
      <trkpt lat="42.84914" lon="0.03862">
        <ele>1587</ele>
        <time>2012-03-31T07:47:29Z</time>
      </trkpt>
      <trkpt lat="42.84915" lon="0.03865">
        <ele>1587</ele>
        <time>2012-03-31T07:47:34Z</time>
      </trkpt>
      <trkpt lat="42.84915" lon="0.03867">
        <ele>1588</ele>
        <time>2012-03-31T07:47:38Z</time>
      </trkpt>
      <trkpt lat="42.84915" lon="0.0387">
        <ele>1588</ele>
        <time>2012-03-31T07:47:41Z</time>
      </trkpt>
      <trkpt lat="42.84915" lon="0.03872">
        <ele>1588</ele>
        <time>2012-03-31T07:47:45Z</time>
      </trkpt>
      <trkpt lat="42.84915" lon="0.03875">
        <ele>1589</ele>
        <time>2012-03-31T07:47:48Z</time>
      </trkpt>
      <trkpt lat="42.84915" lon="0.03878">
        <ele>1590</ele>
        <time>2012-03-31T07:47:53Z</time>
      </trkpt>
      <trkpt lat="42.84915" lon="0.0388">
        <ele>1590</ele>
        <time>2012-03-31T07:47:56Z</time>
      </trkpt>
      <trkpt lat="42.84916" lon="0.03881">
        <ele>1591</ele>
        <time>2012-03-31T07:48:06Z</time>
      </trkpt>
      <trkpt lat="42.84914" lon="0.0388">
        <ele>1591</ele>
        <time>2012-03-31T07:48:20Z</time>
      </trkpt>
      <trkpt lat="42.84913" lon="0.03878">
        <ele>1591</ele>
        <time>2012-03-31T07:48:23Z</time>
      </trkpt>
      <trkpt lat="42.84911" lon="0.03874">
        <ele>1592</ele>
        <time>2012-03-31T07:48:26Z</time>
      </trkpt>
      <trkpt lat="42.84909" lon="0.03872">
        <ele>1592</ele>
        <time>2012-03-31T07:48:29Z</time>
      </trkpt>
      <trkpt lat="42.84909" lon="0.0387">
        <ele>1594</ele>
        <time>2012-03-31T07:48:36Z</time>
      </trkpt>
      <trkpt lat="42.84908" lon="0.03869">
        <ele>1595</ele>
        <time>2012-03-31T07:48:39Z</time>
      </trkpt>
      <trkpt lat="42.84908" lon="0.0387">
        <ele>1598</ele>
        <time>2012-03-31T07:48:53Z</time>
      </trkpt>
      <trkpt lat="42.84908" lon="0.03874">
        <ele>1599</ele>
        <time>2012-03-31T07:48:57Z</time>
      </trkpt>
      <trkpt lat="42.84907" lon="0.03876">
        <ele>1599</ele>
        <time>2012-03-31T07:49:00Z</time>
      </trkpt>
      <trkpt lat="42.84907" lon="0.0388">
        <ele>1600</ele>
        <time>2012-03-31T07:49:04Z</time>
      </trkpt>
      <trkpt lat="42.84907" lon="0.03884">
        <ele>1600</ele>
        <time>2012-03-31T07:49:08Z</time>
      </trkpt>
      <trkpt lat="42.84907" lon="0.03887">
        <ele>1601</ele>
        <time>2012-03-31T07:49:12Z</time>
      </trkpt>
      <trkpt lat="42.84907" lon="0.03891">
        <ele>1601</ele>
        <time>2012-03-31T07:49:16Z</time>
      </trkpt>
      <trkpt lat="42.84906" lon="0.0389">
        <ele>1601</ele>
        <time>2012-03-31T07:49:31Z</time>
      </trkpt>
      <trkpt lat="42.84905" lon="0.03888">
        <ele>1601</ele>
        <time>2012-03-31T07:49:34Z</time>
      </trkpt>
      <trkpt lat="42.84902" lon="0.03887">
        <ele>1601</ele>
        <time>2012-03-31T07:49:37Z</time>
      </trkpt>
      <trkpt lat="42.84902" lon="0.03885">
        <ele>1601</ele>
        <time>2012-03-31T07:49:40Z</time>
      </trkpt>
      <trkpt lat="42.84902" lon="0.03884">
        <ele>1602</ele>
        <time>2012-03-31T07:49:44Z</time>
      </trkpt>
      <trkpt lat="42.84902" lon="0.03882">
        <ele>1602</ele>
        <time>2012-03-31T07:49:48Z</time>
      </trkpt>
      <trkpt lat="42.84902" lon="0.03881">
        <ele>1603</ele>
        <time>2012-03-31T07:49:51Z</time>
      </trkpt>
      <trkpt lat="42.84902" lon="0.03879">
        <ele>1603</ele>
        <time>2012-03-31T07:49:55Z</time>
      </trkpt>
      <trkpt lat="42.84901" lon="0.03877">
        <ele>1604</ele>
        <time>2012-03-31T07:49:58Z</time>
      </trkpt>
      <trkpt lat="42.84901" lon="0.03874">
        <ele>1605</ele>
        <time>2012-03-31T07:50:03Z</time>
      </trkpt>
      <trkpt lat="42.84901" lon="0.03872">
        <ele>1606</ele>
        <time>2012-03-31T07:50:06Z</time>
      </trkpt>
      <trkpt lat="42.849" lon="0.0387">
        <ele>1607</ele>
        <time>2012-03-31T07:50:10Z</time>
      </trkpt>
      <trkpt lat="42.84899" lon="0.03868">
        <ele>1607</ele>
        <time>2012-03-31T07:50:13Z</time>
      </trkpt>
      <trkpt lat="42.84898" lon="0.03865">
        <ele>1608</ele>
        <time>2012-03-31T07:50:17Z</time>
      </trkpt>
      <trkpt lat="42.84898" lon="0.03864">
        <ele>1608</ele>
        <time>2012-03-31T07:50:20Z</time>
      </trkpt>
      <trkpt lat="42.84896" lon="0.03864">
        <ele>1609</ele>
        <time>2012-03-31T07:50:31Z</time>
      </trkpt>
      <trkpt lat="42.84896" lon="0.03866">
        <ele>1609</ele>
        <time>2012-03-31T07:50:35Z</time>
      </trkpt>
      <trkpt lat="42.84896" lon="0.03867">
        <ele>1609</ele>
        <time>2012-03-31T07:50:50Z</time>
      </trkpt>
      <trkpt lat="42.84895" lon="0.03869">
        <ele>1609</ele>
        <time>2012-03-31T07:50:53Z</time>
      </trkpt>
      <trkpt lat="42.84895" lon="0.03873">
        <ele>1609</ele>
        <time>2012-03-31T07:50:58Z</time>
      </trkpt>
      <trkpt lat="42.84894" lon="0.03876">
        <ele>1609</ele>
        <time>2012-03-31T07:51:03Z</time>
      </trkpt>
      <trkpt lat="42.84893" lon="0.03879">
        <ele>1609</ele>
        <time>2012-03-31T07:51:07Z</time>
      </trkpt>
      <trkpt lat="42.84893" lon="0.03883">
        <ele>1610</ele>
        <time>2012-03-31T07:51:11Z</time>
      </trkpt>
      <trkpt lat="42.84892" lon="0.03886">
        <ele>1611</ele>
        <time>2012-03-31T07:51:15Z</time>
      </trkpt>
      <trkpt lat="42.84891" lon="0.0389">
        <ele>1612</ele>
        <time>2012-03-31T07:51:20Z</time>
      </trkpt>
      <trkpt lat="42.8489" lon="0.03893">
        <ele>1613</ele>
        <time>2012-03-31T07:51:24Z</time>
      </trkpt>
      <trkpt lat="42.8489" lon="0.03896">
        <ele>1613</ele>
        <time>2012-03-31T07:51:30Z</time>
      </trkpt>
      <trkpt lat="42.84889" lon="0.039">
        <ele>1614</ele>
        <time>2012-03-31T07:51:34Z</time>
      </trkpt>
      <trkpt lat="42.84888" lon="0.03903">
        <ele>1614</ele>
        <time>2012-03-31T07:51:38Z</time>
      </trkpt>
      <trkpt lat="42.84888" lon="0.03906">
        <ele>1614</ele>
        <time>2012-03-31T07:51:42Z</time>
      </trkpt>
      <trkpt lat="42.84888" lon="0.03909">
        <ele>1614</ele>
        <time>2012-03-31T07:51:46Z</time>
      </trkpt>
      <trkpt lat="42.84889" lon="0.03912">
        <ele>1615</ele>
        <time>2012-03-31T07:51:50Z</time>
      </trkpt>
      <trkpt lat="42.84889" lon="0.03915">
        <ele>1615</ele>
        <time>2012-03-31T07:51:54Z</time>
      </trkpt>
      <trkpt lat="42.84888" lon="0.03914">
        <ele>1616</ele>
        <time>2012-03-31T07:52:13Z</time>
      </trkpt>
      <trkpt lat="42.84887" lon="0.03911">
        <ele>1616</ele>
        <time>2012-03-31T07:52:17Z</time>
      </trkpt>
      <trkpt lat="42.84886" lon="0.03909">
        <ele>1616</ele>
        <time>2012-03-31T07:52:21Z</time>
      </trkpt>
      <trkpt lat="42.84885" lon="0.03906">
        <ele>1618</ele>
        <time>2012-03-31T07:52:26Z</time>
      </trkpt>
      <trkpt lat="42.84884" lon="0.03904">
        <ele>1619</ele>
        <time>2012-03-31T07:52:31Z</time>
      </trkpt>
      <trkpt lat="42.84884" lon="0.03903">
        <ele>1620</ele>
        <time>2012-03-31T07:52:34Z</time>
      </trkpt>
      <trkpt lat="42.84884" lon="0.039">
        <ele>1621</ele>
        <time>2012-03-31T07:52:39Z</time>
      </trkpt>
      <trkpt lat="42.84884" lon="0.03898">
        <ele>1622</ele>
        <time>2012-03-31T07:52:42Z</time>
      </trkpt>
      <trkpt lat="42.84882" lon="0.03898">
        <ele>1623</ele>
        <time>2012-03-31T07:52:45Z</time>
      </trkpt>
      <trkpt lat="42.84882" lon="0.03896">
        <ele>1623</ele>
        <time>2012-03-31T07:52:48Z</time>
      </trkpt>
      <trkpt lat="42.84882" lon="0.03895">
        <ele>1623</ele>
        <time>2012-03-31T07:52:56Z</time>
      </trkpt>
      <trkpt lat="42.84881" lon="0.03893">
        <ele>1624</ele>
        <time>2012-03-31T07:53:01Z</time>
      </trkpt>
      <trkpt lat="42.84881" lon="0.03892">
        <ele>1625</ele>
        <time>2012-03-31T07:53:04Z</time>
      </trkpt>
      <trkpt lat="42.8488" lon="0.03888">
        <ele>1626</ele>
        <time>2012-03-31T07:53:09Z</time>
      </trkpt>
      <trkpt lat="42.84879" lon="0.0389">
        <ele>1628</ele>
        <time>2012-03-31T07:53:35Z</time>
      </trkpt>
      <trkpt lat="42.84878" lon="0.03892">
        <ele>1628</ele>
        <time>2012-03-31T07:53:38Z</time>
      </trkpt>
      <trkpt lat="42.84877" lon="0.03895">
        <ele>1628</ele>
        <time>2012-03-31T07:53:42Z</time>
      </trkpt>
      <trkpt lat="42.84877" lon="0.03898">
        <ele>1628</ele>
        <time>2012-03-31T07:53:46Z</time>
      </trkpt>
      <trkpt lat="42.84876" lon="0.03901">
        <ele>1628</ele>
        <time>2012-03-31T07:53:50Z</time>
      </trkpt>
      <trkpt lat="42.84876" lon="0.03905">
        <ele>1628</ele>
        <time>2012-03-31T07:53:54Z</time>
      </trkpt>
      <trkpt lat="42.84875" lon="0.03908">
        <ele>1628</ele>
        <time>2012-03-31T07:53:58Z</time>
      </trkpt>
      <trkpt lat="42.84875" lon="0.03912">
        <ele>1628</ele>
        <time>2012-03-31T07:54:02Z</time>
      </trkpt>
      <trkpt lat="42.84875" lon="0.03915">
        <ele>1628</ele>
        <time>2012-03-31T07:54:06Z</time>
      </trkpt>
      <trkpt lat="42.84875" lon="0.03918">
        <ele>1628</ele>
        <time>2012-03-31T07:54:10Z</time>
      </trkpt>
      <trkpt lat="42.84875" lon="0.0392">
        <ele>1628</ele>
        <time>2012-03-31T07:54:13Z</time>
      </trkpt>
      <trkpt lat="42.84875" lon="0.03923">
        <ele>1629</ele>
        <time>2012-03-31T07:54:17Z</time>
      </trkpt>
      <trkpt lat="42.84874" lon="0.03927">
        <ele>1629</ele>
        <time>2012-03-31T07:54:21Z</time>
      </trkpt>
      <trkpt lat="42.84874" lon="0.03931">
        <ele>1630</ele>
        <time>2012-03-31T07:54:25Z</time>
      </trkpt>
      <trkpt lat="42.84874" lon="0.03934">
        <ele>1631</ele>
        <time>2012-03-31T07:54:29Z</time>
      </trkpt>
      <trkpt lat="42.84874" lon="0.03938">
        <ele>1631</ele>
        <time>2012-03-31T07:54:33Z</time>
      </trkpt>
      <trkpt lat="42.84874" lon="0.03941">
        <ele>1631</ele>
        <time>2012-03-31T07:54:37Z</time>
      </trkpt>
      <trkpt lat="42.84874" lon="0.03943">
        <ele>1631</ele>
        <time>2012-03-31T07:54:40Z</time>
      </trkpt>
      <trkpt lat="42.84874" lon="0.03946">
        <ele>1632</ele>
        <time>2012-03-31T07:54:44Z</time>
      </trkpt>
      <trkpt lat="42.84874" lon="0.0395">
        <ele>1632</ele>
        <time>2012-03-31T07:54:48Z</time>
      </trkpt>
      <trkpt lat="42.84874" lon="0.03953">
        <ele>1633</ele>
        <time>2012-03-31T07:54:52Z</time>
      </trkpt>
      <trkpt lat="42.84874" lon="0.03957">
        <ele>1633</ele>
        <time>2012-03-31T07:54:56Z</time>
      </trkpt>
      <trkpt lat="42.84873" lon="0.0396">
        <ele>1633</ele>
        <time>2012-03-31T07:55:00Z</time>
      </trkpt>
      <trkpt lat="42.84874" lon="0.03963">
        <ele>1634</ele>
        <time>2012-03-31T07:55:25Z</time>
      </trkpt>
      <trkpt lat="42.84873" lon="0.03965">
        <ele>1634</ele>
        <time>2012-03-31T07:55:29Z</time>
      </trkpt>
      <trkpt lat="42.84873" lon="0.03968">
        <ele>1634</ele>
        <time>2012-03-31T07:55:34Z</time>
      </trkpt>
      <trkpt lat="42.84873" lon="0.03971">
        <ele>1635</ele>
        <time>2012-03-31T07:55:38Z</time>
      </trkpt>
      <trkpt lat="42.84872" lon="0.03975">
        <ele>1635</ele>
        <time>2012-03-31T07:55:42Z</time>
      </trkpt>
      <trkpt lat="42.84872" lon="0.03979">
        <ele>1636</ele>
        <time>2012-03-31T07:55:46Z</time>
      </trkpt>
      <trkpt lat="42.84872" lon="0.03983">
        <ele>1636</ele>
        <time>2012-03-31T07:55:50Z</time>
      </trkpt>
      <trkpt lat="42.84871" lon="0.03982">
        <ele>1639</ele>
        <time>2012-03-31T07:57:16Z</time>
      </trkpt>
      <trkpt lat="42.84871" lon="0.03981">
        <ele>1640</ele>
        <time>2012-03-31T07:58:59Z</time>
      </trkpt>
      <trkpt lat="42.84869" lon="0.0398">
        <ele>1640</ele>
        <time>2012-03-31T07:59:25Z</time>
      </trkpt>
      <trkpt lat="42.8487" lon="0.03981">
        <ele>1640</ele>
        <time>2012-03-31T08:01:01Z</time>
      </trkpt>
      <trkpt lat="42.84869" lon="0.03982">
        <ele>1640</ele>
        <time>2012-03-31T08:01:12Z</time>
      </trkpt>
      <trkpt lat="42.84867" lon="0.03983">
        <ele>1640</ele>
        <time>2012-03-31T08:01:16Z</time>
      </trkpt>
      <trkpt lat="42.84866" lon="0.03985">
        <ele>1641</ele>
        <time>2012-03-31T08:01:19Z</time>
      </trkpt>
      <trkpt lat="42.84866" lon="0.03987">
        <ele>1641</ele>
        <time>2012-03-31T08:01:22Z</time>
      </trkpt>
      <trkpt lat="42.84865" lon="0.03989">
        <ele>1641</ele>
        <time>2012-03-31T08:01:25Z</time>
      </trkpt>
      <trkpt lat="42.84864" lon="0.03992">
        <ele>1641</ele>
        <time>2012-03-31T08:01:29Z</time>
      </trkpt>
      <trkpt lat="42.84863" lon="0.03995">
        <ele>1641</ele>
        <time>2012-03-31T08:01:34Z</time>
      </trkpt>
      <trkpt lat="42.84863" lon="0.03997">
        <ele>1641</ele>
        <time>2012-03-31T08:01:38Z</time>
      </trkpt>
      <trkpt lat="42.84861" lon="0.03998">
        <ele>1642</ele>
        <time>2012-03-31T08:01:43Z</time>
      </trkpt>
      <trkpt lat="42.84861" lon="0.03997">
        <ele>1643</ele>
        <time>2012-03-31T08:01:48Z</time>
      </trkpt>
      <trkpt lat="42.8486" lon="0.03995">
        <ele>1643</ele>
        <time>2012-03-31T08:01:51Z</time>
      </trkpt>
      <trkpt lat="42.84859" lon="0.03992">
        <ele>1644</ele>
        <time>2012-03-31T08:01:56Z</time>
      </trkpt>
      <trkpt lat="42.84858" lon="0.03989">
        <ele>1645</ele>
        <time>2012-03-31T08:02:01Z</time>
      </trkpt>
      <trkpt lat="42.84858" lon="0.03986">
        <ele>1647</ele>
        <time>2012-03-31T08:02:07Z</time>
      </trkpt>
      <trkpt lat="42.84859" lon="0.03985">
        <ele>1650</ele>
        <time>2012-03-31T08:02:16Z</time>
      </trkpt>
      <trkpt lat="42.84859" lon="0.03983">
        <ele>1651</ele>
        <time>2012-03-31T08:02:20Z</time>
      </trkpt>
      <trkpt lat="42.84859" lon="0.03981">
        <ele>1654</ele>
        <time>2012-03-31T08:02:26Z</time>
      </trkpt>
      <trkpt lat="42.8486" lon="0.03983">
        <ele>1654</ele>
        <time>2012-03-31T08:02:34Z</time>
      </trkpt>
      <trkpt lat="42.84859" lon="0.03984">
        <ele>1654</ele>
        <time>2012-03-31T08:02:38Z</time>
      </trkpt>
      <trkpt lat="42.84859" lon="0.03986">
        <ele>1654</ele>
        <time>2012-03-31T08:02:41Z</time>
      </trkpt>
      <trkpt lat="42.84858" lon="0.03989">
        <ele>1654</ele>
        <time>2012-03-31T08:02:45Z</time>
      </trkpt>
      <trkpt lat="42.84858" lon="0.03994">
        <ele>1654</ele>
        <time>2012-03-31T08:02:49Z</time>
      </trkpt>
      <trkpt lat="42.84857" lon="0.03998">
        <ele>1654</ele>
        <time>2012-03-31T08:02:53Z</time>
      </trkpt>
      <trkpt lat="42.84856" lon="0.04002">
        <ele>1654</ele>
        <time>2012-03-31T08:02:57Z</time>
      </trkpt>
      <trkpt lat="42.84855" lon="0.04004">
        <ele>1654</ele>
        <time>2012-03-31T08:03:01Z</time>
      </trkpt>
      <trkpt lat="42.84854" lon="0.04008">
        <ele>1654</ele>
        <time>2012-03-31T08:03:05Z</time>
      </trkpt>
      <trkpt lat="42.84853" lon="0.04011">
        <ele>1654</ele>
        <time>2012-03-31T08:03:09Z</time>
      </trkpt>
      <trkpt lat="42.84853" lon="0.04014">
        <ele>1654</ele>
        <time>2012-03-31T08:03:13Z</time>
      </trkpt>
      <trkpt lat="42.84852" lon="0.04017">
        <ele>1654</ele>
        <time>2012-03-31T08:03:17Z</time>
      </trkpt>
      <trkpt lat="42.84852" lon="0.04021">
        <ele>1654</ele>
        <time>2012-03-31T08:03:21Z</time>
      </trkpt>
      <trkpt lat="42.84852" lon="0.04023">
        <ele>1654</ele>
        <time>2012-03-31T08:03:24Z</time>
      </trkpt>
      <trkpt lat="42.84852" lon="0.04026">
        <ele>1654</ele>
        <time>2012-03-31T08:03:28Z</time>
      </trkpt>
      <trkpt lat="42.84851" lon="0.0403">
        <ele>1654</ele>
        <time>2012-03-31T08:03:32Z</time>
      </trkpt>
      <trkpt lat="42.8485" lon="0.04033">
        <ele>1654</ele>
        <time>2012-03-31T08:03:36Z</time>
      </trkpt>
      <trkpt lat="42.8485" lon="0.04036">
        <ele>1654</ele>
        <time>2012-03-31T08:03:40Z</time>
      </trkpt>
      <trkpt lat="42.84849" lon="0.04039">
        <ele>1654</ele>
        <time>2012-03-31T08:03:44Z</time>
      </trkpt>
      <trkpt lat="42.84849" lon="0.04042">
        <ele>1654</ele>
        <time>2012-03-31T08:03:48Z</time>
      </trkpt>
      <trkpt lat="42.84849" lon="0.04046">
        <ele>1654</ele>
        <time>2012-03-31T08:03:52Z</time>
      </trkpt>
      <trkpt lat="42.84849" lon="0.0405">
        <ele>1654</ele>
        <time>2012-03-31T08:03:56Z</time>
      </trkpt>
      <trkpt lat="42.8485" lon="0.04054">
        <ele>1654</ele>
        <time>2012-03-31T08:04:00Z</time>
      </trkpt>
      <trkpt lat="42.8485" lon="0.04058">
        <ele>1654</ele>
        <time>2012-03-31T08:04:04Z</time>
      </trkpt>
      <trkpt lat="42.8485" lon="0.04061">
        <ele>1654</ele>
        <time>2012-03-31T08:04:08Z</time>
      </trkpt>
      <trkpt lat="42.8485" lon="0.04064">
        <ele>1654</ele>
        <time>2012-03-31T08:04:12Z</time>
      </trkpt>
      <trkpt lat="42.84849" lon="0.04066">
        <ele>1654</ele>
        <time>2012-03-31T08:04:15Z</time>
      </trkpt>
      <trkpt lat="42.84848" lon="0.04068">
        <ele>1655</ele>
        <time>2012-03-31T08:04:18Z</time>
      </trkpt>
      <trkpt lat="42.84848" lon="0.04069">
        <ele>1655</ele>
        <time>2012-03-31T08:04:22Z</time>
      </trkpt>
      <trkpt lat="42.84848" lon="0.04072">
        <ele>1655</ele>
        <time>2012-03-31T08:04:26Z</time>
      </trkpt>
      <trkpt lat="42.84846" lon="0.04072">
        <ele>1655</ele>
        <time>2012-03-31T08:04:29Z</time>
      </trkpt>
      <trkpt lat="42.84845" lon="0.04074">
        <ele>1655</ele>
        <time>2012-03-31T08:04:40Z</time>
      </trkpt>
      <trkpt lat="42.84845" lon="0.04078">
        <ele>1655</ele>
        <time>2012-03-31T08:04:44Z</time>
      </trkpt>
      <trkpt lat="42.84844" lon="0.04081">
        <ele>1655</ele>
        <time>2012-03-31T08:04:48Z</time>
      </trkpt>
      <trkpt lat="42.84844" lon="0.04084">
        <ele>1656</ele>
        <time>2012-03-31T08:04:52Z</time>
      </trkpt>
      <trkpt lat="42.84843" lon="0.04087">
        <ele>1657</ele>
        <time>2012-03-31T08:04:56Z</time>
      </trkpt>
      <trkpt lat="42.84843" lon="0.04091">
        <ele>1658</ele>
        <time>2012-03-31T08:05:00Z</time>
      </trkpt>
      <trkpt lat="42.84842" lon="0.04093">
        <ele>1658</ele>
        <time>2012-03-31T08:05:03Z</time>
      </trkpt>
      <trkpt lat="42.84842" lon="0.04095">
        <ele>1659</ele>
        <time>2012-03-31T08:05:06Z</time>
      </trkpt>
      <trkpt lat="42.84841" lon="0.04097">
        <ele>1660</ele>
        <time>2012-03-31T08:05:09Z</time>
      </trkpt>
      <trkpt lat="42.8484" lon="0.04098">
        <ele>1660</ele>
        <time>2012-03-31T08:05:12Z</time>
      </trkpt>
      <trkpt lat="42.84839" lon="0.04101">
        <ele>1661</ele>
        <time>2012-03-31T08:05:16Z</time>
      </trkpt>
      <trkpt lat="42.84838" lon="0.04105">
        <ele>1661</ele>
        <time>2012-03-31T08:05:20Z</time>
      </trkpt>
      <trkpt lat="42.84837" lon="0.04108">
        <ele>1661</ele>
        <time>2012-03-31T08:05:24Z</time>
      </trkpt>
      <trkpt lat="42.84837" lon="0.04112">
        <ele>1661</ele>
        <time>2012-03-31T08:05:28Z</time>
      </trkpt>
      <trkpt lat="42.84837" lon="0.04114">
        <ele>1661</ele>
        <time>2012-03-31T08:05:31Z</time>
      </trkpt>
      <trkpt lat="42.84837" lon="0.04115">
        <ele>1662</ele>
        <time>2012-03-31T08:05:36Z</time>
      </trkpt>
      <trkpt lat="42.84837" lon="0.04117">
        <ele>1662</ele>
        <time>2012-03-31T08:05:39Z</time>
      </trkpt>
      <trkpt lat="42.84836" lon="0.04118">
        <ele>1662</ele>
        <time>2012-03-31T08:05:42Z</time>
      </trkpt>
      <trkpt lat="42.84836" lon="0.04122">
        <ele>1663</ele>
        <time>2012-03-31T08:05:47Z</time>
      </trkpt>
      <trkpt lat="42.84836" lon="0.04124">
        <ele>1664</ele>
        <time>2012-03-31T08:05:50Z</time>
      </trkpt>
      <trkpt lat="42.84835" lon="0.04126">
        <ele>1665</ele>
        <time>2012-03-31T08:05:53Z</time>
      </trkpt>
      <trkpt lat="42.84835" lon="0.04129">
        <ele>1665</ele>
        <time>2012-03-31T08:05:57Z</time>
      </trkpt>
      <trkpt lat="42.84835" lon="0.04132">
        <ele>1666</ele>
        <time>2012-03-31T08:06:01Z</time>
      </trkpt>
      <trkpt lat="42.84835" lon="0.04136">
        <ele>1666</ele>
        <time>2012-03-31T08:06:05Z</time>
      </trkpt>
      <trkpt lat="42.84834" lon="0.04139">
        <ele>1666</ele>
        <time>2012-03-31T08:06:09Z</time>
      </trkpt>
      <trkpt lat="42.84834" lon="0.04143">
        <ele>1666</ele>
        <time>2012-03-31T08:06:13Z</time>
      </trkpt>
      <trkpt lat="42.84834" lon="0.04146">
        <ele>1666</ele>
        <time>2012-03-31T08:06:18Z</time>
      </trkpt>
      <trkpt lat="42.84833" lon="0.0415">
        <ele>1666</ele>
        <time>2012-03-31T08:06:22Z</time>
      </trkpt>
      <trkpt lat="42.84833" lon="0.04153">
        <ele>1666</ele>
        <time>2012-03-31T08:06:26Z</time>
      </trkpt>
      <trkpt lat="42.84833" lon="0.04156">
        <ele>1667</ele>
        <time>2012-03-31T08:06:30Z</time>
      </trkpt>
      <trkpt lat="42.84832" lon="0.0416">
        <ele>1667</ele>
        <time>2012-03-31T08:06:34Z</time>
      </trkpt>
      <trkpt lat="42.84832" lon="0.04163">
        <ele>1668</ele>
        <time>2012-03-31T08:06:38Z</time>
      </trkpt>
      <trkpt lat="42.84832" lon="0.04166">
        <ele>1669</ele>
        <time>2012-03-31T08:06:42Z</time>
      </trkpt>
      <trkpt lat="42.84831" lon="0.04169">
        <ele>1669</ele>
        <time>2012-03-31T08:06:46Z</time>
      </trkpt>
      <trkpt lat="42.84831" lon="0.04172">
        <ele>1669</ele>
        <time>2012-03-31T08:06:50Z</time>
      </trkpt>
      <trkpt lat="42.8483" lon="0.04176">
        <ele>1670</ele>
        <time>2012-03-31T08:06:55Z</time>
      </trkpt>
      <trkpt lat="42.8483" lon="0.04177">
        <ele>1670</ele>
        <time>2012-03-31T08:06:58Z</time>
      </trkpt>
      <trkpt lat="42.84829" lon="0.0418">
        <ele>1670</ele>
        <time>2012-03-31T08:07:01Z</time>
      </trkpt>
      <trkpt lat="42.84829" lon="0.04183">
        <ele>1670</ele>
        <time>2012-03-31T08:07:06Z</time>
      </trkpt>
      <trkpt lat="42.84827" lon="0.04186">
        <ele>1671</ele>
        <time>2012-03-31T08:07:11Z</time>
      </trkpt>
      <trkpt lat="42.84827" lon="0.04189">
        <ele>1671</ele>
        <time>2012-03-31T08:07:14Z</time>
      </trkpt>
      <trkpt lat="42.84826" lon="0.04191">
        <ele>1672</ele>
        <time>2012-03-31T08:07:17Z</time>
      </trkpt>
      <trkpt lat="42.84826" lon="0.04192">
        <ele>1672</ele>
        <time>2012-03-31T08:07:20Z</time>
      </trkpt>
      <trkpt lat="42.84825" lon="0.04194">
        <ele>1672</ele>
        <time>2012-03-31T08:07:23Z</time>
      </trkpt>
      <trkpt lat="42.84824" lon="0.04197">
        <ele>1672</ele>
        <time>2012-03-31T08:07:26Z</time>
      </trkpt>
      <trkpt lat="42.84824" lon="0.042">
        <ele>1673</ele>
        <time>2012-03-31T08:07:31Z</time>
      </trkpt>
      <trkpt lat="42.84823" lon="0.04204">
        <ele>1673</ele>
        <time>2012-03-31T08:07:36Z</time>
      </trkpt>
      <trkpt lat="42.84822" lon="0.04207">
        <ele>1673</ele>
        <time>2012-03-31T08:07:41Z</time>
      </trkpt>
      <trkpt lat="42.84821" lon="0.04209">
        <ele>1673</ele>
        <time>2012-03-31T08:07:44Z</time>
      </trkpt>
      <trkpt lat="42.84821" lon="0.04211">
        <ele>1674</ele>
        <time>2012-03-31T08:07:48Z</time>
      </trkpt>
      <trkpt lat="42.84821" lon="0.04212">
        <ele>1674</ele>
        <time>2012-03-31T08:07:51Z</time>
      </trkpt>
      <trkpt lat="42.8482" lon="0.04216">
        <ele>1675</ele>
        <time>2012-03-31T08:07:55Z</time>
      </trkpt>
      <trkpt lat="42.8482" lon="0.04217">
        <ele>1675</ele>
        <time>2012-03-31T08:07:58Z</time>
      </trkpt>
      <trkpt lat="42.84819" lon="0.04219">
        <ele>1675</ele>
        <time>2012-03-31T08:08:01Z</time>
      </trkpt>
      <trkpt lat="42.84818" lon="0.04222">
        <ele>1676</ele>
        <time>2012-03-31T08:08:06Z</time>
      </trkpt>
      <trkpt lat="42.84818" lon="0.04225">
        <ele>1676</ele>
        <time>2012-03-31T08:08:09Z</time>
      </trkpt>
      <trkpt lat="42.84818" lon="0.04226">
        <ele>1677</ele>
        <time>2012-03-31T08:08:12Z</time>
      </trkpt>
      <trkpt lat="42.84817" lon="0.04228">
        <ele>1677</ele>
        <time>2012-03-31T08:08:15Z</time>
      </trkpt>
      <trkpt lat="42.84817" lon="0.04229">
        <ele>1678</ele>
        <time>2012-03-31T08:08:18Z</time>
      </trkpt>
      <trkpt lat="42.84817" lon="0.04231">
        <ele>1679</ele>
        <time>2012-03-31T08:08:21Z</time>
      </trkpt>
      <trkpt lat="42.84816" lon="0.04233">
        <ele>1679</ele>
        <time>2012-03-31T08:08:24Z</time>
      </trkpt>
      <trkpt lat="42.84816" lon="0.04235">
        <ele>1680</ele>
        <time>2012-03-31T08:08:27Z</time>
      </trkpt>
      <trkpt lat="42.84816" lon="0.04236">
        <ele>1681</ele>
        <time>2012-03-31T08:08:30Z</time>
      </trkpt>
      <trkpt lat="42.84816" lon="0.04238">
        <ele>1681</ele>
        <time>2012-03-31T08:08:33Z</time>
      </trkpt>
      <trkpt lat="42.84816" lon="0.04239">
        <ele>1681</ele>
        <time>2012-03-31T08:08:36Z</time>
      </trkpt>
      <trkpt lat="42.84816" lon="0.04241">
        <ele>1681</ele>
        <time>2012-03-31T08:08:39Z</time>
      </trkpt>
      <trkpt lat="42.84816" lon="0.04242">
        <ele>1682</ele>
        <time>2012-03-31T08:08:42Z</time>
      </trkpt>
      <trkpt lat="42.84816" lon="0.04244">
        <ele>1682</ele>
        <time>2012-03-31T08:08:45Z</time>
      </trkpt>
      <trkpt lat="42.84816" lon="0.04245">
        <ele>1682</ele>
        <time>2012-03-31T08:08:48Z</time>
      </trkpt>
      <trkpt lat="42.84816" lon="0.04247">
        <ele>1683</ele>
        <time>2012-03-31T08:08:51Z</time>
      </trkpt>
      <trkpt lat="42.84815" lon="0.04249">
        <ele>1684</ele>
        <time>2012-03-31T08:08:55Z</time>
      </trkpt>
      <trkpt lat="42.84815" lon="0.0425">
        <ele>1684</ele>
        <time>2012-03-31T08:09:00Z</time>
      </trkpt>
      <trkpt lat="42.84815" lon="0.04252">
        <ele>1685</ele>
        <time>2012-03-31T08:09:04Z</time>
      </trkpt>
      <trkpt lat="42.84815" lon="0.04254">
        <ele>1685</ele>
        <time>2012-03-31T08:09:07Z</time>
      </trkpt>
      <trkpt lat="42.84816" lon="0.04256">
        <ele>1686</ele>
        <time>2012-03-31T08:09:10Z</time>
      </trkpt>
      <trkpt lat="42.84816" lon="0.04259">
        <ele>1687</ele>
        <time>2012-03-31T08:09:14Z</time>
      </trkpt>
      <trkpt lat="42.84816" lon="0.04261">
        <ele>1687</ele>
        <time>2012-03-31T08:09:17Z</time>
      </trkpt>
      <trkpt lat="42.84817" lon="0.04262">
        <ele>1687</ele>
        <time>2012-03-31T08:09:20Z</time>
      </trkpt>
      <trkpt lat="42.84817" lon="0.04264">
        <ele>1688</ele>
        <time>2012-03-31T08:09:23Z</time>
      </trkpt>
      <trkpt lat="42.84817" lon="0.04267">
        <ele>1688</ele>
        <time>2012-03-31T08:09:28Z</time>
      </trkpt>
      <trkpt lat="42.84817" lon="0.04269">
        <ele>1688</ele>
        <time>2012-03-31T08:09:31Z</time>
      </trkpt>
      <trkpt lat="42.84817" lon="0.04271">
        <ele>1689</ele>
        <time>2012-03-31T08:09:34Z</time>
      </trkpt>
      <trkpt lat="42.84817" lon="0.04272">
        <ele>1689</ele>
        <time>2012-03-31T08:09:37Z</time>
      </trkpt>
      <trkpt lat="42.84817" lon="0.04274">
        <ele>1689</ele>
        <time>2012-03-31T08:09:40Z</time>
      </trkpt>
      <trkpt lat="42.84817" lon="0.04277">
        <ele>1690</ele>
        <time>2012-03-31T08:09:44Z</time>
      </trkpt>
      <trkpt lat="42.84818" lon="0.04281">
        <ele>1690</ele>
        <time>2012-03-31T08:09:49Z</time>
      </trkpt>
      <trkpt lat="42.84818" lon="0.04285">
        <ele>1690</ele>
        <time>2012-03-31T08:09:54Z</time>
      </trkpt>
      <trkpt lat="42.84818" lon="0.04287">
        <ele>1690</ele>
        <time>2012-03-31T08:09:57Z</time>
      </trkpt>
      <trkpt lat="42.84818" lon="0.04289">
        <ele>1690</ele>
        <time>2012-03-31T08:10:00Z</time>
      </trkpt>
      <trkpt lat="42.84818" lon="0.04291">
        <ele>1690</ele>
        <time>2012-03-31T08:10:03Z</time>
      </trkpt>
      <trkpt lat="42.84818" lon="0.04292">
        <ele>1691</ele>
        <time>2012-03-31T08:10:06Z</time>
      </trkpt>
      <trkpt lat="42.84818" lon="0.04295">
        <ele>1692</ele>
        <time>2012-03-31T08:10:11Z</time>
      </trkpt>
      <trkpt lat="42.84817" lon="0.04296">
        <ele>1692</ele>
        <time>2012-03-31T08:10:16Z</time>
      </trkpt>
      <trkpt lat="42.84814" lon="0.04296">
        <ele>1693</ele>
        <time>2012-03-31T08:10:20Z</time>
      </trkpt>
      <trkpt lat="42.84813" lon="0.04295">
        <ele>1694</ele>
        <time>2012-03-31T08:10:23Z</time>
      </trkpt>
      <trkpt lat="42.84811" lon="0.04295">
        <ele>1695</ele>
        <time>2012-03-31T08:10:26Z</time>
      </trkpt>
      <trkpt lat="42.8481" lon="0.04295">
        <ele>1695</ele>
        <time>2012-03-31T08:10:29Z</time>
      </trkpt>
      <trkpt lat="42.84809" lon="0.04295">
        <ele>1696</ele>
        <time>2012-03-31T08:10:33Z</time>
      </trkpt>
      <trkpt lat="42.84808" lon="0.04297">
        <ele>1697</ele>
        <time>2012-03-31T08:10:36Z</time>
      </trkpt>
      <trkpt lat="42.84808" lon="0.04301">
        <ele>1698</ele>
        <time>2012-03-31T08:10:40Z</time>
      </trkpt>
      <trkpt lat="42.84807" lon="0.04302">
        <ele>1698</ele>
        <time>2012-03-31T08:10:43Z</time>
      </trkpt>
      <trkpt lat="42.84808" lon="0.04305">
        <ele>1698</ele>
        <time>2012-03-31T08:10:47Z</time>
      </trkpt>
      <trkpt lat="42.84808" lon="0.04307">
        <ele>1698</ele>
        <time>2012-03-31T08:10:50Z</time>
      </trkpt>
      <trkpt lat="42.84807" lon="0.04309">
        <ele>1699</ele>
        <time>2012-03-31T08:10:53Z</time>
      </trkpt>
      <trkpt lat="42.84808" lon="0.04311">
        <ele>1699</ele>
        <time>2012-03-31T08:10:56Z</time>
      </trkpt>
      <trkpt lat="42.84807" lon="0.04312">
        <ele>1699</ele>
        <time>2012-03-31T08:11:00Z</time>
      </trkpt>
      <trkpt lat="42.84806" lon="0.04313">
        <ele>1699</ele>
        <time>2012-03-31T08:11:03Z</time>
      </trkpt>
      <trkpt lat="42.84804" lon="0.04312">
        <ele>1700</ele>
        <time>2012-03-31T08:11:06Z</time>
      </trkpt>
      <trkpt lat="42.84803" lon="0.04312">
        <ele>1701</ele>
        <time>2012-03-31T08:11:10Z</time>
      </trkpt>
      <trkpt lat="42.84802" lon="0.04311">
        <ele>1701</ele>
        <time>2012-03-31T08:11:13Z</time>
      </trkpt>
      <trkpt lat="42.848" lon="0.04311">
        <ele>1702</ele>
        <time>2012-03-31T08:11:17Z</time>
      </trkpt>
      <trkpt lat="42.848" lon="0.04313">
        <ele>1703</ele>
        <time>2012-03-31T08:11:22Z</time>
      </trkpt>
      <trkpt lat="42.84799" lon="0.04315">
        <ele>1703</ele>
        <time>2012-03-31T08:11:25Z</time>
      </trkpt>
      <trkpt lat="42.84798" lon="0.04318">
        <ele>1704</ele>
        <time>2012-03-31T08:11:29Z</time>
      </trkpt>
      <trkpt lat="42.84798" lon="0.0432">
        <ele>1705</ele>
        <time>2012-03-31T08:11:32Z</time>
      </trkpt>
      <trkpt lat="42.84797" lon="0.04321">
        <ele>1705</ele>
        <time>2012-03-31T08:11:35Z</time>
      </trkpt>
      <trkpt lat="42.84797" lon="0.04323">
        <ele>1706</ele>
        <time>2012-03-31T08:11:38Z</time>
      </trkpt>
      <trkpt lat="42.84796" lon="0.04324">
        <ele>1706</ele>
        <time>2012-03-31T08:11:48Z</time>
      </trkpt>
      <trkpt lat="42.84795" lon="0.04324">
        <ele>1707</ele>
        <time>2012-03-31T08:11:51Z</time>
      </trkpt>
      <trkpt lat="42.84793" lon="0.04324">
        <ele>1708</ele>
        <time>2012-03-31T08:11:55Z</time>
      </trkpt>
      <trkpt lat="42.84792" lon="0.04323">
        <ele>1709</ele>
        <time>2012-03-31T08:11:59Z</time>
      </trkpt>
      <trkpt lat="42.84791" lon="0.04324">
        <ele>1710</ele>
        <time>2012-03-31T08:12:04Z</time>
      </trkpt>
      <trkpt lat="42.84791" lon="0.04327">
        <ele>1710</ele>
        <time>2012-03-31T08:12:08Z</time>
      </trkpt>
      <trkpt lat="42.84791" lon="0.04329">
        <ele>1711</ele>
        <time>2012-03-31T08:12:11Z</time>
      </trkpt>
      <trkpt lat="42.84791" lon="0.04332">
        <ele>1711</ele>
        <time>2012-03-31T08:12:15Z</time>
      </trkpt>
      <trkpt lat="42.8479" lon="0.04335">
        <ele>1711</ele>
        <time>2012-03-31T08:12:19Z</time>
      </trkpt>
      <trkpt lat="42.8479" lon="0.04337">
        <ele>1711</ele>
        <time>2012-03-31T08:12:22Z</time>
      </trkpt>
      <trkpt lat="42.8479" lon="0.04338">
        <ele>1711</ele>
        <time>2012-03-31T08:12:25Z</time>
      </trkpt>
      <trkpt lat="42.84789" lon="0.04339">
        <ele>1711</ele>
        <time>2012-03-31T08:12:35Z</time>
      </trkpt>
      <trkpt lat="42.84787" lon="0.04338">
        <ele>1712</ele>
        <time>2012-03-31T08:12:40Z</time>
      </trkpt>
      <trkpt lat="42.84786" lon="0.04337">
        <ele>1713</ele>
        <time>2012-03-31T08:12:44Z</time>
      </trkpt>
      <trkpt lat="42.84785" lon="0.04338">
        <ele>1718</ele>
        <time>2012-03-31T08:13:00Z</time>
      </trkpt>
      <trkpt lat="42.84784" lon="0.04341">
        <ele>1719</ele>
        <time>2012-03-31T08:13:04Z</time>
      </trkpt>
      <trkpt lat="42.84784" lon="0.04344">
        <ele>1720</ele>
        <time>2012-03-31T08:13:08Z</time>
      </trkpt>
      <trkpt lat="42.84784" lon="0.04346">
        <ele>1720</ele>
        <time>2012-03-31T08:13:11Z</time>
      </trkpt>
      <trkpt lat="42.84784" lon="0.04348">
        <ele>1721</ele>
        <time>2012-03-31T08:13:14Z</time>
      </trkpt>
      <trkpt lat="42.84784" lon="0.0435">
        <ele>1721</ele>
        <time>2012-03-31T08:13:17Z</time>
      </trkpt>
      <trkpt lat="42.84784" lon="0.04352">
        <ele>1721</ele>
        <time>2012-03-31T08:13:20Z</time>
      </trkpt>
      <trkpt lat="42.84784" lon="0.04354">
        <ele>1721</ele>
        <time>2012-03-31T08:13:23Z</time>
      </trkpt>
      <trkpt lat="42.84783" lon="0.04355">
        <ele>1721</ele>
        <time>2012-03-31T08:13:27Z</time>
      </trkpt>
      <trkpt lat="42.84782" lon="0.04356">
        <ele>1721</ele>
        <time>2012-03-31T08:13:30Z</time>
      </trkpt>
      <trkpt lat="42.8478" lon="0.04357">
        <ele>1721</ele>
        <time>2012-03-31T08:13:33Z</time>
      </trkpt>
      <trkpt lat="42.8478" lon="0.04358">
        <ele>1723</ele>
        <time>2012-03-31T08:13:43Z</time>
      </trkpt>
      <trkpt lat="42.8478" lon="0.04361">
        <ele>1723</ele>
        <time>2012-03-31T08:13:46Z</time>
      </trkpt>
      <trkpt lat="42.8478" lon="0.04362">
        <ele>1723</ele>
        <time>2012-03-31T08:13:52Z</time>
      </trkpt>
      <trkpt lat="42.84779" lon="0.04363">
        <ele>1723</ele>
        <time>2012-03-31T08:13:58Z</time>
      </trkpt>
      <trkpt lat="42.8478" lon="0.04363">
        <ele>1723</ele>
        <time>2012-03-31T08:14:09Z</time>
      </trkpt>
      <trkpt lat="42.84779" lon="0.04364">
        <ele>1723</ele>
        <time>2012-03-31T08:14:14Z</time>
      </trkpt>
      <trkpt lat="42.84777" lon="0.04364">
        <ele>1723</ele>
        <time>2012-03-31T08:14:17Z</time>
      </trkpt>
      <trkpt lat="42.84777" lon="0.04366">
        <ele>1723</ele>
        <time>2012-03-31T08:14:21Z</time>
      </trkpt>
      <trkpt lat="42.84776" lon="0.04368">
        <ele>1724</ele>
        <time>2012-03-31T08:14:25Z</time>
      </trkpt>
      <trkpt lat="42.84776" lon="0.04372">
        <ele>1724</ele>
        <time>2012-03-31T08:14:30Z</time>
      </trkpt>
      <trkpt lat="42.84774" lon="0.04371">
        <ele>1724</ele>
        <time>2012-03-31T08:14:37Z</time>
      </trkpt>
      <trkpt lat="42.84773" lon="0.0437">
        <ele>1724</ele>
        <time>2012-03-31T08:14:40Z</time>
      </trkpt>
      <trkpt lat="42.84773" lon="0.04372">
        <ele>1724</ele>
        <time>2012-03-31T08:14:43Z</time>
      </trkpt>
      <trkpt lat="42.84774" lon="0.04374">
        <ele>1724</ele>
        <time>2012-03-31T08:14:46Z</time>
      </trkpt>
      <trkpt lat="42.84774" lon="0.04375">
        <ele>1725</ele>
        <time>2012-03-31T08:14:49Z</time>
      </trkpt>
      <trkpt lat="42.84774" lon="0.04377">
        <ele>1725</ele>
        <time>2012-03-31T08:14:52Z</time>
      </trkpt>
      <trkpt lat="42.84772" lon="0.04377">
        <ele>1728</ele>
        <time>2012-03-31T08:15:16Z</time>
      </trkpt>
      <trkpt lat="42.84771" lon="0.04377">
        <ele>1728</ele>
        <time>2012-03-31T08:15:19Z</time>
      </trkpt>
      <trkpt lat="42.84769" lon="0.04376">
        <ele>1728</ele>
        <time>2012-03-31T08:15:22Z</time>
      </trkpt>
      <trkpt lat="42.84768" lon="0.04375">
        <ele>1729</ele>
        <time>2012-03-31T08:15:25Z</time>
      </trkpt>
      <trkpt lat="42.84766" lon="0.04375">
        <ele>1729</ele>
        <time>2012-03-31T08:15:28Z</time>
      </trkpt>
      <trkpt lat="42.84766" lon="0.04377">
        <ele>1730</ele>
        <time>2012-03-31T08:15:31Z</time>
      </trkpt>
      <trkpt lat="42.84766" lon="0.04381">
        <ele>1731</ele>
        <time>2012-03-31T08:15:35Z</time>
      </trkpt>
      <trkpt lat="42.84767" lon="0.04384">
        <ele>1732</ele>
        <time>2012-03-31T08:15:41Z</time>
      </trkpt>
      <trkpt lat="42.84766" lon="0.04384">
        <ele>1732</ele>
        <time>2012-03-31T08:15:48Z</time>
      </trkpt>
      <trkpt lat="42.84763" lon="0.04383">
        <ele>1733</ele>
        <time>2012-03-31T08:15:52Z</time>
      </trkpt>
      <trkpt lat="42.84761" lon="0.04383">
        <ele>1733</ele>
        <time>2012-03-31T08:15:55Z</time>
      </trkpt>
      <trkpt lat="42.8476" lon="0.04382">
        <ele>1735</ele>
        <time>2012-03-31T08:16:10Z</time>
      </trkpt>
      <trkpt lat="42.84759" lon="0.04379">
        <ele>1735</ele>
        <time>2012-03-31T08:16:14Z</time>
      </trkpt>
      <trkpt lat="42.84758" lon="0.04377">
        <ele>1737</ele>
        <time>2012-03-31T08:16:18Z</time>
      </trkpt>
      <trkpt lat="42.84758" lon="0.04375">
        <ele>1738</ele>
        <time>2012-03-31T08:16:21Z</time>
      </trkpt>
      <trkpt lat="42.84757" lon="0.04374">
        <ele>1739</ele>
        <time>2012-03-31T08:16:24Z</time>
      </trkpt>
      <trkpt lat="42.84756" lon="0.0437">
        <ele>1740</ele>
        <time>2012-03-31T08:16:28Z</time>
      </trkpt>
      <trkpt lat="42.84754" lon="0.04366">
        <ele>1741</ele>
        <time>2012-03-31T08:16:33Z</time>
      </trkpt>
      <trkpt lat="42.84753" lon="0.04367">
        <ele>1743</ele>
        <time>2012-03-31T08:16:50Z</time>
      </trkpt>
      <trkpt lat="42.84752" lon="0.04365">
        <ele>1743</ele>
        <time>2012-03-31T08:16:53Z</time>
      </trkpt>
      <trkpt lat="42.8475" lon="0.04362">
        <ele>1743</ele>
        <time>2012-03-31T08:16:59Z</time>
      </trkpt>
      <trkpt lat="42.84749" lon="0.0436">
        <ele>1743</ele>
        <time>2012-03-31T08:17:02Z</time>
      </trkpt>
      <trkpt lat="42.84748" lon="0.04357">
        <ele>1744</ele>
        <time>2012-03-31T08:17:06Z</time>
      </trkpt>
      <trkpt lat="42.84746" lon="0.04354">
        <ele>1744</ele>
        <time>2012-03-31T08:17:10Z</time>
      </trkpt>
      <trkpt lat="42.84743" lon="0.04353">
        <ele>1745</ele>
        <time>2012-03-31T08:17:14Z</time>
      </trkpt>
      <trkpt lat="42.84742" lon="0.04352">
        <ele>1745</ele>
        <time>2012-03-31T08:17:17Z</time>
      </trkpt>
      <trkpt lat="42.8474" lon="0.04351">
        <ele>1745</ele>
        <time>2012-03-31T08:17:20Z</time>
      </trkpt>
      <trkpt lat="42.84739" lon="0.04349">
        <ele>1746</ele>
        <time>2012-03-31T08:17:23Z</time>
      </trkpt>
      <trkpt lat="42.84737" lon="0.04345">
        <ele>1748</ele>
        <time>2012-03-31T08:17:28Z</time>
      </trkpt>
      <trkpt lat="42.84735" lon="0.04347">
        <ele>1749</ele>
        <time>2012-03-31T08:17:32Z</time>
      </trkpt>
      <trkpt lat="42.84735" lon="0.04352">
        <ele>1750</ele>
        <time>2012-03-31T08:17:36Z</time>
      </trkpt>
      <trkpt lat="42.84735" lon="0.04355">
        <ele>1750</ele>
        <time>2012-03-31T08:17:40Z</time>
      </trkpt>
      <trkpt lat="42.84734" lon="0.04359">
        <ele>1750</ele>
        <time>2012-03-31T08:17:44Z</time>
      </trkpt>
      <trkpt lat="42.84733" lon="0.04363">
        <ele>1750</ele>
        <time>2012-03-31T08:17:48Z</time>
      </trkpt>
      <trkpt lat="42.84732" lon="0.04367">
        <ele>1750</ele>
        <time>2012-03-31T08:17:52Z</time>
      </trkpt>
      <trkpt lat="42.84733" lon="0.04371">
        <ele>1750</ele>
        <time>2012-03-31T08:17:56Z</time>
      </trkpt>
      <trkpt lat="42.84732" lon="0.04375">
        <ele>1750</ele>
        <time>2012-03-31T08:18:00Z</time>
      </trkpt>
      <trkpt lat="42.84732" lon="0.04378">
        <ele>1750</ele>
        <time>2012-03-31T08:18:04Z</time>
      </trkpt>
      <trkpt lat="42.84732" lon="0.04381">
        <ele>1750</ele>
        <time>2012-03-31T08:18:08Z</time>
      </trkpt>
      <trkpt lat="42.84732" lon="0.04384">
        <ele>1750</ele>
        <time>2012-03-31T08:18:12Z</time>
      </trkpt>
      <trkpt lat="42.84732" lon="0.04388">
        <ele>1750</ele>
        <time>2012-03-31T08:18:16Z</time>
      </trkpt>
      <trkpt lat="42.84731" lon="0.04391">
        <ele>1750</ele>
        <time>2012-03-31T08:18:21Z</time>
      </trkpt>
      <trkpt lat="42.8473" lon="0.04392">
        <ele>1750</ele>
        <time>2012-03-31T08:18:47Z</time>
      </trkpt>
      <trkpt lat="42.84729" lon="0.04395">
        <ele>1750</ele>
        <time>2012-03-31T08:18:51Z</time>
      </trkpt>
      <trkpt lat="42.84729" lon="0.04397">
        <ele>1751</ele>
        <time>2012-03-31T08:18:54Z</time>
      </trkpt>
      <trkpt lat="42.84729" lon="0.04401">
        <ele>1751</ele>
        <time>2012-03-31T08:18:58Z</time>
      </trkpt>
      <trkpt lat="42.84728" lon="0.04405">
        <ele>1752</ele>
        <time>2012-03-31T08:19:02Z</time>
      </trkpt>
      <trkpt lat="42.84728" lon="0.04408">
        <ele>1752</ele>
        <time>2012-03-31T08:19:06Z</time>
      </trkpt>
      <trkpt lat="42.84727" lon="0.04412">
        <ele>1753</ele>
        <time>2012-03-31T08:19:10Z</time>
      </trkpt>
      <trkpt lat="42.84727" lon="0.04416">
        <ele>1754</ele>
        <time>2012-03-31T08:19:14Z</time>
      </trkpt>
      <trkpt lat="42.84727" lon="0.04419">
        <ele>1755</ele>
        <time>2012-03-31T08:19:18Z</time>
      </trkpt>
      <trkpt lat="42.84727" lon="0.04423">
        <ele>1756</ele>
        <time>2012-03-31T08:19:22Z</time>
      </trkpt>
      <trkpt lat="42.84725" lon="0.04425">
        <ele>1757</ele>
        <time>2012-03-31T08:19:26Z</time>
      </trkpt>
      <trkpt lat="42.84723" lon="0.04425">
        <ele>1757</ele>
        <time>2012-03-31T08:19:30Z</time>
      </trkpt>
      <trkpt lat="42.8472" lon="0.04426">
        <ele>1760</ele>
        <time>2012-03-31T08:19:35Z</time>
      </trkpt>
      <trkpt lat="42.84717" lon="0.04426">
        <ele>1761</ele>
        <time>2012-03-31T08:19:39Z</time>
      </trkpt>
      <trkpt lat="42.84716" lon="0.04427">
        <ele>1761</ele>
        <time>2012-03-31T08:19:42Z</time>
      </trkpt>
      <trkpt lat="42.84713" lon="0.04428">
        <ele>1762</ele>
        <time>2012-03-31T08:19:47Z</time>
      </trkpt>
      <trkpt lat="42.8471" lon="0.04428">
        <ele>1763</ele>
        <time>2012-03-31T08:19:51Z</time>
      </trkpt>
      <trkpt lat="42.84708" lon="0.04432">
        <ele>1763</ele>
        <time>2012-03-31T08:19:55Z</time>
      </trkpt>
      <trkpt lat="42.84709" lon="0.04436">
        <ele>1764</ele>
        <time>2012-03-31T08:20:00Z</time>
      </trkpt>
      <trkpt lat="42.8471" lon="0.0444">
        <ele>1764</ele>
        <time>2012-03-31T08:20:05Z</time>
      </trkpt>
      <trkpt lat="42.84708" lon="0.04443">
        <ele>1764</ele>
        <time>2012-03-31T08:20:11Z</time>
      </trkpt>
      <trkpt lat="42.84706" lon="0.04444">
        <ele>1765</ele>
        <time>2012-03-31T08:20:15Z</time>
      </trkpt>
      <trkpt lat="42.84703" lon="0.04446">
        <ele>1766</ele>
        <time>2012-03-31T08:20:20Z</time>
      </trkpt>
      <trkpt lat="42.84704" lon="0.04449">
        <ele>1767</ele>
        <time>2012-03-31T08:20:24Z</time>
      </trkpt>
      <trkpt lat="42.84703" lon="0.04453">
        <ele>1767</ele>
        <time>2012-03-31T08:20:28Z</time>
      </trkpt>
      <trkpt lat="42.84702" lon="0.04456">
        <ele>1768</ele>
        <time>2012-03-31T08:20:33Z</time>
      </trkpt>
      <trkpt lat="42.84701" lon="0.04456">
        <ele>1768</ele>
        <time>2012-03-31T08:20:36Z</time>
      </trkpt>
      <trkpt lat="42.847" lon="0.04457">
        <ele>1772</ele>
        <time>2012-03-31T08:21:22Z</time>
      </trkpt>
      <trkpt lat="42.84697" lon="0.04458">
        <ele>1772</ele>
        <time>2012-03-31T08:21:26Z</time>
      </trkpt>
      <trkpt lat="42.84694" lon="0.04461">
        <ele>1772</ele>
        <time>2012-03-31T08:21:31Z</time>
      </trkpt>
      <trkpt lat="42.84692" lon="0.04462">
        <ele>1773</ele>
        <time>2012-03-31T08:21:34Z</time>
      </trkpt>
      <trkpt lat="42.84691" lon="0.04463">
        <ele>1774</ele>
        <time>2012-03-31T08:21:37Z</time>
      </trkpt>
      <trkpt lat="42.84689" lon="0.04463">
        <ele>1775</ele>
        <time>2012-03-31T08:21:40Z</time>
      </trkpt>
      <trkpt lat="42.84687" lon="0.04462">
        <ele>1776</ele>
        <time>2012-03-31T08:21:43Z</time>
      </trkpt>
      <trkpt lat="42.84685" lon="0.04463">
        <ele>1778</ele>
        <time>2012-03-31T08:21:47Z</time>
      </trkpt>
      <trkpt lat="42.84684" lon="0.04467">
        <ele>1779</ele>
        <time>2012-03-31T08:21:51Z</time>
      </trkpt>
      <trkpt lat="42.84683" lon="0.0447">
        <ele>1780</ele>
        <time>2012-03-31T08:21:55Z</time>
      </trkpt>
      <trkpt lat="42.84683" lon="0.04473">
        <ele>1780</ele>
        <time>2012-03-31T08:21:59Z</time>
      </trkpt>
      <trkpt lat="42.84682" lon="0.04475">
        <ele>1780</ele>
        <time>2012-03-31T08:22:02Z</time>
      </trkpt>
      <trkpt lat="42.84682" lon="0.04479">
        <ele>1781</ele>
        <time>2012-03-31T08:22:07Z</time>
      </trkpt>
      <trkpt lat="42.84681" lon="0.04482">
        <ele>1782</ele>
        <time>2012-03-31T08:22:12Z</time>
      </trkpt>
      <trkpt lat="42.84681" lon="0.04485">
        <ele>1782</ele>
        <time>2012-03-31T08:22:16Z</time>
      </trkpt>
      <trkpt lat="42.8468" lon="0.04487">
        <ele>1782</ele>
        <time>2012-03-31T08:22:19Z</time>
      </trkpt>
      <trkpt lat="42.84679" lon="0.0449">
        <ele>1782</ele>
        <time>2012-03-31T08:22:23Z</time>
      </trkpt>
      <trkpt lat="42.84678" lon="0.04492">
        <ele>1782</ele>
        <time>2012-03-31T08:22:26Z</time>
      </trkpt>
      <trkpt lat="42.84676" lon="0.04495">
        <ele>1782</ele>
        <time>2012-03-31T08:22:31Z</time>
      </trkpt>
      <trkpt lat="42.84677" lon="0.04497">
        <ele>1782</ele>
        <time>2012-03-31T08:22:53Z</time>
      </trkpt>
      <trkpt lat="42.84675" lon="0.04499">
        <ele>1782</ele>
        <time>2012-03-31T08:22:57Z</time>
      </trkpt>
      <trkpt lat="42.84673" lon="0.04503">
        <ele>1782</ele>
        <time>2012-03-31T08:23:01Z</time>
      </trkpt>
      <trkpt lat="42.84672" lon="0.04506">
        <ele>1782</ele>
        <time>2012-03-31T08:23:05Z</time>
      </trkpt>
      <trkpt lat="42.84671" lon="0.04509">
        <ele>1782</ele>
        <time>2012-03-31T08:23:09Z</time>
      </trkpt>
      <trkpt lat="42.8467" lon="0.04513">
        <ele>1782</ele>
        <time>2012-03-31T08:23:13Z</time>
      </trkpt>
      <trkpt lat="42.84669" lon="0.04516">
        <ele>1782</ele>
        <time>2012-03-31T08:23:17Z</time>
      </trkpt>
      <trkpt lat="42.84668" lon="0.04519">
        <ele>1782</ele>
        <time>2012-03-31T08:23:21Z</time>
      </trkpt>
      <trkpt lat="42.84667" lon="0.04522">
        <ele>1782</ele>
        <time>2012-03-31T08:23:25Z</time>
      </trkpt>
      <trkpt lat="42.84666" lon="0.04526">
        <ele>1783</ele>
        <time>2012-03-31T08:23:29Z</time>
      </trkpt>
      <trkpt lat="42.84665" lon="0.04528">
        <ele>1783</ele>
        <time>2012-03-31T08:23:32Z</time>
      </trkpt>
      <trkpt lat="42.84665" lon="0.04531">
        <ele>1784</ele>
        <time>2012-03-31T08:23:36Z</time>
      </trkpt>
      <trkpt lat="42.84664" lon="0.04534">
        <ele>1786</ele>
        <time>2012-03-31T08:23:40Z</time>
      </trkpt>
      <trkpt lat="42.84663" lon="0.04538">
        <ele>1787</ele>
        <time>2012-03-31T08:23:44Z</time>
      </trkpt>
      <trkpt lat="42.84662" lon="0.04541">
        <ele>1788</ele>
        <time>2012-03-31T08:23:48Z</time>
      </trkpt>
      <trkpt lat="42.84662" lon="0.04545">
        <ele>1789</ele>
        <time>2012-03-31T08:23:52Z</time>
      </trkpt>
      <trkpt lat="42.84661" lon="0.04548">
        <ele>1789</ele>
        <time>2012-03-31T08:23:56Z</time>
      </trkpt>
      <trkpt lat="42.84661" lon="0.04552">
        <ele>1789</ele>
        <time>2012-03-31T08:24:00Z</time>
      </trkpt>
      <trkpt lat="42.84661" lon="0.04555">
        <ele>1789</ele>
        <time>2012-03-31T08:24:04Z</time>
      </trkpt>
      <trkpt lat="42.84662" lon="0.04559">
        <ele>1790</ele>
        <time>2012-03-31T08:24:08Z</time>
      </trkpt>
      <trkpt lat="42.84662" lon="0.04562">
        <ele>1790</ele>
        <time>2012-03-31T08:24:12Z</time>
      </trkpt>
      <trkpt lat="42.84662" lon="0.04565">
        <ele>1790</ele>
        <time>2012-03-31T08:24:16Z</time>
      </trkpt>
      <trkpt lat="42.84662" lon="0.04569">
        <ele>1790</ele>
        <time>2012-03-31T08:24:20Z</time>
      </trkpt>
      <trkpt lat="42.84662" lon="0.04574">
        <ele>1790</ele>
        <time>2012-03-31T08:24:24Z</time>
      </trkpt>
      <trkpt lat="42.84663" lon="0.04578">
        <ele>1790</ele>
        <time>2012-03-31T08:24:28Z</time>
      </trkpt>
      <trkpt lat="42.84664" lon="0.04581">
        <ele>1790</ele>
        <time>2012-03-31T08:24:33Z</time>
      </trkpt>
      <trkpt lat="42.84666" lon="0.04584">
        <ele>1790</ele>
        <time>2012-03-31T08:24:38Z</time>
      </trkpt>
      <trkpt lat="42.84667" lon="0.04587">
        <ele>1791</ele>
        <time>2012-03-31T08:24:42Z</time>
      </trkpt>
      <trkpt lat="42.84668" lon="0.04589">
        <ele>1791</ele>
        <time>2012-03-31T08:24:45Z</time>
      </trkpt>
      <trkpt lat="42.84668" lon="0.04593">
        <ele>1791</ele>
        <time>2012-03-31T08:24:49Z</time>
      </trkpt>
      <trkpt lat="42.84668" lon="0.04596">
        <ele>1791</ele>
        <time>2012-03-31T08:24:53Z</time>
      </trkpt>
      <trkpt lat="42.84669" lon="0.046">
        <ele>1791</ele>
        <time>2012-03-31T08:24:57Z</time>
      </trkpt>
      <trkpt lat="42.8467" lon="0.04601">
        <ele>1792</ele>
        <time>2012-03-31T08:25:18Z</time>
      </trkpt>
      <trkpt lat="42.84669" lon="0.046">
        <ele>1795</ele>
        <time>2012-03-31T08:26:50Z</time>
      </trkpt>
      <trkpt lat="42.84668" lon="0.04602">
        <ele>1797</ele>
        <time>2012-03-31T08:27:43Z</time>
      </trkpt>
      <trkpt lat="42.84667" lon="0.04605">
        <ele>1797</ele>
        <time>2012-03-31T08:27:47Z</time>
      </trkpt>
      <trkpt lat="42.84666" lon="0.04609">
        <ele>1797</ele>
        <time>2012-03-31T08:27:51Z</time>
      </trkpt>
      <trkpt lat="42.84666" lon="0.04613">
        <ele>1797</ele>
        <time>2012-03-31T08:27:55Z</time>
      </trkpt>
      <trkpt lat="42.84665" lon="0.04616">
        <ele>1798</ele>
        <time>2012-03-31T08:27:59Z</time>
      </trkpt>
      <trkpt lat="42.84663" lon="0.0462">
        <ele>1799</ele>
        <time>2012-03-31T08:28:03Z</time>
      </trkpt>
      <trkpt lat="42.84662" lon="0.04624">
        <ele>1800</ele>
        <time>2012-03-31T08:28:07Z</time>
      </trkpt>
      <trkpt lat="42.8466" lon="0.04628">
        <ele>1801</ele>
        <time>2012-03-31T08:28:11Z</time>
      </trkpt>
      <trkpt lat="42.84659" lon="0.04631">
        <ele>1802</ele>
        <time>2012-03-31T08:28:15Z</time>
      </trkpt>
      <trkpt lat="42.84657" lon="0.04636">
        <ele>1802</ele>
        <time>2012-03-31T08:28:19Z</time>
      </trkpt>
      <trkpt lat="42.84656" lon="0.0464">
        <ele>1803</ele>
        <time>2012-03-31T08:28:23Z</time>
      </trkpt>
      <trkpt lat="42.84655" lon="0.04644">
        <ele>1803</ele>
        <time>2012-03-31T08:28:27Z</time>
      </trkpt>
      <trkpt lat="42.84653" lon="0.04648">
        <ele>1804</ele>
        <time>2012-03-31T08:28:31Z</time>
      </trkpt>
      <trkpt lat="42.84653" lon="0.04653">
        <ele>1804</ele>
        <time>2012-03-31T08:28:35Z</time>
      </trkpt>
      <trkpt lat="42.84651" lon="0.04656">
        <ele>1804</ele>
        <time>2012-03-31T08:28:39Z</time>
      </trkpt>
      <trkpt lat="42.8465" lon="0.0466">
        <ele>1805</ele>
        <time>2012-03-31T08:28:43Z</time>
      </trkpt>
      <trkpt lat="42.84648" lon="0.04663">
        <ele>1806</ele>
        <time>2012-03-31T08:28:47Z</time>
      </trkpt>
      <trkpt lat="42.84647" lon="0.04667">
        <ele>1807</ele>
        <time>2012-03-31T08:28:51Z</time>
      </trkpt>
      <trkpt lat="42.84645" lon="0.0467">
        <ele>1807</ele>
        <time>2012-03-31T08:28:55Z</time>
      </trkpt>
      <trkpt lat="42.84644" lon="0.04673">
        <ele>1807</ele>
        <time>2012-03-31T08:28:59Z</time>
      </trkpt>
      <trkpt lat="42.84643" lon="0.04677">
        <ele>1808</ele>
        <time>2012-03-31T08:29:03Z</time>
      </trkpt>
      <trkpt lat="42.84642" lon="0.0468">
        <ele>1808</ele>
        <time>2012-03-31T08:29:07Z</time>
      </trkpt>
      <trkpt lat="42.8464" lon="0.04684">
        <ele>1808</ele>
        <time>2012-03-31T08:29:11Z</time>
      </trkpt>
      <trkpt lat="42.84639" lon="0.04687">
        <ele>1809</ele>
        <time>2012-03-31T08:29:15Z</time>
      </trkpt>
      <trkpt lat="42.84637" lon="0.04691">
        <ele>1809</ele>
        <time>2012-03-31T08:29:19Z</time>
      </trkpt>
      <trkpt lat="42.84637" lon="0.04694">
        <ele>1809</ele>
        <time>2012-03-31T08:29:23Z</time>
      </trkpt>
      <trkpt lat="42.84637" lon="0.04698">
        <ele>1810</ele>
        <time>2012-03-31T08:29:27Z</time>
      </trkpt>
      <trkpt lat="42.84636" lon="0.04701">
        <ele>1810</ele>
        <time>2012-03-31T08:29:31Z</time>
      </trkpt>
      <trkpt lat="42.84635" lon="0.04702">
        <ele>1812</ele>
        <time>2012-03-31T08:29:49Z</time>
      </trkpt>
      <trkpt lat="42.84635" lon="0.04704">
        <ele>1812</ele>
        <time>2012-03-31T08:29:52Z</time>
      </trkpt>
      <trkpt lat="42.84634" lon="0.04706">
        <ele>1812</ele>
        <time>2012-03-31T08:29:55Z</time>
      </trkpt>
      <trkpt lat="42.84634" lon="0.04709">
        <ele>1813</ele>
        <time>2012-03-31T08:29:59Z</time>
      </trkpt>
      <trkpt lat="42.84634" lon="0.04712">
        <ele>1813</ele>
        <time>2012-03-31T08:30:03Z</time>
      </trkpt>
      <trkpt lat="42.84633" lon="0.04716">
        <ele>1814</ele>
        <time>2012-03-31T08:30:07Z</time>
      </trkpt>
      <trkpt lat="42.84632" lon="0.04719">
        <ele>1815</ele>
        <time>2012-03-31T08:30:12Z</time>
      </trkpt>
      <trkpt lat="42.84631" lon="0.04721">
        <ele>1815</ele>
        <time>2012-03-31T08:30:15Z</time>
      </trkpt>
      <trkpt lat="42.8463" lon="0.04724">
        <ele>1816</ele>
        <time>2012-03-31T08:30:19Z</time>
      </trkpt>
      <trkpt lat="42.84628" lon="0.04727">
        <ele>1816</ele>
        <time>2012-03-31T08:30:23Z</time>
      </trkpt>
      <trkpt lat="42.84628" lon="0.0473">
        <ele>1817</ele>
        <time>2012-03-31T08:30:27Z</time>
      </trkpt>
      <trkpt lat="42.84627" lon="0.04733">
        <ele>1817</ele>
        <time>2012-03-31T08:30:31Z</time>
      </trkpt>
      <trkpt lat="42.84626" lon="0.04735">
        <ele>1817</ele>
        <time>2012-03-31T08:30:34Z</time>
      </trkpt>
      <trkpt lat="42.84625" lon="0.04737">
        <ele>1818</ele>
        <time>2012-03-31T08:30:37Z</time>
      </trkpt>
      <trkpt lat="42.84624" lon="0.04739">
        <ele>1819</ele>
        <time>2012-03-31T08:30:40Z</time>
      </trkpt>
      <trkpt lat="42.84623" lon="0.04741">
        <ele>1819</ele>
        <time>2012-03-31T08:30:43Z</time>
      </trkpt>
      <trkpt lat="42.84622" lon="0.04741">
        <ele>1820</ele>
        <time>2012-03-31T08:30:46Z</time>
      </trkpt>
      <trkpt lat="42.8462" lon="0.04743">
        <ele>1821</ele>
        <time>2012-03-31T08:30:50Z</time>
      </trkpt>
      <trkpt lat="42.84618" lon="0.04745">
        <ele>1822</ele>
        <time>2012-03-31T08:30:54Z</time>
      </trkpt>
      <trkpt lat="42.84618" lon="0.04749">
        <ele>1823</ele>
        <time>2012-03-31T08:30:58Z</time>
      </trkpt>
      <trkpt lat="42.84618" lon="0.04752">
        <ele>1823</ele>
        <time>2012-03-31T08:31:02Z</time>
      </trkpt>
      <trkpt lat="42.84617" lon="0.04753">
        <ele>1824</ele>
        <time>2012-03-31T08:31:05Z</time>
      </trkpt>
      <trkpt lat="42.84614" lon="0.04754">
        <ele>1825</ele>
        <time>2012-03-31T08:31:09Z</time>
      </trkpt>
      <trkpt lat="42.84613" lon="0.04755">
        <ele>1825</ele>
        <time>2012-03-31T08:31:12Z</time>
      </trkpt>
      <trkpt lat="42.84611" lon="0.04755">
        <ele>1826</ele>
        <time>2012-03-31T08:31:15Z</time>
      </trkpt>
      <trkpt lat="42.8461" lon="0.04758">
        <ele>1826</ele>
        <time>2012-03-31T08:31:18Z</time>
      </trkpt>
      <trkpt lat="42.8461" lon="0.04761">
        <ele>1827</ele>
        <time>2012-03-31T08:31:22Z</time>
      </trkpt>
      <trkpt lat="42.8461" lon="0.04764">
        <ele>1827</ele>
        <time>2012-03-31T08:31:27Z</time>
      </trkpt>
      <trkpt lat="42.84609" lon="0.04765">
        <ele>1827</ele>
        <time>2012-03-31T08:31:30Z</time>
      </trkpt>
      <trkpt lat="42.84607" lon="0.04766">
        <ele>1828</ele>
        <time>2012-03-31T08:31:33Z</time>
      </trkpt>
      <trkpt lat="42.84605" lon="0.04765">
        <ele>1829</ele>
        <time>2012-03-31T08:31:37Z</time>
      </trkpt>
      <trkpt lat="42.84604" lon="0.04766">
        <ele>1829</ele>
        <time>2012-03-31T08:31:40Z</time>
      </trkpt>
      <trkpt lat="42.84603" lon="0.04769">
        <ele>1829</ele>
        <time>2012-03-31T08:31:44Z</time>
      </trkpt>
      <trkpt lat="42.84602" lon="0.04771">
        <ele>1831</ele>
        <time>2012-03-31T08:32:02Z</time>
      </trkpt>
      <trkpt lat="42.84602" lon="0.04772">
        <ele>1831</ele>
        <time>2012-03-31T08:32:14Z</time>
      </trkpt>
      <trkpt lat="42.84602" lon="0.04774">
        <ele>1831</ele>
        <time>2012-03-31T08:32:17Z</time>
      </trkpt>
      <trkpt lat="42.84601" lon="0.04776">
        <ele>1831</ele>
        <time>2012-03-31T08:32:20Z</time>
      </trkpt>
      <trkpt lat="42.84599" lon="0.04777">
        <ele>1832</ele>
        <time>2012-03-31T08:32:23Z</time>
      </trkpt>
      <trkpt lat="42.84596" lon="0.04776">
        <ele>1833</ele>
        <time>2012-03-31T08:32:29Z</time>
      </trkpt>
      <trkpt lat="42.84595" lon="0.04776">
        <ele>1834</ele>
        <time>2012-03-31T08:32:32Z</time>
      </trkpt>
      <trkpt lat="42.84594" lon="0.04778">
        <ele>1835</ele>
        <time>2012-03-31T08:32:35Z</time>
      </trkpt>
      <trkpt lat="42.84592" lon="0.04781">
        <ele>1836</ele>
        <time>2012-03-31T08:32:39Z</time>
      </trkpt>
      <trkpt lat="42.84591" lon="0.04784">
        <ele>1837</ele>
        <time>2012-03-31T08:32:44Z</time>
      </trkpt>
      <trkpt lat="42.84591" lon="0.04786">
        <ele>1837</ele>
        <time>2012-03-31T08:32:47Z</time>
      </trkpt>
      <trkpt lat="42.84588" lon="0.04786">
        <ele>1838</ele>
        <time>2012-03-31T08:32:52Z</time>
      </trkpt>
      <trkpt lat="42.84587" lon="0.04787">
        <ele>1839</ele>
        <time>2012-03-31T08:32:55Z</time>
      </trkpt>
      <trkpt lat="42.84586" lon="0.04791">
        <ele>1840</ele>
        <time>2012-03-31T08:32:59Z</time>
      </trkpt>
      <trkpt lat="42.84585" lon="0.04791">
        <ele>1841</ele>
        <time>2012-03-31T08:33:30Z</time>
      </trkpt>
      <trkpt lat="42.84586" lon="0.04793">
        <ele>1841</ele>
        <time>2012-03-31T08:33:47Z</time>
      </trkpt>
      <trkpt lat="42.84586" lon="0.04795">
        <ele>1841</ele>
        <time>2012-03-31T08:33:50Z</time>
      </trkpt>
      <trkpt lat="42.84584" lon="0.04795">
        <ele>1841</ele>
        <time>2012-03-31T08:33:54Z</time>
      </trkpt>
      <trkpt lat="42.84583" lon="0.04796">
        <ele>1842</ele>
        <time>2012-03-31T08:33:57Z</time>
      </trkpt>
      <trkpt lat="42.84583" lon="0.04799">
        <ele>1843</ele>
        <time>2012-03-31T08:34:01Z</time>
      </trkpt>
      <trkpt lat="42.84583" lon="0.04802">
        <ele>1843</ele>
        <time>2012-03-31T08:34:06Z</time>
      </trkpt>
      <trkpt lat="42.84582" lon="0.04803">
        <ele>1844</ele>
        <time>2012-03-31T08:34:12Z</time>
      </trkpt>
      <trkpt lat="42.84578" lon="0.04804">
        <ele>1844</ele>
        <time>2012-03-31T08:34:17Z</time>
      </trkpt>
      <trkpt lat="42.84578" lon="0.04806">
        <ele>1844</ele>
        <time>2012-03-31T08:34:20Z</time>
      </trkpt>
      <trkpt lat="42.84578" lon="0.04808">
        <ele>1844</ele>
        <time>2012-03-31T08:34:23Z</time>
      </trkpt>
      <trkpt lat="42.84578" lon="0.04809">
        <ele>1845</ele>
        <time>2012-03-31T08:34:26Z</time>
      </trkpt>
      <trkpt lat="42.84576" lon="0.04811">
        <ele>1846</ele>
        <time>2012-03-31T08:34:31Z</time>
      </trkpt>
      <trkpt lat="42.84574" lon="0.04811">
        <ele>1847</ele>
        <time>2012-03-31T08:34:36Z</time>
      </trkpt>
      <trkpt lat="42.84574" lon="0.04813">
        <ele>1847</ele>
        <time>2012-03-31T08:34:40Z</time>
      </trkpt>
      <trkpt lat="42.84573" lon="0.04814">
        <ele>1850</ele>
        <time>2012-03-31T08:34:57Z</time>
      </trkpt>
      <trkpt lat="42.84573" lon="0.04813">
        <ele>1851</ele>
        <time>2012-03-31T08:35:21Z</time>
      </trkpt>
      <trkpt lat="42.84572" lon="0.04813">
        <ele>1852</ele>
        <time>2012-03-31T08:35:42Z</time>
      </trkpt>
      <trkpt lat="42.8457" lon="0.04813">
        <ele>1853</ele>
        <time>2012-03-31T08:35:47Z</time>
      </trkpt>
      <trkpt lat="42.84566" lon="0.04812">
        <ele>1854</ele>
        <time>2012-03-31T08:35:52Z</time>
      </trkpt>
      <trkpt lat="42.84565" lon="0.04816">
        <ele>1854</ele>
        <time>2012-03-31T08:35:57Z</time>
      </trkpt>
      <trkpt lat="42.84565" lon="0.0482">
        <ele>1854</ele>
        <time>2012-03-31T08:36:01Z</time>
      </trkpt>
      <trkpt lat="42.84565" lon="0.04823">
        <ele>1855</ele>
        <time>2012-03-31T08:36:05Z</time>
      </trkpt>
      <trkpt lat="42.84564" lon="0.04824">
        <ele>1855</ele>
        <time>2012-03-31T08:36:09Z</time>
      </trkpt>
      <trkpt lat="42.84562" lon="0.04825">
        <ele>1856</ele>
        <time>2012-03-31T08:36:17Z</time>
      </trkpt>
      <trkpt lat="42.84561" lon="0.04828">
        <ele>1857</ele>
        <time>2012-03-31T08:36:22Z</time>
      </trkpt>
      <trkpt lat="42.84559" lon="0.04831">
        <ele>1859</ele>
        <time>2012-03-31T08:36:28Z</time>
      </trkpt>
      <trkpt lat="42.84557" lon="0.04831">
        <ele>1860</ele>
        <time>2012-03-31T08:36:32Z</time>
      </trkpt>
      <trkpt lat="42.84556" lon="0.04834">
        <ele>1860</ele>
        <time>2012-03-31T08:36:36Z</time>
      </trkpt>
      <trkpt lat="42.84557" lon="0.04836">
        <ele>1861</ele>
        <time>2012-03-31T08:37:12Z</time>
      </trkpt>
      <trkpt lat="42.84557" lon="0.0484">
        <ele>1861</ele>
        <time>2012-03-31T08:37:17Z</time>
      </trkpt>
      <trkpt lat="42.84556" lon="0.04843">
        <ele>1862</ele>
        <time>2012-03-31T08:37:22Z</time>
      </trkpt>
      <trkpt lat="42.84553" lon="0.04846">
        <ele>1862</ele>
        <time>2012-03-31T08:37:28Z</time>
      </trkpt>
      <trkpt lat="42.84553" lon="0.04849">
        <ele>1863</ele>
        <time>2012-03-31T08:37:32Z</time>
      </trkpt>
      <trkpt lat="42.84553" lon="0.04852">
        <ele>1863</ele>
        <time>2012-03-31T08:37:36Z</time>
      </trkpt>
      <trkpt lat="42.84552" lon="0.04855">
        <ele>1863</ele>
        <time>2012-03-31T08:37:42Z</time>
      </trkpt>
      <trkpt lat="42.84549" lon="0.04856">
        <ele>1863</ele>
        <time>2012-03-31T08:37:46Z</time>
      </trkpt>
      <trkpt lat="42.84548" lon="0.04858">
        <ele>1864</ele>
        <time>2012-03-31T08:37:49Z</time>
      </trkpt>
      <trkpt lat="42.84547" lon="0.04862">
        <ele>1864</ele>
        <time>2012-03-31T08:37:55Z</time>
      </trkpt>
      <trkpt lat="42.84545" lon="0.04865">
        <ele>1865</ele>
        <time>2012-03-31T08:38:01Z</time>
      </trkpt>
      <trkpt lat="42.84543" lon="0.04866">
        <ele>1866</ele>
        <time>2012-03-31T08:38:05Z</time>
      </trkpt>
      <trkpt lat="42.8454" lon="0.04869">
        <ele>1867</ele>
        <time>2012-03-31T08:38:10Z</time>
      </trkpt>
      <trkpt lat="42.84539" lon="0.04872">
        <ele>1869</ele>
        <time>2012-03-31T08:38:15Z</time>
      </trkpt>
      <trkpt lat="42.84537" lon="0.04873">
        <ele>1869</ele>
        <time>2012-03-31T08:38:18Z</time>
      </trkpt>
      <trkpt lat="42.84536" lon="0.04875">
        <ele>1870</ele>
        <time>2012-03-31T08:38:22Z</time>
      </trkpt>
      <trkpt lat="42.84535" lon="0.04876">
        <ele>1871</ele>
        <time>2012-03-31T08:38:25Z</time>
      </trkpt>
      <trkpt lat="42.84534" lon="0.04878">
        <ele>1871</ele>
        <time>2012-03-31T08:38:29Z</time>
      </trkpt>
      <trkpt lat="42.84533" lon="0.04879">
        <ele>1871</ele>
        <time>2012-03-31T08:38:32Z</time>
      </trkpt>
      <trkpt lat="42.84531" lon="0.04881">
        <ele>1872</ele>
        <time>2012-03-31T08:38:35Z</time>
      </trkpt>
      <trkpt lat="42.8453" lon="0.04883">
        <ele>1874</ele>
        <time>2012-03-31T08:39:04Z</time>
      </trkpt>
      <trkpt lat="42.84528" lon="0.04887">
        <ele>1874</ele>
        <time>2012-03-31T08:39:09Z</time>
      </trkpt>
      <trkpt lat="42.84527" lon="0.04888">
        <ele>1874</ele>
        <time>2012-03-31T08:39:12Z</time>
      </trkpt>
      <trkpt lat="42.84526" lon="0.04891">
        <ele>1874</ele>
        <time>2012-03-31T08:39:15Z</time>
      </trkpt>
      <trkpt lat="42.84524" lon="0.04894">
        <ele>1875</ele>
        <time>2012-03-31T08:39:20Z</time>
      </trkpt>
      <trkpt lat="42.84523" lon="0.04897">
        <ele>1876</ele>
        <time>2012-03-31T08:39:24Z</time>
      </trkpt>
      <trkpt lat="42.84522" lon="0.049">
        <ele>1877</ele>
        <time>2012-03-31T08:39:28Z</time>
      </trkpt>
      <trkpt lat="42.8452" lon="0.04901">
        <ele>1877</ele>
        <time>2012-03-31T08:39:31Z</time>
      </trkpt>
      <trkpt lat="42.84518" lon="0.04904">
        <ele>1879</ele>
        <time>2012-03-31T08:39:37Z</time>
      </trkpt>
      <trkpt lat="42.84517" lon="0.04906">
        <ele>1880</ele>
        <time>2012-03-31T08:39:40Z</time>
      </trkpt>
      <trkpt lat="42.84516" lon="0.04908">
        <ele>1880</ele>
        <time>2012-03-31T08:39:43Z</time>
      </trkpt>
      <trkpt lat="42.84513" lon="0.04911">
        <ele>1881</ele>
        <time>2012-03-31T08:39:49Z</time>
      </trkpt>
      <trkpt lat="42.84511" lon="0.04914">
        <ele>1882</ele>
        <time>2012-03-31T08:39:55Z</time>
      </trkpt>
      <trkpt lat="42.84509" lon="0.04915">
        <ele>1883</ele>
        <time>2012-03-31T08:39:58Z</time>
      </trkpt>
      <trkpt lat="42.84508" lon="0.04916">
        <ele>1884</ele>
        <time>2012-03-31T08:40:19Z</time>
      </trkpt>
      <trkpt lat="42.84506" lon="0.04919">
        <ele>1885</ele>
        <time>2012-03-31T08:40:25Z</time>
      </trkpt>
      <trkpt lat="42.84505" lon="0.04921">
        <ele>1886</ele>
        <time>2012-03-31T08:40:28Z</time>
      </trkpt>
      <trkpt lat="42.84504" lon="0.04923">
        <ele>1886</ele>
        <time>2012-03-31T08:40:31Z</time>
      </trkpt>
      <trkpt lat="42.84502" lon="0.04927">
        <ele>1887</ele>
        <time>2012-03-31T08:40:37Z</time>
      </trkpt>
      <trkpt lat="42.84499" lon="0.0493">
        <ele>1888</ele>
        <time>2012-03-31T08:40:42Z</time>
      </trkpt>
      <trkpt lat="42.84498" lon="0.04933">
        <ele>1888</ele>
        <time>2012-03-31T08:40:46Z</time>
      </trkpt>
      <trkpt lat="42.84496" lon="0.04936">
        <ele>1889</ele>
        <time>2012-03-31T08:40:51Z</time>
      </trkpt>
      <trkpt lat="42.84496" lon="0.04938">
        <ele>1890</ele>
        <time>2012-03-31T08:41:08Z</time>
      </trkpt>
      <trkpt lat="42.84493" lon="0.04941">
        <ele>1890</ele>
        <time>2012-03-31T08:41:12Z</time>
      </trkpt>
      <trkpt lat="42.84491" lon="0.04944">
        <ele>1890</ele>
        <time>2012-03-31T08:41:17Z</time>
      </trkpt>
      <trkpt lat="42.84489" lon="0.04945">
        <ele>1893</ele>
        <time>2012-03-31T08:41:58Z</time>
      </trkpt>
      <trkpt lat="42.84491" lon="0.04945">
        <ele>1894</ele>
        <time>2012-03-31T08:43:43Z</time>
      </trkpt>
      <trkpt lat="42.8449" lon="0.04944">
        <ele>1894</ele>
        <time>2012-03-31T08:43:54Z</time>
      </trkpt>
      <trkpt lat="42.84489" lon="0.04943">
        <ele>1894</ele>
        <time>2012-03-31T08:45:16Z</time>
      </trkpt>
      <trkpt lat="42.84488" lon="0.04941">
        <ele>1894</ele>
        <time>2012-03-31T08:45:24Z</time>
      </trkpt>
      <trkpt lat="42.84488" lon="0.04942">
        <ele>1897</ele>
        <time>2012-03-31T08:47:20Z</time>
      </trkpt>
      <trkpt lat="42.84489" lon="0.04942">
        <ele>1897</ele>
        <time>2012-03-31T08:47:48Z</time>
      </trkpt>
      <trkpt lat="42.84488" lon="0.04941">
        <ele>1898</ele>
        <time>2012-03-31T08:48:18Z</time>
      </trkpt>
      <trkpt lat="42.84487" lon="0.04943">
        <ele>1898</ele>
        <time>2012-03-31T08:48:21Z</time>
      </trkpt>
      <trkpt lat="42.84485" lon="0.04947">
        <ele>1898</ele>
        <time>2012-03-31T08:48:25Z</time>
      </trkpt>
      <trkpt lat="42.84484" lon="0.04951">
        <ele>1898</ele>
        <time>2012-03-31T08:48:29Z</time>
      </trkpt>
      <trkpt lat="42.84482" lon="0.04954">
        <ele>1898</ele>
        <time>2012-03-31T08:48:33Z</time>
      </trkpt>
      <trkpt lat="42.84481" lon="0.04958">
        <ele>1898</ele>
        <time>2012-03-31T08:48:38Z</time>
      </trkpt>
      <trkpt lat="42.84481" lon="0.0496">
        <ele>1898</ele>
        <time>2012-03-31T08:48:41Z</time>
      </trkpt>
      <trkpt lat="42.8448" lon="0.04962">
        <ele>1898</ele>
        <time>2012-03-31T08:48:44Z</time>
      </trkpt>
      <trkpt lat="42.84479" lon="0.04965">
        <ele>1898</ele>
        <time>2012-03-31T08:48:48Z</time>
      </trkpt>
      <trkpt lat="42.84477" lon="0.04968">
        <ele>1898</ele>
        <time>2012-03-31T08:48:52Z</time>
      </trkpt>
      <trkpt lat="42.84475" lon="0.04972">
        <ele>1898</ele>
        <time>2012-03-31T08:48:56Z</time>
      </trkpt>
      <trkpt lat="42.84474" lon="0.04975">
        <ele>1898</ele>
        <time>2012-03-31T08:49:00Z</time>
      </trkpt>
      <trkpt lat="42.84472" lon="0.04977">
        <ele>1898</ele>
        <time>2012-03-31T08:49:04Z</time>
      </trkpt>
      <trkpt lat="42.8447" lon="0.0498">
        <ele>1899</ele>
        <time>2012-03-31T08:49:08Z</time>
      </trkpt>
      <trkpt lat="42.84468" lon="0.04984">
        <ele>1899</ele>
        <time>2012-03-31T08:49:13Z</time>
      </trkpt>
      <trkpt lat="42.84467" lon="0.04986">
        <ele>1899</ele>
        <time>2012-03-31T08:49:16Z</time>
      </trkpt>
      <trkpt lat="42.84465" lon="0.04987">
        <ele>1899</ele>
        <time>2012-03-31T08:49:19Z</time>
      </trkpt>
      <trkpt lat="42.84463" lon="0.04991">
        <ele>1900</ele>
        <time>2012-03-31T08:49:24Z</time>
      </trkpt>
      <trkpt lat="42.84461" lon="0.04994">
        <ele>1900</ele>
        <time>2012-03-31T08:49:28Z</time>
      </trkpt>
      <trkpt lat="42.8446" lon="0.04996">
        <ele>1900</ele>
        <time>2012-03-31T08:49:31Z</time>
      </trkpt>
      <trkpt lat="42.84458" lon="0.04998">
        <ele>1900</ele>
        <time>2012-03-31T08:49:35Z</time>
      </trkpt>
      <trkpt lat="42.84455" lon="0.05002">
        <ele>1900</ele>
        <time>2012-03-31T08:49:40Z</time>
      </trkpt>
      <trkpt lat="42.84454" lon="0.05004">
        <ele>1900</ele>
        <time>2012-03-31T08:49:43Z</time>
      </trkpt>
      <trkpt lat="42.84452" lon="0.05006">
        <ele>1901</ele>
        <time>2012-03-31T08:49:46Z</time>
      </trkpt>
      <trkpt lat="42.8445" lon="0.05009">
        <ele>1901</ele>
        <time>2012-03-31T08:49:50Z</time>
      </trkpt>
      <trkpt lat="42.84449" lon="0.05011">
        <ele>1901</ele>
        <time>2012-03-31T08:49:53Z</time>
      </trkpt>
      <trkpt lat="42.84447" lon="0.05013">
        <ele>1901</ele>
        <time>2012-03-31T08:49:56Z</time>
      </trkpt>
      <trkpt lat="42.84445" lon="0.05016">
        <ele>1902</ele>
        <time>2012-03-31T08:50:00Z</time>
      </trkpt>
      <trkpt lat="42.84444" lon="0.05019">
        <ele>1902</ele>
        <time>2012-03-31T08:50:04Z</time>
      </trkpt>
      <trkpt lat="42.84441" lon="0.05023">
        <ele>1902</ele>
        <time>2012-03-31T08:50:08Z</time>
      </trkpt>
      <trkpt lat="42.84439" lon="0.05026">
        <ele>1902</ele>
        <time>2012-03-31T08:50:12Z</time>
      </trkpt>
      <trkpt lat="42.84438" lon="0.05029">
        <ele>1902</ele>
        <time>2012-03-31T08:50:16Z</time>
      </trkpt>
      <trkpt lat="42.84436" lon="0.05032">
        <ele>1902</ele>
        <time>2012-03-31T08:50:20Z</time>
      </trkpt>
      <trkpt lat="42.84435" lon="0.05034">
        <ele>1902</ele>
        <time>2012-03-31T08:50:23Z</time>
      </trkpt>
      <trkpt lat="42.84432" lon="0.05038">
        <ele>1902</ele>
        <time>2012-03-31T08:50:28Z</time>
      </trkpt>
      <trkpt lat="42.84431" lon="0.05041">
        <ele>1902</ele>
        <time>2012-03-31T08:50:32Z</time>
      </trkpt>
      <trkpt lat="42.84429" lon="0.05044">
        <ele>1903</ele>
        <time>2012-03-31T08:50:36Z</time>
      </trkpt>
      <trkpt lat="42.84426" lon="0.05047">
        <ele>1903</ele>
        <time>2012-03-31T08:50:41Z</time>
      </trkpt>
      <trkpt lat="42.84425" lon="0.05051">
        <ele>1904</ele>
        <time>2012-03-31T08:50:46Z</time>
      </trkpt>
      <trkpt lat="42.84423" lon="0.05052">
        <ele>1904</ele>
        <time>2012-03-31T08:50:49Z</time>
      </trkpt>
      <trkpt lat="42.84422" lon="0.05056">
        <ele>1904</ele>
        <time>2012-03-31T08:50:54Z</time>
      </trkpt>
      <trkpt lat="42.8442" lon="0.05059">
        <ele>1905</ele>
        <time>2012-03-31T08:50:59Z</time>
      </trkpt>
      <trkpt lat="42.84418" lon="0.05063">
        <ele>1906</ele>
        <time>2012-03-31T08:51:04Z</time>
      </trkpt>
      <trkpt lat="42.84417" lon="0.05065">
        <ele>1906</ele>
        <time>2012-03-31T08:51:07Z</time>
      </trkpt>
      <trkpt lat="42.84415" lon="0.05067">
        <ele>1907</ele>
        <time>2012-03-31T08:51:10Z</time>
      </trkpt>
      <trkpt lat="42.84414" lon="0.0507">
        <ele>1907</ele>
        <time>2012-03-31T08:51:14Z</time>
      </trkpt>
      <trkpt lat="42.84413" lon="0.05074">
        <ele>1907</ele>
        <time>2012-03-31T08:51:18Z</time>
      </trkpt>
      <trkpt lat="42.84411" lon="0.05077">
        <ele>1907</ele>
        <time>2012-03-31T08:51:22Z</time>
      </trkpt>
      <trkpt lat="42.84409" lon="0.0508">
        <ele>1908</ele>
        <time>2012-03-31T08:51:26Z</time>
      </trkpt>
      <trkpt lat="42.84407" lon="0.05083">
        <ele>1909</ele>
        <time>2012-03-31T08:51:30Z</time>
      </trkpt>
      <trkpt lat="42.84408" lon="0.05083">
        <ele>1912</ele>
        <time>2012-03-31T08:52:23Z</time>
      </trkpt>
      <trkpt lat="42.84406" lon="0.05084">
        <ele>1913</ele>
        <time>2012-03-31T08:53:02Z</time>
      </trkpt>
      <trkpt lat="42.84405" lon="0.05085">
        <ele>1913</ele>
        <time>2012-03-31T08:53:05Z</time>
      </trkpt>
      <trkpt lat="42.84404" lon="0.05087">
        <ele>1913</ele>
        <time>2012-03-31T08:53:08Z</time>
      </trkpt>
      <trkpt lat="42.84401" lon="0.05089">
        <ele>1913</ele>
        <time>2012-03-31T08:53:12Z</time>
      </trkpt>
      <trkpt lat="42.84399" lon="0.05091">
        <ele>1913</ele>
        <time>2012-03-31T08:53:16Z</time>
      </trkpt>
      <trkpt lat="42.84397" lon="0.05091">
        <ele>1913</ele>
        <time>2012-03-31T08:53:19Z</time>
      </trkpt>
      <trkpt lat="42.84394" lon="0.05093">
        <ele>1914</ele>
        <time>2012-03-31T08:53:23Z</time>
      </trkpt>
      <trkpt lat="42.84392" lon="0.05094">
        <ele>1914</ele>
        <time>2012-03-31T08:53:27Z</time>
      </trkpt>
      <trkpt lat="42.8439" lon="0.05095">
        <ele>1915</ele>
        <time>2012-03-31T08:53:31Z</time>
      </trkpt>
      <trkpt lat="42.84388" lon="0.05096">
        <ele>1915</ele>
        <time>2012-03-31T08:53:34Z</time>
      </trkpt>
      <trkpt lat="42.84386" lon="0.05097">
        <ele>1916</ele>
        <time>2012-03-31T08:53:38Z</time>
      </trkpt>
      <trkpt lat="42.84383" lon="0.05099">
        <ele>1916</ele>
        <time>2012-03-31T08:53:43Z</time>
      </trkpt>
      <trkpt lat="42.84381" lon="0.051">
        <ele>1917</ele>
        <time>2012-03-31T08:53:46Z</time>
      </trkpt>
      <trkpt lat="42.8438" lon="0.05101">
        <ele>1917</ele>
        <time>2012-03-31T08:53:49Z</time>
      </trkpt>
      <trkpt lat="42.84378" lon="0.05102">
        <ele>1918</ele>
        <time>2012-03-31T08:53:53Z</time>
      </trkpt>
      <trkpt lat="42.84375" lon="0.05104">
        <ele>1918</ele>
        <time>2012-03-31T08:53:58Z</time>
      </trkpt>
      <trkpt lat="42.84372" lon="0.05105">
        <ele>1918</ele>
        <time>2012-03-31T08:54:02Z</time>
      </trkpt>
      <trkpt lat="42.8437" lon="0.05108">
        <ele>1918</ele>
        <time>2012-03-31T08:54:06Z</time>
      </trkpt>
      <trkpt lat="42.84367" lon="0.05109">
        <ele>1919</ele>
        <time>2012-03-31T08:54:10Z</time>
      </trkpt>
      <trkpt lat="42.84365" lon="0.05109">
        <ele>1919</ele>
        <time>2012-03-31T08:54:14Z</time>
      </trkpt>
      <trkpt lat="42.84363" lon="0.05111">
        <ele>1921</ele>
        <time>2012-03-31T08:54:34Z</time>
      </trkpt>
      <trkpt lat="42.84361" lon="0.05112">
        <ele>1921</ele>
        <time>2012-03-31T08:54:38Z</time>
      </trkpt>
      <trkpt lat="42.84362" lon="0.0511">
        <ele>1922</ele>
        <time>2012-03-31T08:54:57Z</time>
      </trkpt>
      <trkpt lat="42.84363" lon="0.05108">
        <ele>1922</ele>
        <time>2012-03-31T08:55:00Z</time>
      </trkpt>
      <trkpt lat="42.84364" lon="0.05106">
        <ele>1922</ele>
        <time>2012-03-31T08:55:03Z</time>
      </trkpt>
      <trkpt lat="42.84364" lon="0.05105">
        <ele>1922</ele>
        <time>2012-03-31T08:55:06Z</time>
      </trkpt>
      <trkpt lat="42.84364" lon="0.05103">
        <ele>1922</ele>
        <time>2012-03-31T08:55:09Z</time>
      </trkpt>
      <trkpt lat="42.84365" lon="0.05101">
        <ele>1922</ele>
        <time>2012-03-31T08:55:12Z</time>
      </trkpt>
      <trkpt lat="42.84365" lon="0.05098">
        <ele>1922</ele>
        <time>2012-03-31T08:55:16Z</time>
      </trkpt>
      <trkpt lat="42.84366" lon="0.05095">
        <ele>1922</ele>
        <time>2012-03-31T08:55:20Z</time>
      </trkpt>
      <trkpt lat="42.84367" lon="0.05093">
        <ele>1922</ele>
        <time>2012-03-31T08:55:23Z</time>
      </trkpt>
      <trkpt lat="42.84367" lon="0.05091">
        <ele>1922</ele>
        <time>2012-03-31T08:55:36Z</time>
      </trkpt>
      <trkpt lat="42.84366" lon="0.05092">
        <ele>1922</ele>
        <time>2012-03-31T08:55:57Z</time>
      </trkpt>
      <trkpt lat="42.84365" lon="0.05093">
        <ele>1922</ele>
        <time>2012-03-31T08:56:00Z</time>
      </trkpt>
      <trkpt lat="42.84363" lon="0.05093">
        <ele>1922</ele>
        <time>2012-03-31T08:56:03Z</time>
      </trkpt>
      <trkpt lat="42.84362" lon="0.05093">
        <ele>1923</ele>
        <time>2012-03-31T08:56:06Z</time>
      </trkpt>
      <trkpt lat="42.84361" lon="0.05093">
        <ele>1924</ele>
        <time>2012-03-31T08:56:09Z</time>
      </trkpt>
      <trkpt lat="42.84359" lon="0.05093">
        <ele>1925</ele>
        <time>2012-03-31T08:56:12Z</time>
      </trkpt>
      <trkpt lat="42.84358" lon="0.05093">
        <ele>1926</ele>
        <time>2012-03-31T08:56:15Z</time>
      </trkpt>
      <trkpt lat="42.84356" lon="0.05094">
        <ele>1927</ele>
        <time>2012-03-31T08:56:18Z</time>
      </trkpt>
      <trkpt lat="42.84355" lon="0.05094">
        <ele>1927</ele>
        <time>2012-03-31T08:56:21Z</time>
      </trkpt>
      <trkpt lat="42.84353" lon="0.05095">
        <ele>1928</ele>
        <time>2012-03-31T08:56:24Z</time>
      </trkpt>
      <trkpt lat="42.84352" lon="0.05095">
        <ele>1929</ele>
        <time>2012-03-31T08:56:27Z</time>
      </trkpt>
      <trkpt lat="42.84351" lon="0.05096">
        <ele>1930</ele>
        <time>2012-03-31T08:56:30Z</time>
      </trkpt>
      <trkpt lat="42.84349" lon="0.05096">
        <ele>1930</ele>
        <time>2012-03-31T08:56:33Z</time>
      </trkpt>
      <trkpt lat="42.84347" lon="0.05096">
        <ele>1931</ele>
        <time>2012-03-31T08:56:36Z</time>
      </trkpt>
      <trkpt lat="42.84346" lon="0.05095">
        <ele>1931</ele>
        <time>2012-03-31T08:56:39Z</time>
      </trkpt>
      <trkpt lat="42.84344" lon="0.05094">
        <ele>1932</ele>
        <time>2012-03-31T08:56:44Z</time>
      </trkpt>
      <trkpt lat="42.84342" lon="0.05094">
        <ele>1933</ele>
        <time>2012-03-31T08:56:49Z</time>
      </trkpt>
      <trkpt lat="42.8434" lon="0.05093">
        <ele>1933</ele>
        <time>2012-03-31T08:56:53Z</time>
      </trkpt>
      <trkpt lat="42.84337" lon="0.05091">
        <ele>1933</ele>
        <time>2012-03-31T08:56:58Z</time>
      </trkpt>
      <trkpt lat="42.84335" lon="0.0509">
        <ele>1933</ele>
        <time>2012-03-31T08:57:02Z</time>
      </trkpt>
      <trkpt lat="42.84332" lon="0.05088">
        <ele>1933</ele>
        <time>2012-03-31T08:57:06Z</time>
      </trkpt>
      <trkpt lat="42.84329" lon="0.05086">
        <ele>1933</ele>
        <time>2012-03-31T08:57:10Z</time>
      </trkpt>
      <trkpt lat="42.84327" lon="0.05084">
        <ele>1933</ele>
        <time>2012-03-31T08:57:14Z</time>
      </trkpt>
      <trkpt lat="42.84324" lon="0.05083">
        <ele>1933</ele>
        <time>2012-03-31T08:57:18Z</time>
      </trkpt>
      <trkpt lat="42.84322" lon="0.05082">
        <ele>1933</ele>
        <time>2012-03-31T08:57:22Z</time>
      </trkpt>
      <trkpt lat="42.84319" lon="0.05081">
        <ele>1933</ele>
        <time>2012-03-31T08:57:26Z</time>
      </trkpt>
      <trkpt lat="42.84317" lon="0.0508">
        <ele>1933</ele>
        <time>2012-03-31T08:57:30Z</time>
      </trkpt>
      <trkpt lat="42.84315" lon="0.0508">
        <ele>1933</ele>
        <time>2012-03-31T08:57:33Z</time>
      </trkpt>
      <trkpt lat="42.84313" lon="0.0508">
        <ele>1934</ele>
        <time>2012-03-31T08:57:36Z</time>
      </trkpt>
      <trkpt lat="42.84311" lon="0.05079">
        <ele>1934</ele>
        <time>2012-03-31T08:57:41Z</time>
      </trkpt>
      <trkpt lat="42.84309" lon="0.05079">
        <ele>1935</ele>
        <time>2012-03-31T08:57:44Z</time>
      </trkpt>
      <trkpt lat="42.84307" lon="0.05079">
        <ele>1935</ele>
        <time>2012-03-31T08:57:47Z</time>
      </trkpt>
      <trkpt lat="42.84306" lon="0.05079">
        <ele>1935</ele>
        <time>2012-03-31T08:57:50Z</time>
      </trkpt>
      <trkpt lat="42.84305" lon="0.05079">
        <ele>1936</ele>
        <time>2012-03-31T08:57:53Z</time>
      </trkpt>
      <trkpt lat="42.84304" lon="0.05078">
        <ele>1936</ele>
        <time>2012-03-31T08:57:56Z</time>
      </trkpt>
      <trkpt lat="42.84302" lon="0.05078">
        <ele>1937</ele>
        <time>2012-03-31T08:57:59Z</time>
      </trkpt>
      <trkpt lat="42.84301" lon="0.05079">
        <ele>1937</ele>
        <time>2012-03-31T08:58:02Z</time>
      </trkpt>
      <trkpt lat="42.84299" lon="0.05078">
        <ele>1938</ele>
        <time>2012-03-31T08:58:05Z</time>
      </trkpt>
      <trkpt lat="42.84298" lon="0.05078">
        <ele>1938</ele>
        <time>2012-03-31T08:58:08Z</time>
      </trkpt>
      <trkpt lat="42.84296" lon="0.05078">
        <ele>1939</ele>
        <time>2012-03-31T08:58:12Z</time>
      </trkpt>
      <trkpt lat="42.84294" lon="0.05078">
        <ele>1939</ele>
        <time>2012-03-31T08:58:15Z</time>
      </trkpt>
      <trkpt lat="42.84293" lon="0.05078">
        <ele>1940</ele>
        <time>2012-03-31T08:58:41Z</time>
      </trkpt>
      <trkpt lat="42.8429" lon="0.05078">
        <ele>1941</ele>
        <time>2012-03-31T08:58:45Z</time>
      </trkpt>
      <trkpt lat="42.84287" lon="0.05079">
        <ele>1941</ele>
        <time>2012-03-31T08:58:49Z</time>
      </trkpt>
      <trkpt lat="42.84284" lon="0.05079">
        <ele>1942</ele>
        <time>2012-03-31T08:58:53Z</time>
      </trkpt>
      <trkpt lat="42.84281" lon="0.05079">
        <ele>1942</ele>
        <time>2012-03-31T08:58:57Z</time>
      </trkpt>
      <trkpt lat="42.84278" lon="0.05079">
        <ele>1943</ele>
        <time>2012-03-31T08:59:01Z</time>
      </trkpt>
      <trkpt lat="42.84275" lon="0.05079">
        <ele>1943</ele>
        <time>2012-03-31T08:59:05Z</time>
      </trkpt>
      <trkpt lat="42.84272" lon="0.05077">
        <ele>1943</ele>
        <time>2012-03-31T08:59:09Z</time>
      </trkpt>
      <trkpt lat="42.8427" lon="0.05076">
        <ele>1944</ele>
        <time>2012-03-31T08:59:13Z</time>
      </trkpt>
      <trkpt lat="42.84267" lon="0.05075">
        <ele>1944</ele>
        <time>2012-03-31T08:59:17Z</time>
      </trkpt>
      <trkpt lat="42.84265" lon="0.05074">
        <ele>1945</ele>
        <time>2012-03-31T08:59:21Z</time>
      </trkpt>
      <trkpt lat="42.84262" lon="0.05074">
        <ele>1945</ele>
        <time>2012-03-31T08:59:25Z</time>
      </trkpt>
      <trkpt lat="42.84259" lon="0.05074">
        <ele>1945</ele>
        <time>2012-03-31T08:59:29Z</time>
      </trkpt>
      <trkpt lat="42.84256" lon="0.05074">
        <ele>1946</ele>
        <time>2012-03-31T08:59:33Z</time>
      </trkpt>
      <trkpt lat="42.84255" lon="0.05075">
        <ele>1947</ele>
        <time>2012-03-31T08:59:40Z</time>
      </trkpt>
      <trkpt lat="42.84252" lon="0.05075">
        <ele>1947</ele>
        <time>2012-03-31T08:59:44Z</time>
      </trkpt>
      <trkpt lat="42.84249" lon="0.05076">
        <ele>1948</ele>
        <time>2012-03-31T08:59:48Z</time>
      </trkpt>
      <trkpt lat="42.84246" lon="0.05076">
        <ele>1948</ele>
        <time>2012-03-31T08:59:52Z</time>
      </trkpt>
      <trkpt lat="42.84244" lon="0.05077">
        <ele>1948</ele>
        <time>2012-03-31T08:59:56Z</time>
      </trkpt>
      <trkpt lat="42.84241" lon="0.05077">
        <ele>1949</ele>
        <time>2012-03-31T09:00:00Z</time>
      </trkpt>
      <trkpt lat="42.84238" lon="0.05077">
        <ele>1949</ele>
        <time>2012-03-31T09:00:04Z</time>
      </trkpt>
      <trkpt lat="42.84235" lon="0.05077">
        <ele>1950</ele>
        <time>2012-03-31T09:00:08Z</time>
      </trkpt>
      <trkpt lat="42.84232" lon="0.05078">
        <ele>1950</ele>
        <time>2012-03-31T09:00:12Z</time>
      </trkpt>
      <trkpt lat="42.84229" lon="0.05079">
        <ele>1950</ele>
        <time>2012-03-31T09:00:16Z</time>
      </trkpt>
      <trkpt lat="42.84226" lon="0.05079">
        <ele>1950</ele>
        <time>2012-03-31T09:00:20Z</time>
      </trkpt>
      <trkpt lat="42.84223" lon="0.0508">
        <ele>1950</ele>
        <time>2012-03-31T09:00:24Z</time>
      </trkpt>
      <trkpt lat="42.84222" lon="0.0508">
        <ele>1950</ele>
        <time>2012-03-31T09:00:27Z</time>
      </trkpt>
      <trkpt lat="42.8422" lon="0.05081">
        <ele>1950</ele>
        <time>2012-03-31T09:00:30Z</time>
      </trkpt>
      <trkpt lat="42.84219" lon="0.05082">
        <ele>1951</ele>
        <time>2012-03-31T09:00:33Z</time>
      </trkpt>
      <trkpt lat="42.84216" lon="0.05083">
        <ele>1952</ele>
        <time>2012-03-31T09:00:38Z</time>
      </trkpt>
      <trkpt lat="42.84214" lon="0.05084">
        <ele>1953</ele>
        <time>2012-03-31T09:00:41Z</time>
      </trkpt>
      <trkpt lat="42.84213" lon="0.05085">
        <ele>1953</ele>
        <time>2012-03-31T09:00:44Z</time>
      </trkpt>
      <trkpt lat="42.84212" lon="0.05085">
        <ele>1954</ele>
        <time>2012-03-31T09:00:47Z</time>
      </trkpt>
      <trkpt lat="42.84211" lon="0.05086">
        <ele>1954</ele>
        <time>2012-03-31T09:00:50Z</time>
      </trkpt>
      <trkpt lat="42.84209" lon="0.05087">
        <ele>1954</ele>
        <time>2012-03-31T09:00:53Z</time>
      </trkpt>
      <trkpt lat="42.84209" lon="0.05089">
        <ele>1956</ele>
        <time>2012-03-31T09:01:09Z</time>
      </trkpt>
      <trkpt lat="42.84208" lon="0.0509">
        <ele>1956</ele>
        <time>2012-03-31T09:01:14Z</time>
      </trkpt>
      <trkpt lat="42.84206" lon="0.05091">
        <ele>1956</ele>
        <time>2012-03-31T09:01:17Z</time>
      </trkpt>
      <trkpt lat="42.84203" lon="0.05091">
        <ele>1958</ele>
        <time>2012-03-31T09:02:12Z</time>
      </trkpt>
      <trkpt lat="42.84203" lon="0.05089">
        <ele>1960</ele>
        <time>2012-03-31T09:02:34Z</time>
      </trkpt>
      <trkpt lat="42.84202" lon="0.05087">
        <ele>1960</ele>
        <time>2012-03-31T09:02:37Z</time>
      </trkpt>
      <trkpt lat="42.84201" lon="0.05085">
        <ele>1960</ele>
        <time>2012-03-31T09:02:40Z</time>
      </trkpt>
      <trkpt lat="42.842" lon="0.05082">
        <ele>1960</ele>
        <time>2012-03-31T09:02:44Z</time>
      </trkpt>
      <trkpt lat="42.842" lon="0.05078">
        <ele>1960</ele>
        <time>2012-03-31T09:02:48Z</time>
      </trkpt>
      <trkpt lat="42.842" lon="0.05075">
        <ele>1960</ele>
        <time>2012-03-31T09:02:53Z</time>
      </trkpt>
      <trkpt lat="42.842" lon="0.05071">
        <ele>1960</ele>
        <time>2012-03-31T09:02:58Z</time>
      </trkpt>
      <trkpt lat="42.84201" lon="0.05068">
        <ele>1961</ele>
        <time>2012-03-31T09:03:03Z</time>
      </trkpt>
      <trkpt lat="42.84201" lon="0.05066">
        <ele>1961</ele>
        <time>2012-03-31T09:03:06Z</time>
      </trkpt>
      <trkpt lat="42.84201" lon="0.05064">
        <ele>1961</ele>
        <time>2012-03-31T09:03:09Z</time>
      </trkpt>
      <trkpt lat="42.842" lon="0.05065">
        <ele>1961</ele>
        <time>2012-03-31T09:03:17Z</time>
      </trkpt>
      <trkpt lat="42.84198" lon="0.05067">
        <ele>1962</ele>
        <time>2012-03-31T09:03:20Z</time>
      </trkpt>
      <trkpt lat="42.84196" lon="0.05067">
        <ele>1962</ele>
        <time>2012-03-31T09:03:26Z</time>
      </trkpt>
      <trkpt lat="42.84195" lon="0.05067">
        <ele>1963</ele>
        <time>2012-03-31T09:03:29Z</time>
      </trkpt>
      <trkpt lat="42.84193" lon="0.05067">
        <ele>1964</ele>
        <time>2012-03-31T09:03:33Z</time>
      </trkpt>
      <trkpt lat="42.84192" lon="0.05068">
        <ele>1965</ele>
        <time>2012-03-31T09:03:36Z</time>
      </trkpt>
      <trkpt lat="42.8419" lon="0.05069">
        <ele>1966</ele>
        <time>2012-03-31T09:03:41Z</time>
      </trkpt>
      <trkpt lat="42.84188" lon="0.05071">
        <ele>1966</ele>
        <time>2012-03-31T09:03:44Z</time>
      </trkpt>
      <trkpt lat="42.84187" lon="0.05071">
        <ele>1966</ele>
        <time>2012-03-31T09:03:47Z</time>
      </trkpt>
      <trkpt lat="42.84185" lon="0.05072">
        <ele>1967</ele>
        <time>2012-03-31T09:03:50Z</time>
      </trkpt>
      <trkpt lat="42.84184" lon="0.05073">
        <ele>1967</ele>
        <time>2012-03-31T09:03:53Z</time>
      </trkpt>
      <trkpt lat="42.84183" lon="0.05073">
        <ele>1967</ele>
        <time>2012-03-31T09:03:56Z</time>
      </trkpt>
      <trkpt lat="42.84181" lon="0.05074">
        <ele>1968</ele>
        <time>2012-03-31T09:03:59Z</time>
      </trkpt>
      <trkpt lat="42.84179" lon="0.05076">
        <ele>1969</ele>
        <time>2012-03-31T09:04:04Z</time>
      </trkpt>
      <trkpt lat="42.84177" lon="0.05077">
        <ele>1969</ele>
        <time>2012-03-31T09:04:07Z</time>
      </trkpt>
      <trkpt lat="42.84174" lon="0.0508">
        <ele>1970</ele>
        <time>2012-03-31T09:04:12Z</time>
      </trkpt>
      <trkpt lat="42.84173" lon="0.05082">
        <ele>1970</ele>
        <time>2012-03-31T09:04:15Z</time>
      </trkpt>
      <trkpt lat="42.8417" lon="0.05084">
        <ele>1970</ele>
        <time>2012-03-31T09:04:35Z</time>
      </trkpt>
      <trkpt lat="42.84169" lon="0.05085">
        <ele>1970</ele>
        <time>2012-03-31T09:04:39Z</time>
      </trkpt>
      <trkpt lat="42.84167" lon="0.05085">
        <ele>1971</ele>
        <time>2012-03-31T09:04:44Z</time>
      </trkpt>
      <trkpt lat="42.84168" lon="0.05084">
        <ele>1972</ele>
        <time>2012-03-31T09:04:58Z</time>
      </trkpt>
      <trkpt lat="42.84169" lon="0.05082">
        <ele>1972</ele>
        <time>2012-03-31T09:05:06Z</time>
      </trkpt>
      <trkpt lat="42.8417" lon="0.05079">
        <ele>1972</ele>
        <time>2012-03-31T09:05:11Z</time>
      </trkpt>
      <trkpt lat="42.8417" lon="0.05077">
        <ele>1973</ele>
        <time>2012-03-31T09:05:14Z</time>
      </trkpt>
      <trkpt lat="42.8417" lon="0.05074">
        <ele>1974</ele>
        <time>2012-03-31T09:05:18Z</time>
      </trkpt>
      <trkpt lat="42.84171" lon="0.05071">
        <ele>1975</ele>
        <time>2012-03-31T09:05:23Z</time>
      </trkpt>
      <trkpt lat="42.84171" lon="0.05068">
        <ele>1976</ele>
        <time>2012-03-31T09:05:28Z</time>
      </trkpt>
      <trkpt lat="42.84171" lon="0.05066">
        <ele>1977</ele>
        <time>2012-03-31T09:05:31Z</time>
      </trkpt>
      <trkpt lat="42.84171" lon="0.05064">
        <ele>1977</ele>
        <time>2012-03-31T09:05:34Z</time>
      </trkpt>
      <trkpt lat="42.84172" lon="0.05062">
        <ele>1978</ele>
        <time>2012-03-31T09:05:37Z</time>
      </trkpt>
      <trkpt lat="42.84172" lon="0.0506">
        <ele>1978</ele>
        <time>2012-03-31T09:05:40Z</time>
      </trkpt>
      <trkpt lat="42.84172" lon="0.05058">
        <ele>1978</ele>
        <time>2012-03-31T09:05:43Z</time>
      </trkpt>
      <trkpt lat="42.84172" lon="0.05055">
        <ele>1978</ele>
        <time>2012-03-31T09:05:47Z</time>
      </trkpt>
      <trkpt lat="42.84173" lon="0.05053">
        <ele>1979</ele>
        <time>2012-03-31T09:05:50Z</time>
      </trkpt>
      <trkpt lat="42.84174" lon="0.0505">
        <ele>1979</ele>
        <time>2012-03-31T09:05:55Z</time>
      </trkpt>
      <trkpt lat="42.84174" lon="0.05048">
        <ele>1979</ele>
        <time>2012-03-31T09:05:58Z</time>
      </trkpt>
      <trkpt lat="42.84174" lon="0.05046">
        <ele>1979</ele>
        <time>2012-03-31T09:06:12Z</time>
      </trkpt>
      <trkpt lat="42.84174" lon="0.05044">
        <ele>1979</ele>
        <time>2012-03-31T09:06:15Z</time>
      </trkpt>
      <trkpt lat="42.84175" lon="0.05042">
        <ele>1979</ele>
        <time>2012-03-31T09:06:18Z</time>
      </trkpt>
      <trkpt lat="42.84176" lon="0.0504">
        <ele>1980</ele>
        <time>2012-03-31T09:06:21Z</time>
      </trkpt>
      <trkpt lat="42.84177" lon="0.05038">
        <ele>1981</ele>
        <time>2012-03-31T09:06:24Z</time>
      </trkpt>
      <trkpt lat="42.84178" lon="0.05037">
        <ele>1981</ele>
        <time>2012-03-31T09:06:27Z</time>
      </trkpt>
      <trkpt lat="42.84179" lon="0.05034">
        <ele>1983</ele>
        <time>2012-03-31T09:06:32Z</time>
      </trkpt>
      <trkpt lat="42.8418" lon="0.05032">
        <ele>1983</ele>
        <time>2012-03-31T09:06:35Z</time>
      </trkpt>
      <trkpt lat="42.8418" lon="0.0503">
        <ele>1984</ele>
        <time>2012-03-31T09:06:38Z</time>
      </trkpt>
      <trkpt lat="42.84181" lon="0.05028">
        <ele>1984</ele>
        <time>2012-03-31T09:06:41Z</time>
      </trkpt>
      <trkpt lat="42.84182" lon="0.05026">
        <ele>1984</ele>
        <time>2012-03-31T09:06:44Z</time>
      </trkpt>
      <trkpt lat="42.84183" lon="0.05025">
        <ele>1984</ele>
        <time>2012-03-31T09:06:47Z</time>
      </trkpt>
      <trkpt lat="42.84184" lon="0.05023">
        <ele>1985</ele>
        <time>2012-03-31T09:06:50Z</time>
      </trkpt>
      <trkpt lat="42.84186" lon="0.0502">
        <ele>1985</ele>
        <time>2012-03-31T09:06:55Z</time>
      </trkpt>
      <trkpt lat="42.84187" lon="0.05019">
        <ele>1986</ele>
        <time>2012-03-31T09:06:58Z</time>
      </trkpt>
      <trkpt lat="42.84188" lon="0.05016">
        <ele>1986</ele>
        <time>2012-03-31T09:07:02Z</time>
      </trkpt>
      <trkpt lat="42.8419" lon="0.05015">
        <ele>1986</ele>
        <time>2012-03-31T09:07:05Z</time>
      </trkpt>
      <trkpt lat="42.8419" lon="0.05013">
        <ele>1987</ele>
        <time>2012-03-31T09:07:16Z</time>
      </trkpt>
      <trkpt lat="42.84189" lon="0.05012">
        <ele>1989</ele>
        <time>2012-03-31T09:07:30Z</time>
      </trkpt>
      <trkpt lat="42.84187" lon="0.05012">
        <ele>1989</ele>
        <time>2012-03-31T09:07:33Z</time>
      </trkpt>
      <trkpt lat="42.84185" lon="0.05013">
        <ele>1989</ele>
        <time>2012-03-31T09:07:41Z</time>
      </trkpt>
      <trkpt lat="42.84184" lon="0.05014">
        <ele>1989</ele>
        <time>2012-03-31T09:07:45Z</time>
      </trkpt>
      <trkpt lat="42.84182" lon="0.05014">
        <ele>1989</ele>
        <time>2012-03-31T09:07:48Z</time>
      </trkpt>
      <trkpt lat="42.8418" lon="0.05015">
        <ele>1989</ele>
        <time>2012-03-31T09:07:52Z</time>
      </trkpt>
      <trkpt lat="42.84177" lon="0.05017">
        <ele>1990</ele>
        <time>2012-03-31T09:07:56Z</time>
      </trkpt>
      <trkpt lat="42.84174" lon="0.05019">
        <ele>1990</ele>
        <time>2012-03-31T09:08:01Z</time>
      </trkpt>
      <trkpt lat="42.84173" lon="0.0502">
        <ele>1991</ele>
        <time>2012-03-31T09:08:04Z</time>
      </trkpt>
      <trkpt lat="42.84171" lon="0.05022">
        <ele>1991</ele>
        <time>2012-03-31T09:08:07Z</time>
      </trkpt>
      <trkpt lat="42.8417" lon="0.05023">
        <ele>1992</ele>
        <time>2012-03-31T09:08:11Z</time>
      </trkpt>
      <trkpt lat="42.84167" lon="0.05026">
        <ele>1993</ele>
        <time>2012-03-31T09:08:16Z</time>
      </trkpt>
      <trkpt lat="42.84166" lon="0.05028">
        <ele>1993</ele>
        <time>2012-03-31T09:08:19Z</time>
      </trkpt>
      <trkpt lat="42.84165" lon="0.05029">
        <ele>1993</ele>
        <time>2012-03-31T09:08:22Z</time>
      </trkpt>
      <trkpt lat="42.84165" lon="0.05027">
        <ele>1994</ele>
        <time>2012-03-31T09:08:46Z</time>
      </trkpt>
      <trkpt lat="42.84165" lon="0.05024">
        <ele>1994</ele>
        <time>2012-03-31T09:08:50Z</time>
      </trkpt>
      <trkpt lat="42.84166" lon="0.05022">
        <ele>1994</ele>
        <time>2012-03-31T09:08:53Z</time>
      </trkpt>
      <trkpt lat="42.84167" lon="0.05018">
        <ele>1995</ele>
        <time>2012-03-31T09:08:57Z</time>
      </trkpt>
      <trkpt lat="42.84167" lon="0.05017">
        <ele>1996</ele>
        <time>2012-03-31T09:09:00Z</time>
      </trkpt>
      <trkpt lat="42.84167" lon="0.05015">
        <ele>1996</ele>
        <time>2012-03-31T09:09:03Z</time>
      </trkpt>
      <trkpt lat="42.84168" lon="0.05013">
        <ele>1996</ele>
        <time>2012-03-31T09:09:06Z</time>
      </trkpt>
      <trkpt lat="42.84168" lon="0.0501">
        <ele>1996</ele>
        <time>2012-03-31T09:09:11Z</time>
      </trkpt>
      <trkpt lat="42.84168" lon="0.05008">
        <ele>1997</ele>
        <time>2012-03-31T09:09:15Z</time>
      </trkpt>
      <trkpt lat="42.84169" lon="0.05005">
        <ele>1997</ele>
        <time>2012-03-31T09:09:19Z</time>
      </trkpt>
      <trkpt lat="42.8417" lon="0.05003">
        <ele>1997</ele>
        <time>2012-03-31T09:09:22Z</time>
      </trkpt>
      <trkpt lat="42.84171" lon="0.05001">
        <ele>1998</ele>
        <time>2012-03-31T09:09:26Z</time>
      </trkpt>
      <trkpt lat="42.84172" lon="0.04999">
        <ele>1998</ele>
        <time>2012-03-31T09:09:29Z</time>
      </trkpt>
      <trkpt lat="42.84174" lon="0.04996">
        <ele>1998</ele>
        <time>2012-03-31T09:09:33Z</time>
      </trkpt>
      <trkpt lat="42.84176" lon="0.04992">
        <ele>1999</ele>
        <time>2012-03-31T09:09:38Z</time>
      </trkpt>
      <trkpt lat="42.84177" lon="0.04991">
        <ele>1999</ele>
        <time>2012-03-31T09:09:42Z</time>
      </trkpt>
      <trkpt lat="42.84178" lon="0.0499">
        <ele>2000</ele>
        <time>2012-03-31T09:09:45Z</time>
      </trkpt>
      <trkpt lat="42.84178" lon="0.04988">
        <ele>2001</ele>
        <time>2012-03-31T09:09:48Z</time>
      </trkpt>
      <trkpt lat="42.84177" lon="0.04989">
        <ele>2001</ele>
        <time>2012-03-31T09:10:10Z</time>
      </trkpt>
      <trkpt lat="42.84176" lon="0.0499">
        <ele>2001</ele>
        <time>2012-03-31T09:10:13Z</time>
      </trkpt>
      <trkpt lat="42.84173" lon="0.04991">
        <ele>2001</ele>
        <time>2012-03-31T09:10:17Z</time>
      </trkpt>
      <trkpt lat="42.84172" lon="0.04992">
        <ele>2001</ele>
        <time>2012-03-31T09:10:20Z</time>
      </trkpt>
      <trkpt lat="42.84169" lon="0.04993">
        <ele>2002</ele>
        <time>2012-03-31T09:10:24Z</time>
      </trkpt>
      <trkpt lat="42.84167" lon="0.04995">
        <ele>2002</ele>
        <time>2012-03-31T09:10:28Z</time>
      </trkpt>
      <trkpt lat="42.84164" lon="0.04998">
        <ele>2003</ele>
        <time>2012-03-31T09:10:32Z</time>
      </trkpt>
      <trkpt lat="42.84161" lon="0.05">
        <ele>2003</ele>
        <time>2012-03-31T09:10:37Z</time>
      </trkpt>
      <trkpt lat="42.84158" lon="0.05003">
        <ele>2004</ele>
        <time>2012-03-31T09:10:41Z</time>
      </trkpt>
      <trkpt lat="42.84156" lon="0.05005">
        <ele>2004</ele>
        <time>2012-03-31T09:10:45Z</time>
      </trkpt>
      <trkpt lat="42.84153" lon="0.05007">
        <ele>2005</ele>
        <time>2012-03-31T09:10:50Z</time>
      </trkpt>
      <trkpt lat="42.84151" lon="0.05009">
        <ele>2005</ele>
        <time>2012-03-31T09:10:55Z</time>
      </trkpt>
      <trkpt lat="42.84149" lon="0.0501">
        <ele>2006</ele>
        <time>2012-03-31T09:10:58Z</time>
      </trkpt>
      <trkpt lat="42.84146" lon="0.05011">
        <ele>2006</ele>
        <time>2012-03-31T09:11:01Z</time>
      </trkpt>
      <trkpt lat="42.84145" lon="0.05012">
        <ele>2006</ele>
        <time>2012-03-31T09:11:04Z</time>
      </trkpt>
      <trkpt lat="42.84144" lon="0.05013">
        <ele>2006</ele>
        <time>2012-03-31T09:11:07Z</time>
      </trkpt>
      <trkpt lat="42.84142" lon="0.05014">
        <ele>2007</ele>
        <time>2012-03-31T09:11:10Z</time>
      </trkpt>
      <trkpt lat="42.84141" lon="0.05015">
        <ele>2007</ele>
        <time>2012-03-31T09:11:13Z</time>
      </trkpt>
      <trkpt lat="42.8414" lon="0.05015">
        <ele>2008</ele>
        <time>2012-03-31T09:11:16Z</time>
      </trkpt>
      <trkpt lat="42.84138" lon="0.05015">
        <ele>2008</ele>
        <time>2012-03-31T09:11:20Z</time>
      </trkpt>
      <trkpt lat="42.84138" lon="0.05013">
        <ele>2008</ele>
        <time>2012-03-31T09:11:25Z</time>
      </trkpt>
      <trkpt lat="42.84137" lon="0.05009">
        <ele>2010</ele>
        <time>2012-03-31T09:11:46Z</time>
      </trkpt>
      <trkpt lat="42.84136" lon="0.05007">
        <ele>2010</ele>
        <time>2012-03-31T09:11:49Z</time>
      </trkpt>
      <trkpt lat="42.84135" lon="0.05003">
        <ele>2010</ele>
        <time>2012-03-31T09:11:54Z</time>
      </trkpt>
      <trkpt lat="42.84135" lon="0.05">
        <ele>2010</ele>
        <time>2012-03-31T09:11:58Z</time>
      </trkpt>
      <trkpt lat="42.84135" lon="0.04998">
        <ele>2010</ele>
        <time>2012-03-31T09:12:01Z</time>
      </trkpt>
      <trkpt lat="42.84134" lon="0.04996">
        <ele>2011</ele>
        <time>2012-03-31T09:12:04Z</time>
      </trkpt>
      <trkpt lat="42.84133" lon="0.04994">
        <ele>2012</ele>
        <time>2012-03-31T09:12:07Z</time>
      </trkpt>
      <trkpt lat="42.84134" lon="0.04995">
        <ele>2013</ele>
        <time>2012-03-31T09:12:38Z</time>
      </trkpt>
      <trkpt lat="42.84133" lon="0.04995">
        <ele>2013</ele>
        <time>2012-03-31T09:12:43Z</time>
      </trkpt>
      <trkpt lat="42.84132" lon="0.04996">
        <ele>2013</ele>
        <time>2012-03-31T09:12:46Z</time>
      </trkpt>
      <trkpt lat="42.8413" lon="0.04997">
        <ele>2013</ele>
        <time>2012-03-31T09:12:49Z</time>
      </trkpt>
      <trkpt lat="42.84129" lon="0.04997">
        <ele>2013</ele>
        <time>2012-03-31T09:12:52Z</time>
      </trkpt>
      <trkpt lat="42.84126" lon="0.04997">
        <ele>2013</ele>
        <time>2012-03-31T09:12:57Z</time>
      </trkpt>
      <trkpt lat="42.84124" lon="0.04996">
        <ele>2013</ele>
        <time>2012-03-31T09:13:00Z</time>
      </trkpt>
      <trkpt lat="42.84122" lon="0.04996">
        <ele>2014</ele>
        <time>2012-03-31T09:13:04Z</time>
      </trkpt>
      <trkpt lat="42.84119" lon="0.04997">
        <ele>2014</ele>
        <time>2012-03-31T09:13:10Z</time>
      </trkpt>
      <trkpt lat="42.84116" lon="0.04997">
        <ele>2015</ele>
        <time>2012-03-31T09:13:14Z</time>
      </trkpt>
      <trkpt lat="42.84114" lon="0.04998">
        <ele>2015</ele>
        <time>2012-03-31T09:13:18Z</time>
      </trkpt>
      <trkpt lat="42.84112" lon="0.04998">
        <ele>2015</ele>
        <time>2012-03-31T09:13:21Z</time>
      </trkpt>
      <trkpt lat="42.84111" lon="0.05">
        <ele>2016</ele>
        <time>2012-03-31T09:13:24Z</time>
      </trkpt>
      <trkpt lat="42.84108" lon="0.05001">
        <ele>2016</ele>
        <time>2012-03-31T09:13:28Z</time>
      </trkpt>
      <trkpt lat="42.84105" lon="0.05003">
        <ele>2017</ele>
        <time>2012-03-31T09:13:33Z</time>
      </trkpt>
      <trkpt lat="42.84103" lon="0.05003">
        <ele>2018</ele>
        <time>2012-03-31T09:13:38Z</time>
      </trkpt>
      <trkpt lat="42.841" lon="0.05003">
        <ele>2019</ele>
        <time>2012-03-31T09:13:42Z</time>
      </trkpt>
      <trkpt lat="42.84098" lon="0.05003">
        <ele>2020</ele>
        <time>2012-03-31T09:13:47Z</time>
      </trkpt>
      <trkpt lat="42.84096" lon="0.05004">
        <ele>2021</ele>
        <time>2012-03-31T09:14:08Z</time>
      </trkpt>
      <trkpt lat="42.84094" lon="0.05004">
        <ele>2021</ele>
        <time>2012-03-31T09:14:12Z</time>
      </trkpt>
      <trkpt lat="42.84091" lon="0.05003">
        <ele>2021</ele>
        <time>2012-03-31T09:14:16Z</time>
      </trkpt>
      <trkpt lat="42.84088" lon="0.05002">
        <ele>2021</ele>
        <time>2012-03-31T09:14:20Z</time>
      </trkpt>
      <trkpt lat="42.84085" lon="0.05001">
        <ele>2021</ele>
        <time>2012-03-31T09:14:24Z</time>
      </trkpt>
      <trkpt lat="42.84082" lon="0.05001">
        <ele>2021</ele>
        <time>2012-03-31T09:14:28Z</time>
      </trkpt>
      <trkpt lat="42.8408" lon="0.04999">
        <ele>2021</ele>
        <time>2012-03-31T09:14:33Z</time>
      </trkpt>
      <trkpt lat="42.84077" lon="0.04999">
        <ele>2021</ele>
        <time>2012-03-31T09:14:37Z</time>
      </trkpt>
      <trkpt lat="42.84075" lon="0.04998">
        <ele>2021</ele>
        <time>2012-03-31T09:14:41Z</time>
      </trkpt>
      <trkpt lat="42.84072" lon="0.04998">
        <ele>2021</ele>
        <time>2012-03-31T09:14:45Z</time>
      </trkpt>
      <trkpt lat="42.8407" lon="0.05">
        <ele>2021</ele>
        <time>2012-03-31T09:14:49Z</time>
      </trkpt>
      <trkpt lat="42.84067" lon="0.05">
        <ele>2022</ele>
        <time>2012-03-31T09:14:53Z</time>
      </trkpt>
      <trkpt lat="42.84064" lon="0.05001">
        <ele>2023</ele>
        <time>2012-03-31T09:14:57Z</time>
      </trkpt>
      <trkpt lat="42.84062" lon="0.05003">
        <ele>2023</ele>
        <time>2012-03-31T09:15:01Z</time>
      </trkpt>
      <trkpt lat="42.84059" lon="0.05005">
        <ele>2024</ele>
        <time>2012-03-31T09:15:06Z</time>
      </trkpt>
      <trkpt lat="42.84058" lon="0.05006">
        <ele>2025</ele>
        <time>2012-03-31T09:15:09Z</time>
      </trkpt>
      <trkpt lat="42.84055" lon="0.05008">
        <ele>2027</ele>
        <time>2012-03-31T09:15:14Z</time>
      </trkpt>
      <trkpt lat="42.84053" lon="0.05009">
        <ele>2027</ele>
        <time>2012-03-31T09:15:17Z</time>
      </trkpt>
      <trkpt lat="42.84052" lon="0.0501">
        <ele>2028</ele>
        <time>2012-03-31T09:15:20Z</time>
      </trkpt>
      <trkpt lat="42.84053" lon="0.05009">
        <ele>2029</ele>
        <time>2012-03-31T09:15:34Z</time>
      </trkpt>
      <trkpt lat="42.84054" lon="0.05009">
        <ele>2029</ele>
        <time>2012-03-31T09:15:46Z</time>
      </trkpt>
      <trkpt lat="42.84053" lon="0.0501">
        <ele>2029</ele>
        <time>2012-03-31T09:15:52Z</time>
      </trkpt>
      <trkpt lat="42.84051" lon="0.05011">
        <ele>2029</ele>
        <time>2012-03-31T09:15:55Z</time>
      </trkpt>
      <trkpt lat="42.84049" lon="0.05012">
        <ele>2029</ele>
        <time>2012-03-31T09:15:59Z</time>
      </trkpt>
      <trkpt lat="42.84046" lon="0.05012">
        <ele>2030</ele>
        <time>2012-03-31T09:16:04Z</time>
      </trkpt>
      <trkpt lat="42.84044" lon="0.05011">
        <ele>2030</ele>
        <time>2012-03-31T09:16:08Z</time>
      </trkpt>
      <trkpt lat="42.84041" lon="0.05009">
        <ele>2031</ele>
        <time>2012-03-31T09:16:13Z</time>
      </trkpt>
      <trkpt lat="42.8404" lon="0.05008">
        <ele>2031</ele>
        <time>2012-03-31T09:16:16Z</time>
      </trkpt>
      <trkpt lat="42.84038" lon="0.05004">
        <ele>2033</ele>
        <time>2012-03-31T09:16:20Z</time>
      </trkpt>
      <trkpt lat="42.84036" lon="0.05001">
        <ele>2034</ele>
        <time>2012-03-31T09:16:24Z</time>
      </trkpt>
      <trkpt lat="42.84034" lon="0.04998">
        <ele>2035</ele>
        <time>2012-03-31T09:16:28Z</time>
      </trkpt>
      <trkpt lat="42.84033" lon="0.04996">
        <ele>2035</ele>
        <time>2012-03-31T09:16:31Z</time>
      </trkpt>
      <trkpt lat="42.84032" lon="0.04993">
        <ele>2035</ele>
        <time>2012-03-31T09:16:35Z</time>
      </trkpt>
      <trkpt lat="42.8403" lon="0.04991">
        <ele>2035</ele>
        <time>2012-03-31T09:16:38Z</time>
      </trkpt>
      <trkpt lat="42.84029" lon="0.04989">
        <ele>2036</ele>
        <time>2012-03-31T09:16:41Z</time>
      </trkpt>
      <trkpt lat="42.84028" lon="0.04986">
        <ele>2037</ele>
        <time>2012-03-31T09:16:58Z</time>
      </trkpt>
      <trkpt lat="42.84027" lon="0.04984">
        <ele>2038</ele>
        <time>2012-03-31T09:17:01Z</time>
      </trkpt>
      <trkpt lat="42.84026" lon="0.04981">
        <ele>2038</ele>
        <time>2012-03-31T09:17:05Z</time>
      </trkpt>
      <trkpt lat="42.84025" lon="0.04978">
        <ele>2039</ele>
        <time>2012-03-31T09:17:09Z</time>
      </trkpt>
      <trkpt lat="42.84024" lon="0.04975">
        <ele>2040</ele>
        <time>2012-03-31T09:17:13Z</time>
      </trkpt>
      <trkpt lat="42.84022" lon="0.04971">
        <ele>2041</ele>
        <time>2012-03-31T09:17:17Z</time>
      </trkpt>
      <trkpt lat="42.8402" lon="0.04967">
        <ele>2041</ele>
        <time>2012-03-31T09:17:21Z</time>
      </trkpt>
      <trkpt lat="42.84018" lon="0.04964">
        <ele>2042</ele>
        <time>2012-03-31T09:17:25Z</time>
      </trkpt>
      <trkpt lat="42.84016" lon="0.04961">
        <ele>2043</ele>
        <time>2012-03-31T09:17:29Z</time>
      </trkpt>
      <trkpt lat="42.84014" lon="0.04958">
        <ele>2043</ele>
        <time>2012-03-31T09:17:33Z</time>
      </trkpt>
      <trkpt lat="42.84013" lon="0.04956">
        <ele>2043</ele>
        <time>2012-03-31T09:17:36Z</time>
      </trkpt>
      <trkpt lat="42.84011" lon="0.04953">
        <ele>2043</ele>
        <time>2012-03-31T09:17:40Z</time>
      </trkpt>
      <trkpt lat="42.84009" lon="0.04951">
        <ele>2043</ele>
        <time>2012-03-31T09:17:43Z</time>
      </trkpt>
      <trkpt lat="42.84007" lon="0.04949">
        <ele>2043</ele>
        <time>2012-03-31T09:17:47Z</time>
      </trkpt>
      <trkpt lat="42.84004" lon="0.04947">
        <ele>2044</ele>
        <time>2012-03-31T09:17:51Z</time>
      </trkpt>
      <trkpt lat="42.84001" lon="0.04945">
        <ele>2044</ele>
        <time>2012-03-31T09:17:55Z</time>
      </trkpt>
      <trkpt lat="42.84" lon="0.04944">
        <ele>2044</ele>
        <time>2012-03-31T09:17:58Z</time>
      </trkpt>
      <trkpt lat="42.83998" lon="0.04943">
        <ele>2044</ele>
        <time>2012-03-31T09:18:01Z</time>
      </trkpt>
      <trkpt lat="42.83996" lon="0.04941">
        <ele>2045</ele>
        <time>2012-03-31T09:18:06Z</time>
      </trkpt>
      <trkpt lat="42.83993" lon="0.04938">
        <ele>2046</ele>
        <time>2012-03-31T09:18:11Z</time>
      </trkpt>
      <trkpt lat="42.8399" lon="0.04937">
        <ele>2047</ele>
        <time>2012-03-31T09:18:15Z</time>
      </trkpt>
      <trkpt lat="42.83989" lon="0.04937">
        <ele>2047</ele>
        <time>2012-03-31T09:18:29Z</time>
      </trkpt>
      <trkpt lat="42.83987" lon="0.04935">
        <ele>2047</ele>
        <time>2012-03-31T09:18:34Z</time>
      </trkpt>
      <trkpt lat="42.83984" lon="0.04934">
        <ele>2048</ele>
        <time>2012-03-31T09:18:38Z</time>
      </trkpt>
      <trkpt lat="42.83981" lon="0.04933">
        <ele>2048</ele>
        <time>2012-03-31T09:18:42Z</time>
      </trkpt>
      <trkpt lat="42.83977" lon="0.04932">
        <ele>2048</ele>
        <time>2012-03-31T09:18:46Z</time>
      </trkpt>
      <trkpt lat="42.83974" lon="0.04931">
        <ele>2048</ele>
        <time>2012-03-31T09:18:50Z</time>
      </trkpt>
      <trkpt lat="42.83971" lon="0.0493">
        <ele>2048</ele>
        <time>2012-03-31T09:18:54Z</time>
      </trkpt>
      <trkpt lat="42.83967" lon="0.04929">
        <ele>2048</ele>
        <time>2012-03-31T09:18:58Z</time>
      </trkpt>
      <trkpt lat="42.83964" lon="0.04928">
        <ele>2048</ele>
        <time>2012-03-31T09:19:02Z</time>
      </trkpt>
      <trkpt lat="42.83961" lon="0.04928">
        <ele>2048</ele>
        <time>2012-03-31T09:19:06Z</time>
      </trkpt>
      <trkpt lat="42.8396" lon="0.04928">
        <ele>2048</ele>
        <time>2012-03-31T09:19:17Z</time>
      </trkpt>
      <trkpt lat="42.83959" lon="0.04929">
        <ele>2048</ele>
        <time>2012-03-31T09:19:53Z</time>
      </trkpt>
      <trkpt lat="42.83958" lon="0.04929">
        <ele>2048</ele>
        <time>2012-03-31T09:19:57Z</time>
      </trkpt>
      <trkpt lat="42.83956" lon="0.0493">
        <ele>2048</ele>
        <time>2012-03-31T09:20:00Z</time>
      </trkpt>
      <trkpt lat="42.83956" lon="0.04929">
        <ele>2046</ele>
        <time>2012-03-31T09:20:08Z</time>
      </trkpt>
      <trkpt lat="42.83963" lon="0.04928">
        <ele>2044</ele>
        <time>2012-03-31T09:20:12Z</time>
      </trkpt>
      <trkpt lat="42.83966" lon="0.04926">
        <ele>2044</ele>
        <time>2012-03-31T09:20:15Z</time>
      </trkpt>
      <trkpt lat="42.83961" lon="0.04926">
        <ele>2044</ele>
        <time>2012-03-31T09:20:18Z</time>
      </trkpt>
      <trkpt lat="42.83957" lon="0.04925">
        <ele>2040</ele>
        <time>2012-03-31T09:20:22Z</time>
      </trkpt>
      <trkpt lat="42.83954" lon="0.04927">
        <ele>2039</ele>
        <time>2012-03-31T09:20:28Z</time>
      </trkpt>
      <trkpt lat="42.83955" lon="0.04928">
        <ele>2037</ele>
        <time>2012-03-31T09:20:31Z</time>
      </trkpt>
      <trkpt lat="42.83959" lon="0.0493">
        <ele>2035</ele>
        <time>2012-03-31T09:20:36Z</time>
      </trkpt>
      <trkpt lat="42.83963" lon="0.04933">
        <ele>2035</ele>
        <time>2012-03-31T09:20:41Z</time>
      </trkpt>
      <trkpt lat="42.83967" lon="0.04933">
        <ele>2035</ele>
        <time>2012-03-31T09:20:45Z</time>
      </trkpt>
      <trkpt lat="42.83968" lon="0.04932">
        <ele>2035</ele>
        <time>2012-03-31T09:20:48Z</time>
      </trkpt>
      <trkpt lat="42.83967" lon="0.04931">
        <ele>2035</ele>
        <time>2012-03-31T09:20:53Z</time>
      </trkpt>
      <trkpt lat="42.83966" lon="0.04931">
        <ele>2035</ele>
        <time>2012-03-31T09:20:57Z</time>
      </trkpt>
      <trkpt lat="42.83965" lon="0.0493">
        <ele>2035</ele>
        <time>2012-03-31T09:21:00Z</time>
      </trkpt>
      <trkpt lat="42.83966" lon="0.04931">
        <ele>2034</ele>
        <time>2012-03-31T09:21:05Z</time>
      </trkpt>
      <trkpt lat="42.83969" lon="0.0493">
        <ele>2031</ele>
        <time>2012-03-31T09:21:09Z</time>
      </trkpt>
      <trkpt lat="42.83971" lon="0.04929">
        <ele>2030</ele>
        <time>2012-03-31T09:21:12Z</time>
      </trkpt>
      <trkpt lat="42.83967" lon="0.04928">
        <ele>2030</ele>
        <time>2012-03-31T09:21:15Z</time>
      </trkpt>
      <trkpt lat="42.83963" lon="0.04928">
        <ele>2030</ele>
        <time>2012-03-31T09:21:18Z</time>
      </trkpt>
      <trkpt lat="42.83964" lon="0.04929">
        <ele>2029</ele>
        <time>2012-03-31T09:21:23Z</time>
      </trkpt>
      <trkpt lat="42.83969" lon="0.04931">
        <ele>2023</ele>
        <time>2012-03-31T09:21:29Z</time>
      </trkpt>
      <trkpt lat="42.83974" lon="0.04933">
        <ele>2022</ele>
        <time>2012-03-31T09:21:33Z</time>
      </trkpt>
      <trkpt lat="42.83977" lon="0.04933">
        <ele>2022</ele>
        <time>2012-03-31T09:21:36Z</time>
      </trkpt>
      <trkpt lat="42.83979" lon="0.04933">
        <ele>2022</ele>
        <time>2012-03-31T09:21:42Z</time>
      </trkpt>
      <trkpt lat="42.83975" lon="0.04932">
        <ele>2022</ele>
        <time>2012-03-31T09:21:47Z</time>
      </trkpt>
      <trkpt lat="42.83971" lon="0.0493">
        <ele>2023</ele>
        <time>2012-03-31T09:21:52Z</time>
      </trkpt>
      <trkpt lat="42.83966" lon="0.0493">
        <ele>2027</ele>
        <time>2012-03-31T09:21:56Z</time>
      </trkpt>
      <trkpt lat="42.83965" lon="0.04928">
        <ele>2030</ele>
        <time>2012-03-31T09:22:00Z</time>
      </trkpt>
      <trkpt lat="42.83963" lon="0.04927">
        <ele>2037</ele>
        <time>2012-03-31T09:22:06Z</time>
      </trkpt>
      <trkpt lat="42.83961" lon="0.04927">
        <ele>2042</ele>
        <time>2012-03-31T09:22:13Z</time>
      </trkpt>
      <trkpt lat="42.8396" lon="0.04926">
        <ele>2044</ele>
        <time>2012-03-31T09:22:18Z</time>
      </trkpt>
      <trkpt lat="42.83958" lon="0.04927">
        <ele>2045</ele>
        <time>2012-03-31T09:22:25Z</time>
      </trkpt>
      <trkpt lat="42.83956" lon="0.04927">
        <ele>2046</ele>
        <time>2012-03-31T09:22:29Z</time>
      </trkpt>
      <trkpt lat="42.83954" lon="0.04927">
        <ele>2047</ele>
        <time>2012-03-31T09:22:35Z</time>
      </trkpt>
      <trkpt lat="42.83952" lon="0.04928">
        <ele>2047</ele>
        <time>2012-03-31T09:22:41Z</time>
      </trkpt>
      <trkpt lat="42.83949" lon="0.04928">
        <ele>2047</ele>
        <time>2012-03-31T09:22:45Z</time>
      </trkpt>
      <trkpt lat="42.83946" lon="0.04928">
        <ele>2047</ele>
        <time>2012-03-31T09:22:48Z</time>
      </trkpt>
      <trkpt lat="42.83943" lon="0.04929">
        <ele>2047</ele>
        <time>2012-03-31T09:22:51Z</time>
      </trkpt>
      <trkpt lat="42.83939" lon="0.04928">
        <ele>2047</ele>
        <time>2012-03-31T09:22:54Z</time>
      </trkpt>
      <trkpt lat="42.83935" lon="0.04927">
        <ele>2047</ele>
        <time>2012-03-31T09:22:58Z</time>
      </trkpt>
      <trkpt lat="42.83932" lon="0.04928">
        <ele>2047</ele>
        <time>2012-03-31T09:23:02Z</time>
      </trkpt>
      <trkpt lat="42.83929" lon="0.04928">
        <ele>2047</ele>
        <time>2012-03-31T09:23:06Z</time>
      </trkpt>
      <trkpt lat="42.83926" lon="0.04928">
        <ele>2047</ele>
        <time>2012-03-31T09:23:09Z</time>
      </trkpt>
      <trkpt lat="42.83923" lon="0.04928">
        <ele>2047</ele>
        <time>2012-03-31T09:23:13Z</time>
      </trkpt>
      <trkpt lat="42.83921" lon="0.04928">
        <ele>2048</ele>
        <time>2012-03-31T09:23:18Z</time>
      </trkpt>
      <trkpt lat="42.8392" lon="0.04929">
        <ele>2049</ele>
        <time>2012-03-31T09:23:21Z</time>
      </trkpt>
      <trkpt lat="42.83918" lon="0.04929">
        <ele>2050</ele>
        <time>2012-03-31T09:23:24Z</time>
      </trkpt>
      <trkpt lat="42.83917" lon="0.04929">
        <ele>2051</ele>
        <time>2012-03-31T09:23:27Z</time>
      </trkpt>
      <trkpt lat="42.83916" lon="0.0493">
        <ele>2051</ele>
        <time>2012-03-31T09:23:30Z</time>
      </trkpt>
      <trkpt lat="42.83913" lon="0.0493">
        <ele>2052</ele>
        <time>2012-03-31T09:23:34Z</time>
      </trkpt>
      <trkpt lat="42.83911" lon="0.04931">
        <ele>2052</ele>
        <time>2012-03-31T09:23:38Z</time>
      </trkpt>
      <trkpt lat="42.8391" lon="0.04931">
        <ele>2052</ele>
        <time>2012-03-31T09:23:42Z</time>
      </trkpt>
      <trkpt lat="42.83908" lon="0.04931">
        <ele>2053</ele>
        <time>2012-03-31T09:23:45Z</time>
      </trkpt>
      <trkpt lat="42.83907" lon="0.04932">
        <ele>2054</ele>
        <time>2012-03-31T09:23:48Z</time>
      </trkpt>
      <trkpt lat="42.83904" lon="0.04932">
        <ele>2054</ele>
        <time>2012-03-31T09:23:54Z</time>
      </trkpt>
      <trkpt lat="42.83902" lon="0.04933">
        <ele>2055</ele>
        <time>2012-03-31T09:23:57Z</time>
      </trkpt>
      <trkpt lat="42.839" lon="0.04933">
        <ele>2056</ele>
        <time>2012-03-31T09:24:01Z</time>
      </trkpt>
      <trkpt lat="42.83899" lon="0.04933">
        <ele>2056</ele>
        <time>2012-03-31T09:24:04Z</time>
      </trkpt>
      <trkpt lat="42.83895" lon="0.04935">
        <ele>2057</ele>
        <time>2012-03-31T09:24:10Z</time>
      </trkpt>
      <trkpt lat="42.83892" lon="0.04938">
        <ele>2058</ele>
        <time>2012-03-31T09:24:16Z</time>
      </trkpt>
      <trkpt lat="42.8389" lon="0.0494">
        <ele>2059</ele>
        <time>2012-03-31T09:24:23Z</time>
      </trkpt>
      <trkpt lat="42.83887" lon="0.04941">
        <ele>2060</ele>
        <time>2012-03-31T09:24:29Z</time>
      </trkpt>
      <trkpt lat="42.83884" lon="0.04943">
        <ele>2060</ele>
        <time>2012-03-31T09:24:33Z</time>
      </trkpt>
      <trkpt lat="42.83881" lon="0.04945">
        <ele>2060</ele>
        <time>2012-03-31T09:24:39Z</time>
      </trkpt>
      <trkpt lat="42.8388" lon="0.04945">
        <ele>2060</ele>
        <time>2012-03-31T09:24:42Z</time>
      </trkpt>
      <trkpt lat="42.83879" lon="0.04945">
        <ele>2060</ele>
        <time>2012-03-31T09:24:48Z</time>
      </trkpt>
      <trkpt lat="42.83878" lon="0.04946">
        <ele>2061</ele>
        <time>2012-03-31T09:24:52Z</time>
      </trkpt>
      <trkpt lat="42.83875" lon="0.04946">
        <ele>2062</ele>
        <time>2012-03-31T09:24:57Z</time>
      </trkpt>
      <trkpt lat="42.83872" lon="0.04948">
        <ele>2062</ele>
        <time>2012-03-31T09:25:01Z</time>
      </trkpt>
      <trkpt lat="42.83871" lon="0.0495">
        <ele>2062</ele>
        <time>2012-03-31T09:25:05Z</time>
      </trkpt>
      <trkpt lat="42.83869" lon="0.04952">
        <ele>2063</ele>
        <time>2012-03-31T09:25:10Z</time>
      </trkpt>
      <trkpt lat="42.83868" lon="0.04953">
        <ele>2063</ele>
        <time>2012-03-31T09:25:14Z</time>
      </trkpt>
      <trkpt lat="42.83866" lon="0.04954">
        <ele>2064</ele>
        <time>2012-03-31T09:25:18Z</time>
      </trkpt>
      <trkpt lat="42.83863" lon="0.04956">
        <ele>2065</ele>
        <time>2012-03-31T09:25:22Z</time>
      </trkpt>
      <trkpt lat="42.83862" lon="0.04957">
        <ele>2065</ele>
        <time>2012-03-31T09:25:25Z</time>
      </trkpt>
      <trkpt lat="42.8386" lon="0.04959">
        <ele>2065</ele>
        <time>2012-03-31T09:25:31Z</time>
      </trkpt>
      <trkpt lat="42.83857" lon="0.04961">
        <ele>2065</ele>
        <time>2012-03-31T09:25:36Z</time>
      </trkpt>
      <trkpt lat="42.83855" lon="0.04962">
        <ele>2065</ele>
        <time>2012-03-31T09:25:39Z</time>
      </trkpt>
      <trkpt lat="42.83853" lon="0.04963">
        <ele>2066</ele>
        <time>2012-03-31T09:25:43Z</time>
      </trkpt>
      <trkpt lat="42.83852" lon="0.04964">
        <ele>2066</ele>
        <time>2012-03-31T09:25:46Z</time>
      </trkpt>
      <trkpt lat="42.8385" lon="0.04965">
        <ele>2066</ele>
        <time>2012-03-31T09:25:49Z</time>
      </trkpt>
      <trkpt lat="42.83849" lon="0.04966">
        <ele>2067</ele>
        <time>2012-03-31T09:25:53Z</time>
      </trkpt>
      <trkpt lat="42.83846" lon="0.04968">
        <ele>2068</ele>
        <time>2012-03-31T09:25:59Z</time>
      </trkpt>
      <trkpt lat="42.83844" lon="0.04969">
        <ele>2069</ele>
        <time>2012-03-31T09:26:02Z</time>
      </trkpt>
      <trkpt lat="42.83843" lon="0.0497">
        <ele>2069</ele>
        <time>2012-03-31T09:26:05Z</time>
      </trkpt>
      <trkpt lat="42.83841" lon="0.04972">
        <ele>2070</ele>
        <time>2012-03-31T09:26:11Z</time>
      </trkpt>
      <trkpt lat="42.83839" lon="0.04973">
        <ele>2071</ele>
        <time>2012-03-31T09:26:14Z</time>
      </trkpt>
      <trkpt lat="42.83838" lon="0.04974">
        <ele>2071</ele>
        <time>2012-03-31T09:26:17Z</time>
      </trkpt>
      <trkpt lat="42.83836" lon="0.04976">
        <ele>2071</ele>
        <time>2012-03-31T09:26:22Z</time>
      </trkpt>
      <trkpt lat="42.83833" lon="0.04978">
        <ele>2072</ele>
        <time>2012-03-31T09:26:27Z</time>
      </trkpt>
      <trkpt lat="42.8383" lon="0.0498">
        <ele>2073</ele>
        <time>2012-03-31T09:26:33Z</time>
      </trkpt>
      <trkpt lat="42.83828" lon="0.04982">
        <ele>2073</ele>
        <time>2012-03-31T09:26:39Z</time>
      </trkpt>
      <trkpt lat="42.83825" lon="0.04984">
        <ele>2074</ele>
        <time>2012-03-31T09:26:45Z</time>
      </trkpt>
      <trkpt lat="42.83822" lon="0.04986">
        <ele>2074</ele>
        <time>2012-03-31T09:26:50Z</time>
      </trkpt>
      <trkpt lat="42.8382" lon="0.04989">
        <ele>2075</ele>
        <time>2012-03-31T09:26:55Z</time>
      </trkpt>
      <trkpt lat="42.83818" lon="0.04992">
        <ele>2075</ele>
        <time>2012-03-31T09:27:01Z</time>
      </trkpt>
      <trkpt lat="42.83815" lon="0.04995">
        <ele>2076</ele>
        <time>2012-03-31T09:27:07Z</time>
      </trkpt>
      <trkpt lat="42.83812" lon="0.04998">
        <ele>2077</ele>
        <time>2012-03-31T09:27:13Z</time>
      </trkpt>
      <trkpt lat="42.83809" lon="0.05">
        <ele>2077</ele>
        <time>2012-03-31T09:27:19Z</time>
      </trkpt>
      <trkpt lat="42.83807" lon="0.05001">
        <ele>2078</ele>
        <time>2012-03-31T09:27:22Z</time>
      </trkpt>
      <trkpt lat="42.83806" lon="0.05003">
        <ele>2079</ele>
        <time>2012-03-31T09:27:25Z</time>
      </trkpt>
      <trkpt lat="42.83805" lon="0.05004">
        <ele>2079</ele>
        <time>2012-03-31T09:27:28Z</time>
      </trkpt>
      <trkpt lat="42.83804" lon="0.05006">
        <ele>2079</ele>
        <time>2012-03-31T09:27:31Z</time>
      </trkpt>
      <trkpt lat="42.83801" lon="0.05009">
        <ele>2080</ele>
        <time>2012-03-31T09:27:37Z</time>
      </trkpt>
      <trkpt lat="42.83799" lon="0.05011">
        <ele>2080</ele>
        <time>2012-03-31T09:27:40Z</time>
      </trkpt>
      <trkpt lat="42.83798" lon="0.05012">
        <ele>2080</ele>
        <time>2012-03-31T09:27:43Z</time>
      </trkpt>
      <trkpt lat="42.83797" lon="0.05014">
        <ele>2081</ele>
        <time>2012-03-31T09:27:46Z</time>
      </trkpt>
      <trkpt lat="42.83794" lon="0.05017">
        <ele>2081</ele>
        <time>2012-03-31T09:27:51Z</time>
      </trkpt>
      <trkpt lat="42.83792" lon="0.05019">
        <ele>2081</ele>
        <time>2012-03-31T09:27:56Z</time>
      </trkpt>
      <trkpt lat="42.83791" lon="0.05021">
        <ele>2082</ele>
        <time>2012-03-31T09:27:59Z</time>
      </trkpt>
      <trkpt lat="42.83789" lon="0.05023">
        <ele>2082</ele>
        <time>2012-03-31T09:28:02Z</time>
      </trkpt>
      <trkpt lat="42.83789" lon="0.05024">
        <ele>2083</ele>
        <time>2012-03-31T09:28:05Z</time>
      </trkpt>
      <trkpt lat="42.83788" lon="0.05026">
        <ele>2083</ele>
        <time>2012-03-31T09:28:09Z</time>
      </trkpt>
      <trkpt lat="42.83786" lon="0.05027">
        <ele>2084</ele>
        <time>2012-03-31T09:28:13Z</time>
      </trkpt>
      <trkpt lat="42.83785" lon="0.05029">
        <ele>2084</ele>
        <time>2012-03-31T09:28:16Z</time>
      </trkpt>
      <trkpt lat="42.83784" lon="0.0503">
        <ele>2084</ele>
        <time>2012-03-31T09:28:19Z</time>
      </trkpt>
      <trkpt lat="42.83783" lon="0.05032">
        <ele>2084</ele>
        <time>2012-03-31T09:28:22Z</time>
      </trkpt>
      <trkpt lat="42.83781" lon="0.05033">
        <ele>2085</ele>
        <time>2012-03-31T09:28:25Z</time>
      </trkpt>
      <trkpt lat="42.8378" lon="0.05035">
        <ele>2085</ele>
        <time>2012-03-31T09:28:28Z</time>
      </trkpt>
      <trkpt lat="42.83778" lon="0.05037">
        <ele>2085</ele>
        <time>2012-03-31T09:28:31Z</time>
      </trkpt>
      <trkpt lat="42.83777" lon="0.05038">
        <ele>2085</ele>
        <time>2012-03-31T09:28:34Z</time>
      </trkpt>
      <trkpt lat="42.83776" lon="0.0504">
        <ele>2085</ele>
        <time>2012-03-31T09:28:37Z</time>
      </trkpt>
      <trkpt lat="42.83774" lon="0.05043">
        <ele>2085</ele>
        <time>2012-03-31T09:28:42Z</time>
      </trkpt>
      <trkpt lat="42.83773" lon="0.05046">
        <ele>2086</ele>
        <time>2012-03-31T09:28:46Z</time>
      </trkpt>
      <trkpt lat="42.83772" lon="0.05048">
        <ele>2086</ele>
        <time>2012-03-31T09:28:49Z</time>
      </trkpt>
      <trkpt lat="42.83771" lon="0.05051">
        <ele>2087</ele>
        <time>2012-03-31T09:28:54Z</time>
      </trkpt>
      <trkpt lat="42.83771" lon="0.05053">
        <ele>2087</ele>
        <time>2012-03-31T09:28:57Z</time>
      </trkpt>
      <trkpt lat="42.8377" lon="0.05054">
        <ele>2088</ele>
        <time>2012-03-31T09:29:00Z</time>
      </trkpt>
      <trkpt lat="42.8377" lon="0.05056">
        <ele>2088</ele>
        <time>2012-03-31T09:29:03Z</time>
      </trkpt>
      <trkpt lat="42.83769" lon="0.05058">
        <ele>2088</ele>
        <time>2012-03-31T09:29:06Z</time>
      </trkpt>
      <trkpt lat="42.83767" lon="0.05061">
        <ele>2089</ele>
        <time>2012-03-31T09:29:11Z</time>
      </trkpt>
      <trkpt lat="42.83766" lon="0.05063">
        <ele>2090</ele>
        <time>2012-03-31T09:29:14Z</time>
      </trkpt>
      <trkpt lat="42.83765" lon="0.05065">
        <ele>2090</ele>
        <time>2012-03-31T09:29:17Z</time>
      </trkpt>
      <trkpt lat="42.83764" lon="0.05066">
        <ele>2091</ele>
        <time>2012-03-31T09:29:20Z</time>
      </trkpt>
      <trkpt lat="42.83762" lon="0.05068">
        <ele>2091</ele>
        <time>2012-03-31T09:29:23Z</time>
      </trkpt>
      <trkpt lat="42.83761" lon="0.05071">
        <ele>2091</ele>
        <time>2012-03-31T09:29:26Z</time>
      </trkpt>
      <trkpt lat="42.83759" lon="0.05073">
        <ele>2091</ele>
        <time>2012-03-31T09:29:30Z</time>
      </trkpt>
      <trkpt lat="42.83756" lon="0.05077">
        <ele>2091</ele>
        <time>2012-03-31T09:29:34Z</time>
      </trkpt>
      <trkpt lat="42.83754" lon="0.0508">
        <ele>2091</ele>
        <time>2012-03-31T09:29:38Z</time>
      </trkpt>
      <trkpt lat="42.83754" lon="0.05083">
        <ele>2091</ele>
        <time>2012-03-31T09:29:43Z</time>
      </trkpt>
      <trkpt lat="42.83754" lon="0.05085">
        <ele>2092</ele>
        <time>2012-03-31T09:29:46Z</time>
      </trkpt>
      <trkpt lat="42.83753" lon="0.05087">
        <ele>2092</ele>
        <time>2012-03-31T09:29:49Z</time>
      </trkpt>
      <trkpt lat="42.83752" lon="0.05089">
        <ele>2092</ele>
        <time>2012-03-31T09:29:52Z</time>
      </trkpt>
      <trkpt lat="42.83752" lon="0.05091">
        <ele>2092</ele>
        <time>2012-03-31T09:29:55Z</time>
      </trkpt>
      <trkpt lat="42.83751" lon="0.05093">
        <ele>2093</ele>
        <time>2012-03-31T09:29:58Z</time>
      </trkpt>
      <trkpt lat="42.8375" lon="0.05094">
        <ele>2093</ele>
        <time>2012-03-31T09:30:01Z</time>
      </trkpt>
      <trkpt lat="42.83749" lon="0.05095">
        <ele>2094</ele>
        <time>2012-03-31T09:30:08Z</time>
      </trkpt>
      <trkpt lat="42.83748" lon="0.05095">
        <ele>2094</ele>
        <time>2012-03-31T09:30:15Z</time>
      </trkpt>
      <trkpt lat="42.83747" lon="0.05097">
        <ele>2094</ele>
        <time>2012-03-31T09:30:36Z</time>
      </trkpt>
      <trkpt lat="42.83745" lon="0.051">
        <ele>2094</ele>
        <time>2012-03-31T09:30:41Z</time>
      </trkpt>
      <trkpt lat="42.83744" lon="0.05102">
        <ele>2094</ele>
        <time>2012-03-31T09:30:44Z</time>
      </trkpt>
      <trkpt lat="42.83743" lon="0.05105">
        <ele>2094</ele>
        <time>2012-03-31T09:30:47Z</time>
      </trkpt>
      <trkpt lat="42.83742" lon="0.05106">
        <ele>2094</ele>
        <time>2012-03-31T09:30:50Z</time>
      </trkpt>
      <trkpt lat="42.83741" lon="0.05108">
        <ele>2094</ele>
        <time>2012-03-31T09:30:53Z</time>
      </trkpt>
      <trkpt lat="42.8374" lon="0.05108">
        <ele>2095</ele>
        <time>2012-03-31T09:30:59Z</time>
      </trkpt>
      <trkpt lat="42.83739" lon="0.05107">
        <ele>2096</ele>
        <time>2012-03-31T09:31:02Z</time>
      </trkpt>
      <trkpt lat="42.83738" lon="0.05103">
        <ele>2096</ele>
        <time>2012-03-31T09:31:06Z</time>
      </trkpt>
      <trkpt lat="42.83738" lon="0.05099">
        <ele>2098</ele>
        <time>2012-03-31T09:31:10Z</time>
      </trkpt>
      <trkpt lat="42.83737" lon="0.05096">
        <ele>2099</ele>
        <time>2012-03-31T09:31:14Z</time>
      </trkpt>
      <trkpt lat="42.83736" lon="0.05094">
        <ele>2099</ele>
        <time>2012-03-31T09:31:17Z</time>
      </trkpt>
      <trkpt lat="42.83736" lon="0.05092">
        <ele>2100</ele>
        <time>2012-03-31T09:31:20Z</time>
      </trkpt>
      <trkpt lat="42.83734" lon="0.05091">
        <ele>2101</ele>
        <time>2012-03-31T09:31:23Z</time>
      </trkpt>
      <trkpt lat="42.83734" lon="0.05093">
        <ele>2102</ele>
        <time>2012-03-31T09:31:27Z</time>
      </trkpt>
      <trkpt lat="42.83733" lon="0.05096">
        <ele>2103</ele>
        <time>2012-03-31T09:31:32Z</time>
      </trkpt>
      <trkpt lat="42.83731" lon="0.05099">
        <ele>2103</ele>
        <time>2012-03-31T09:31:36Z</time>
      </trkpt>
      <trkpt lat="42.8373" lon="0.05102">
        <ele>2104</ele>
        <time>2012-03-31T09:31:39Z</time>
      </trkpt>
      <trkpt lat="42.83728" lon="0.05105">
        <ele>2104</ele>
        <time>2012-03-31T09:31:44Z</time>
      </trkpt>
      <trkpt lat="42.83727" lon="0.05106">
        <ele>2104</ele>
        <time>2012-03-31T09:31:50Z</time>
      </trkpt>
      <trkpt lat="42.83726" lon="0.05108">
        <ele>2104</ele>
        <time>2012-03-31T09:32:03Z</time>
      </trkpt>
      <trkpt lat="42.83725" lon="0.0511">
        <ele>2104</ele>
        <time>2012-03-31T09:32:06Z</time>
      </trkpt>
      <trkpt lat="42.83723" lon="0.05113">
        <ele>2104</ele>
        <time>2012-03-31T09:32:11Z</time>
      </trkpt>
      <trkpt lat="42.83722" lon="0.05116">
        <ele>2104</ele>
        <time>2012-03-31T09:32:14Z</time>
      </trkpt>
      <trkpt lat="42.83721" lon="0.05119">
        <ele>2105</ele>
        <time>2012-03-31T09:32:19Z</time>
      </trkpt>
      <trkpt lat="42.8372" lon="0.05118">
        <ele>2105</ele>
        <time>2012-03-31T09:32:25Z</time>
      </trkpt>
      <trkpt lat="42.83719" lon="0.05114">
        <ele>2105</ele>
        <time>2012-03-31T09:32:29Z</time>
      </trkpt>
      <trkpt lat="42.83718" lon="0.05111">
        <ele>2106</ele>
        <time>2012-03-31T09:32:33Z</time>
      </trkpt>
      <trkpt lat="42.83717" lon="0.05107">
        <ele>2108</ele>
        <time>2012-03-31T09:32:37Z</time>
      </trkpt>
      <trkpt lat="42.83716" lon="0.05103">
        <ele>2108</ele>
        <time>2012-03-31T09:32:41Z</time>
      </trkpt>
      <trkpt lat="42.83715" lon="0.051">
        <ele>2110</ele>
        <time>2012-03-31T09:32:45Z</time>
      </trkpt>
      <trkpt lat="42.83713" lon="0.05097">
        <ele>2110</ele>
        <time>2012-03-31T09:32:49Z</time>
      </trkpt>
      <trkpt lat="42.83712" lon="0.05094">
        <ele>2110</ele>
        <time>2012-03-31T09:32:54Z</time>
      </trkpt>
      <trkpt lat="42.83711" lon="0.05092">
        <ele>2113</ele>
        <time>2012-03-31T09:33:12Z</time>
      </trkpt>
      <trkpt lat="42.83709" lon="0.05094">
        <ele>2113</ele>
        <time>2012-03-31T09:33:15Z</time>
      </trkpt>
      <trkpt lat="42.83708" lon="0.05096">
        <ele>2113</ele>
        <time>2012-03-31T09:33:18Z</time>
      </trkpt>
      <trkpt lat="42.83707" lon="0.05098">
        <ele>2113</ele>
        <time>2012-03-31T09:33:21Z</time>
      </trkpt>
      <trkpt lat="42.83707" lon="0.05099">
        <ele>2113</ele>
        <time>2012-03-31T09:33:24Z</time>
      </trkpt>
      <trkpt lat="42.83706" lon="0.05101">
        <ele>2113</ele>
        <time>2012-03-31T09:33:27Z</time>
      </trkpt>
      <trkpt lat="42.83705" lon="0.05104">
        <ele>2113</ele>
        <time>2012-03-31T09:33:31Z</time>
      </trkpt>
      <trkpt lat="42.83705" lon="0.05107">
        <ele>2114</ele>
        <time>2012-03-31T09:33:35Z</time>
      </trkpt>
      <trkpt lat="42.83704" lon="0.05109">
        <ele>2115</ele>
        <time>2012-03-31T09:33:38Z</time>
      </trkpt>
      <trkpt lat="42.83703" lon="0.05112">
        <ele>2116</ele>
        <time>2012-03-31T09:33:42Z</time>
      </trkpt>
      <trkpt lat="42.83702" lon="0.05114">
        <ele>2116</ele>
        <time>2012-03-31T09:33:45Z</time>
      </trkpt>
      <trkpt lat="42.83702" lon="0.05117">
        <ele>2116</ele>
        <time>2012-03-31T09:33:49Z</time>
      </trkpt>
      <trkpt lat="42.83701" lon="0.05115">
        <ele>2118</ele>
        <time>2012-03-31T09:34:03Z</time>
      </trkpt>
      <trkpt lat="42.837" lon="0.05113">
        <ele>2118</ele>
        <time>2012-03-31T09:34:06Z</time>
      </trkpt>
      <trkpt lat="42.83699" lon="0.05111">
        <ele>2118</ele>
        <time>2012-03-31T09:34:09Z</time>
      </trkpt>
      <trkpt lat="42.83698" lon="0.05108">
        <ele>2118</ele>
        <time>2012-03-31T09:34:13Z</time>
      </trkpt>
      <trkpt lat="42.83697" lon="0.05105">
        <ele>2119</ele>
        <time>2012-03-31T09:34:17Z</time>
      </trkpt>
      <trkpt lat="42.83696" lon="0.05102">
        <ele>2120</ele>
        <time>2012-03-31T09:34:21Z</time>
      </trkpt>
      <trkpt lat="42.83695" lon="0.05099">
        <ele>2120</ele>
        <time>2012-03-31T09:34:25Z</time>
      </trkpt>
      <trkpt lat="42.83694" lon="0.05097">
        <ele>2121</ele>
        <time>2012-03-31T09:34:28Z</time>
      </trkpt>
      <trkpt lat="42.83693" lon="0.05095">
        <ele>2121</ele>
        <time>2012-03-31T09:34:31Z</time>
      </trkpt>
      <trkpt lat="42.83693" lon="0.05092">
        <ele>2122</ele>
        <time>2012-03-31T09:34:35Z</time>
      </trkpt>
      <trkpt lat="42.83692" lon="0.05089">
        <ele>2124</ele>
        <time>2012-03-31T09:34:45Z</time>
      </trkpt>
      <trkpt lat="42.83691" lon="0.0509">
        <ele>2124</ele>
        <time>2012-03-31T09:34:53Z</time>
      </trkpt>
      <trkpt lat="42.8369" lon="0.05092">
        <ele>2124</ele>
        <time>2012-03-31T09:34:56Z</time>
      </trkpt>
      <trkpt lat="42.83689" lon="0.05096">
        <ele>2124</ele>
        <time>2012-03-31T09:35:00Z</time>
      </trkpt>
      <trkpt lat="42.83689" lon="0.051">
        <ele>2124</ele>
        <time>2012-03-31T09:35:04Z</time>
      </trkpt>
      <trkpt lat="42.83689" lon="0.05104">
        <ele>2124</ele>
        <time>2012-03-31T09:35:08Z</time>
      </trkpt>
      <trkpt lat="42.83689" lon="0.05108">
        <ele>2124</ele>
        <time>2012-03-31T09:35:12Z</time>
      </trkpt>
      <trkpt lat="42.83689" lon="0.05111">
        <ele>2124</ele>
        <time>2012-03-31T09:35:18Z</time>
      </trkpt>
      <trkpt lat="42.83689" lon="0.05113">
        <ele>2125</ele>
        <time>2012-03-31T09:35:31Z</time>
      </trkpt>
      <trkpt lat="42.83689" lon="0.05116">
        <ele>2125</ele>
        <time>2012-03-31T09:35:36Z</time>
      </trkpt>
      <trkpt lat="42.83688" lon="0.05118">
        <ele>2125</ele>
        <time>2012-03-31T09:35:52Z</time>
      </trkpt>
      <trkpt lat="42.83689" lon="0.05121">
        <ele>2125</ele>
        <time>2012-03-31T09:35:56Z</time>
      </trkpt>
      <trkpt lat="42.83689" lon="0.05125">
        <ele>2125</ele>
        <time>2012-03-31T09:36:00Z</time>
      </trkpt>
      <trkpt lat="42.83689" lon="0.05127">
        <ele>2125</ele>
        <time>2012-03-31T09:36:03Z</time>
      </trkpt>
      <trkpt lat="42.83689" lon="0.0513">
        <ele>2125</ele>
        <time>2012-03-31T09:36:07Z</time>
      </trkpt>
      <trkpt lat="42.83689" lon="0.05133">
        <ele>2125</ele>
        <time>2012-03-31T09:36:11Z</time>
      </trkpt>
      <trkpt lat="42.8369" lon="0.05136">
        <ele>2125</ele>
        <time>2012-03-31T09:36:16Z</time>
      </trkpt>
      <trkpt lat="42.8369" lon="0.0514">
        <ele>2125</ele>
        <time>2012-03-31T09:36:20Z</time>
      </trkpt>
      <trkpt lat="42.8369" lon="0.05143">
        <ele>2125</ele>
        <time>2012-03-31T09:36:24Z</time>
      </trkpt>
      <trkpt lat="42.83691" lon="0.05147">
        <ele>2125</ele>
        <time>2012-03-31T09:36:28Z</time>
      </trkpt>
      <trkpt lat="42.83691" lon="0.0515">
        <ele>2126</ele>
        <time>2012-03-31T09:36:32Z</time>
      </trkpt>
      <trkpt lat="42.83691" lon="0.05153">
        <ele>2127</ele>
        <time>2012-03-31T09:36:36Z</time>
      </trkpt>
      <trkpt lat="42.83692" lon="0.05157">
        <ele>2127</ele>
        <time>2012-03-31T09:36:41Z</time>
      </trkpt>
      <trkpt lat="42.83692" lon="0.05158">
        <ele>2127</ele>
        <time>2012-03-31T09:36:44Z</time>
      </trkpt>
      <trkpt lat="42.83693" lon="0.05159">
        <ele>2130</ele>
        <time>2012-03-31T09:37:06Z</time>
      </trkpt>
      <trkpt lat="42.83694" lon="0.05161">
        <ele>2131</ele>
        <time>2012-03-31T09:37:09Z</time>
      </trkpt>
      <trkpt lat="42.83694" lon="0.05164">
        <ele>2132</ele>
        <time>2012-03-31T09:37:13Z</time>
      </trkpt>
      <trkpt lat="42.83695" lon="0.05167">
        <ele>2133</ele>
        <time>2012-03-31T09:37:17Z</time>
      </trkpt>
      <trkpt lat="42.83694" lon="0.0517">
        <ele>2134</ele>
        <time>2012-03-31T09:37:21Z</time>
      </trkpt>
      <trkpt lat="42.83696" lon="0.0517">
        <ele>2136</ele>
        <time>2012-03-31T09:37:27Z</time>
      </trkpt>
      <trkpt lat="42.83696" lon="0.05169">
        <ele>2138</ele>
        <time>2012-03-31T09:37:37Z</time>
      </trkpt>
      <trkpt lat="42.83696" lon="0.05167">
        <ele>2138</ele>
        <time>2012-03-31T09:37:40Z</time>
      </trkpt>
      <trkpt lat="42.83695" lon="0.05166">
        <ele>2139</ele>
        <time>2012-03-31T09:37:43Z</time>
      </trkpt>
      <trkpt lat="42.83693" lon="0.05164">
        <ele>2139</ele>
        <time>2012-03-31T09:37:46Z</time>
      </trkpt>
      <trkpt lat="42.83692" lon="0.05163">
        <ele>2140</ele>
        <time>2012-03-31T09:37:49Z</time>
      </trkpt>
      <trkpt lat="42.83689" lon="0.0516">
        <ele>2141</ele>
        <time>2012-03-31T09:37:54Z</time>
      </trkpt>
      <trkpt lat="42.83688" lon="0.05159">
        <ele>2141</ele>
        <time>2012-03-31T09:37:57Z</time>
      </trkpt>
      <trkpt lat="42.83686" lon="0.05157">
        <ele>2141</ele>
        <time>2012-03-31T09:38:01Z</time>
      </trkpt>
      <trkpt lat="42.83683" lon="0.05155">
        <ele>2141</ele>
        <time>2012-03-31T09:38:05Z</time>
      </trkpt>
      <trkpt lat="42.83681" lon="0.05153">
        <ele>2141</ele>
        <time>2012-03-31T09:38:08Z</time>
      </trkpt>
      <trkpt lat="42.83679" lon="0.05151">
        <ele>2141</ele>
        <time>2012-03-31T09:38:13Z</time>
      </trkpt>
      <trkpt lat="42.83678" lon="0.05151">
        <ele>2141</ele>
        <time>2012-03-31T09:38:20Z</time>
      </trkpt>
      <trkpt lat="42.83676" lon="0.05151">
        <ele>2141</ele>
        <time>2012-03-31T09:38:23Z</time>
      </trkpt>
      <trkpt lat="42.83675" lon="0.0515">
        <ele>2141</ele>
        <time>2012-03-31T09:38:28Z</time>
      </trkpt>
      <trkpt lat="42.83673" lon="0.05152">
        <ele>2140</ele>
        <time>2012-03-31T09:39:02Z</time>
      </trkpt>
      <trkpt lat="42.83675" lon="0.05155">
        <ele>2140</ele>
        <time>2012-03-31T09:39:07Z</time>
      </trkpt>
      <trkpt lat="42.83676" lon="0.05158">
        <ele>2140</ele>
        <time>2012-03-31T09:39:11Z</time>
      </trkpt>
      <trkpt lat="42.83677" lon="0.05161">
        <ele>2140</ele>
        <time>2012-03-31T09:39:15Z</time>
      </trkpt>
      <trkpt lat="42.83677" lon="0.05164">
        <ele>2140</ele>
        <time>2012-03-31T09:39:18Z</time>
      </trkpt>
      <trkpt lat="42.83675" lon="0.05167">
        <ele>2141</ele>
        <time>2012-03-31T09:39:22Z</time>
      </trkpt>
      <trkpt lat="42.83674" lon="0.05169">
        <ele>2142</ele>
        <time>2012-03-31T09:39:25Z</time>
      </trkpt>
      <trkpt lat="42.83673" lon="0.05172">
        <ele>2143</ele>
        <time>2012-03-31T09:39:29Z</time>
      </trkpt>
      <trkpt lat="42.83672" lon="0.05174">
        <ele>2144</ele>
        <time>2012-03-31T09:39:32Z</time>
      </trkpt>
      <trkpt lat="42.83671" lon="0.05177">
        <ele>2145</ele>
        <time>2012-03-31T09:39:37Z</time>
      </trkpt>
      <trkpt lat="42.83671" lon="0.05179">
        <ele>2146</ele>
        <time>2012-03-31T09:39:40Z</time>
      </trkpt>
      <trkpt lat="42.83671" lon="0.05181">
        <ele>2147</ele>
        <time>2012-03-31T09:39:43Z</time>
      </trkpt>
      <trkpt lat="42.83672" lon="0.05184">
        <ele>2148</ele>
        <time>2012-03-31T09:39:47Z</time>
      </trkpt>
      <trkpt lat="42.83671" lon="0.05186">
        <ele>2149</ele>
        <time>2012-03-31T09:39:50Z</time>
      </trkpt>
      <trkpt lat="42.83671" lon="0.05188">
        <ele>2150</ele>
        <time>2012-03-31T09:39:53Z</time>
      </trkpt>
      <trkpt lat="42.83671" lon="0.0519">
        <ele>2150</ele>
        <time>2012-03-31T09:39:56Z</time>
      </trkpt>
      <trkpt lat="42.83672" lon="0.05189">
        <ele>2150</ele>
        <time>2012-03-31T09:40:03Z</time>
      </trkpt>
      <trkpt lat="42.83672" lon="0.05191">
        <ele>2150</ele>
        <time>2012-03-31T09:40:42Z</time>
      </trkpt>
      <trkpt lat="42.83671" lon="0.05193">
        <ele>2150</ele>
        <time>2012-03-31T09:40:45Z</time>
      </trkpt>
      <trkpt lat="42.8367" lon="0.05193">
        <ele>2150</ele>
        <time>2012-03-31T09:40:51Z</time>
      </trkpt>
      <trkpt lat="42.83667" lon="0.05191">
        <ele>2150</ele>
        <time>2012-03-31T09:40:56Z</time>
      </trkpt>
      <trkpt lat="42.83666" lon="0.0519">
        <ele>2150</ele>
        <time>2012-03-31T09:40:59Z</time>
      </trkpt>
      <trkpt lat="42.83664" lon="0.05187">
        <ele>2150</ele>
        <time>2012-03-31T09:41:03Z</time>
      </trkpt>
      <trkpt lat="42.83663" lon="0.05185">
        <ele>2151</ele>
        <time>2012-03-31T09:41:06Z</time>
      </trkpt>
      <trkpt lat="42.83661" lon="0.05185">
        <ele>2152</ele>
        <time>2012-03-31T09:41:09Z</time>
      </trkpt>
      <trkpt lat="42.83661" lon="0.05187">
        <ele>2153</ele>
        <time>2012-03-31T09:41:12Z</time>
      </trkpt>
      <trkpt lat="42.83659" lon="0.0519">
        <ele>2153</ele>
        <time>2012-03-31T09:41:16Z</time>
      </trkpt>
      <trkpt lat="42.83658" lon="0.05193">
        <ele>2154</ele>
        <time>2012-03-31T09:41:21Z</time>
      </trkpt>
      <trkpt lat="42.83657" lon="0.05196">
        <ele>2156</ele>
        <time>2012-03-31T09:41:26Z</time>
      </trkpt>
      <trkpt lat="42.83658" lon="0.05195">
        <ele>2158</ele>
        <time>2012-03-31T09:41:42Z</time>
      </trkpt>
      <trkpt lat="42.83659" lon="0.05194">
        <ele>2159</ele>
        <time>2012-03-31T09:41:58Z</time>
      </trkpt>
      <trkpt lat="42.83657" lon="0.05193">
        <ele>2159</ele>
        <time>2012-03-31T09:42:04Z</time>
      </trkpt>
      <trkpt lat="42.83656" lon="0.05191">
        <ele>2159</ele>
        <time>2012-03-31T09:42:07Z</time>
      </trkpt>
      <trkpt lat="42.83654" lon="0.05187">
        <ele>2159</ele>
        <time>2012-03-31T09:42:12Z</time>
      </trkpt>
      <trkpt lat="42.83652" lon="0.05186">
        <ele>2159</ele>
        <time>2012-03-31T09:42:15Z</time>
      </trkpt>
      <trkpt lat="42.83651" lon="0.05184">
        <ele>2159</ele>
        <time>2012-03-31T09:42:18Z</time>
      </trkpt>
      <trkpt lat="42.8365" lon="0.05182">
        <ele>2159</ele>
        <time>2012-03-31T09:42:21Z</time>
      </trkpt>
      <trkpt lat="42.83648" lon="0.05181">
        <ele>2159</ele>
        <time>2012-03-31T09:42:24Z</time>
      </trkpt>
      <trkpt lat="42.83647" lon="0.0518">
        <ele>2159</ele>
        <time>2012-03-31T09:42:30Z</time>
      </trkpt>
      <trkpt lat="42.83647" lon="0.05178">
        <ele>2159</ele>
        <time>2012-03-31T09:42:34Z</time>
      </trkpt>
      <trkpt lat="42.83646" lon="0.05177">
        <ele>2160</ele>
        <time>2012-03-31T09:42:37Z</time>
      </trkpt>
      <trkpt lat="42.83646" lon="0.05178">
        <ele>2160</ele>
        <time>2012-03-31T09:42:43Z</time>
      </trkpt>
      <trkpt lat="42.83646" lon="0.0518">
        <ele>2160</ele>
        <time>2012-03-31T09:42:46Z</time>
      </trkpt>
      <trkpt lat="42.83646" lon="0.05183">
        <ele>2160</ele>
        <time>2012-03-31T09:42:50Z</time>
      </trkpt>
      <trkpt lat="42.83645" lon="0.05185">
        <ele>2160</ele>
        <time>2012-03-31T09:42:53Z</time>
      </trkpt>
      <trkpt lat="42.83644" lon="0.05188">
        <ele>2161</ele>
        <time>2012-03-31T09:42:57Z</time>
      </trkpt>
      <trkpt lat="42.83643" lon="0.05191">
        <ele>2163</ele>
        <time>2012-03-31T09:43:01Z</time>
      </trkpt>
      <trkpt lat="42.83643" lon="0.05194">
        <ele>2165</ele>
        <time>2012-03-31T09:43:05Z</time>
      </trkpt>
      <trkpt lat="42.83642" lon="0.05197">
        <ele>2166</ele>
        <time>2012-03-31T09:43:09Z</time>
      </trkpt>
      <trkpt lat="42.83641" lon="0.052">
        <ele>2168</ele>
        <time>2012-03-31T09:43:13Z</time>
      </trkpt>
      <trkpt lat="42.83641" lon="0.05202">
        <ele>2169</ele>
        <time>2012-03-31T09:43:16Z</time>
      </trkpt>
      <trkpt lat="42.83643" lon="0.05203">
        <ele>2171</ele>
        <time>2012-03-31T09:43:26Z</time>
      </trkpt>
      <trkpt lat="42.83641" lon="0.05201">
        <ele>2172</ele>
        <time>2012-03-31T09:43:36Z</time>
      </trkpt>
      <trkpt lat="42.83641" lon="0.052">
        <ele>2173</ele>
        <time>2012-03-31T09:43:39Z</time>
      </trkpt>
      <trkpt lat="42.83638" lon="0.05197">
        <ele>2173</ele>
        <time>2012-03-31T09:43:44Z</time>
      </trkpt>
      <trkpt lat="42.83636" lon="0.05195">
        <ele>2173</ele>
        <time>2012-03-31T09:43:48Z</time>
      </trkpt>
      <trkpt lat="42.83635" lon="0.05193">
        <ele>2173</ele>
        <time>2012-03-31T09:43:51Z</time>
      </trkpt>
      <trkpt lat="42.83633" lon="0.0519">
        <ele>2174</ele>
        <time>2012-03-31T09:43:56Z</time>
      </trkpt>
      <trkpt lat="42.8363" lon="0.05188">
        <ele>2174</ele>
        <time>2012-03-31T09:44:01Z</time>
      </trkpt>
      <trkpt lat="42.83628" lon="0.05187">
        <ele>2174</ele>
        <time>2012-03-31T09:44:15Z</time>
      </trkpt>
      <trkpt lat="42.83627" lon="0.05189">
        <ele>2173</ele>
        <time>2012-03-31T09:44:41Z</time>
      </trkpt>
      <trkpt lat="42.83626" lon="0.05187">
        <ele>2172</ele>
        <time>2012-03-31T09:44:44Z</time>
      </trkpt>
      <trkpt lat="42.83626" lon="0.05186">
        <ele>2172</ele>
        <time>2012-03-31T09:44:47Z</time>
      </trkpt>
      <trkpt lat="42.83626" lon="0.05183">
        <ele>2172</ele>
        <time>2012-03-31T09:44:50Z</time>
      </trkpt>
      <trkpt lat="42.83625" lon="0.05179">
        <ele>2172</ele>
        <time>2012-03-31T09:44:54Z</time>
      </trkpt>
      <trkpt lat="42.83624" lon="0.05176">
        <ele>2172</ele>
        <time>2012-03-31T09:44:58Z</time>
      </trkpt>
      <trkpt lat="42.83624" lon="0.05175">
        <ele>2172</ele>
        <time>2012-03-31T09:45:01Z</time>
      </trkpt>
      <trkpt lat="42.83623" lon="0.05173">
        <ele>2172</ele>
        <time>2012-03-31T09:45:04Z</time>
      </trkpt>
      <trkpt lat="42.83622" lon="0.05169">
        <ele>2172</ele>
        <time>2012-03-31T09:45:09Z</time>
      </trkpt>
      <trkpt lat="42.83622" lon="0.05166">
        <ele>2172</ele>
        <time>2012-03-31T09:45:14Z</time>
      </trkpt>
      <trkpt lat="42.83621" lon="0.05163">
        <ele>2172</ele>
        <time>2012-03-31T09:45:19Z</time>
      </trkpt>
      <trkpt lat="42.83621" lon="0.0516">
        <ele>2173</ele>
        <time>2012-03-31T09:45:23Z</time>
      </trkpt>
      <trkpt lat="42.83621" lon="0.05158">
        <ele>2174</ele>
        <time>2012-03-31T09:45:26Z</time>
      </trkpt>
      <trkpt lat="42.8362" lon="0.05154">
        <ele>2177</ele>
        <time>2012-03-31T09:45:32Z</time>
      </trkpt>
      <trkpt lat="42.8362" lon="0.05153">
        <ele>2177</ele>
        <time>2012-03-31T09:45:35Z</time>
      </trkpt>
      <trkpt lat="42.8362" lon="0.05154">
        <ele>2178</ele>
        <time>2012-03-31T09:45:57Z</time>
      </trkpt>
      <trkpt lat="42.83621" lon="0.05152">
        <ele>2178</ele>
        <time>2012-03-31T09:46:05Z</time>
      </trkpt>
      <trkpt lat="42.8362" lon="0.05151">
        <ele>2179</ele>
        <time>2012-03-31T09:46:08Z</time>
      </trkpt>
      <trkpt lat="42.83619" lon="0.05148">
        <ele>2179</ele>
        <time>2012-03-31T09:46:12Z</time>
      </trkpt>
      <trkpt lat="42.83618" lon="0.05144">
        <ele>2181</ele>
        <time>2012-03-31T09:46:17Z</time>
      </trkpt>
      <trkpt lat="42.83617" lon="0.05146">
        <ele>2181</ele>
        <time>2012-03-31T09:46:30Z</time>
      </trkpt>
      <trkpt lat="42.83617" lon="0.05149">
        <ele>2181</ele>
        <time>2012-03-31T09:46:34Z</time>
      </trkpt>
      <trkpt lat="42.83616" lon="0.05151">
        <ele>2181</ele>
        <time>2012-03-31T09:46:37Z</time>
      </trkpt>
      <trkpt lat="42.83614" lon="0.05154">
        <ele>2181</ele>
        <time>2012-03-31T09:46:41Z</time>
      </trkpt>
      <trkpt lat="42.83612" lon="0.05157">
        <ele>2181</ele>
        <time>2012-03-31T09:46:45Z</time>
      </trkpt>
      <trkpt lat="42.83612" lon="0.05159">
        <ele>2181</ele>
        <time>2012-03-31T09:46:48Z</time>
      </trkpt>
      <trkpt lat="42.83611" lon="0.05161">
        <ele>2181</ele>
        <time>2012-03-31T09:46:51Z</time>
      </trkpt>
      <trkpt lat="42.8361" lon="0.05164">
        <ele>2182</ele>
        <time>2012-03-31T09:46:56Z</time>
      </trkpt>
      <trkpt lat="42.83609" lon="0.05167">
        <ele>2183</ele>
        <time>2012-03-31T09:46:59Z</time>
      </trkpt>
      <trkpt lat="42.83608" lon="0.05168">
        <ele>2185</ele>
        <time>2012-03-31T09:47:02Z</time>
      </trkpt>
      <trkpt lat="42.83607" lon="0.0517">
        <ele>2186</ele>
        <time>2012-03-31T09:47:15Z</time>
      </trkpt>
      <trkpt lat="42.83606" lon="0.0517">
        <ele>2187</ele>
        <time>2012-03-31T09:47:19Z</time>
      </trkpt>
      <trkpt lat="42.83609" lon="0.05171">
        <ele>2187</ele>
        <time>2012-03-31T09:47:23Z</time>
      </trkpt>
      <trkpt lat="42.8361" lon="0.05171">
        <ele>2187</ele>
        <time>2012-03-31T09:47:26Z</time>
      </trkpt>
      <trkpt lat="42.83611" lon="0.05171">
        <ele>2187</ele>
        <time>2012-03-31T09:47:29Z</time>
      </trkpt>
      <trkpt lat="42.83612" lon="0.0517">
        <ele>2187</ele>
        <time>2012-03-31T09:47:37Z</time>
      </trkpt>
      <trkpt lat="42.83612" lon="0.05169">
        <ele>2187</ele>
        <time>2012-03-31T09:47:43Z</time>
      </trkpt>
      <trkpt lat="42.83612" lon="0.05167">
        <ele>2187</ele>
        <time>2012-03-31T09:47:46Z</time>
      </trkpt>
      <trkpt lat="42.83611" lon="0.05165">
        <ele>2187</ele>
        <time>2012-03-31T09:47:49Z</time>
      </trkpt>
      <trkpt lat="42.83609" lon="0.05161">
        <ele>2187</ele>
        <time>2012-03-31T09:47:53Z</time>
      </trkpt>
      <trkpt lat="42.83608" lon="0.05159">
        <ele>2187</ele>
        <time>2012-03-31T09:47:56Z</time>
      </trkpt>
      <trkpt lat="42.83607" lon="0.05156">
        <ele>2187</ele>
        <time>2012-03-31T09:48:00Z</time>
      </trkpt>
      <trkpt lat="42.83605" lon="0.05153">
        <ele>2187</ele>
        <time>2012-03-31T09:48:04Z</time>
      </trkpt>
      <trkpt lat="42.83603" lon="0.0515">
        <ele>2188</ele>
        <time>2012-03-31T09:48:08Z</time>
      </trkpt>
      <trkpt lat="42.83604" lon="0.05151">
        <ele>2190</ele>
        <time>2012-03-31T09:48:28Z</time>
      </trkpt>
      <trkpt lat="42.83604" lon="0.05149">
        <ele>2192</ele>
        <time>2012-03-31T09:48:31Z</time>
      </trkpt>
      <trkpt lat="42.83604" lon="0.05145">
        <ele>2195</ele>
        <time>2012-03-31T09:48:35Z</time>
      </trkpt>
      <trkpt lat="42.83603" lon="0.05144">
        <ele>2195</ele>
        <time>2012-03-31T09:48:38Z</time>
      </trkpt>
      <trkpt lat="42.836" lon="0.05145">
        <ele>2195</ele>
        <time>2012-03-31T09:48:43Z</time>
      </trkpt>
      <trkpt lat="42.83599" lon="0.05146">
        <ele>2195</ele>
        <time>2012-03-31T09:48:53Z</time>
      </trkpt>
      <trkpt lat="42.83599" lon="0.05148">
        <ele>2195</ele>
        <time>2012-03-31T09:48:56Z</time>
      </trkpt>
      <trkpt lat="42.83598" lon="0.0515">
        <ele>2195</ele>
        <time>2012-03-31T09:48:59Z</time>
      </trkpt>
      <trkpt lat="42.83597" lon="0.05152">
        <ele>2195</ele>
        <time>2012-03-31T09:49:02Z</time>
      </trkpt>
      <trkpt lat="42.83596" lon="0.05155">
        <ele>2195</ele>
        <time>2012-03-31T09:49:06Z</time>
      </trkpt>
      <trkpt lat="42.83595" lon="0.05159">
        <ele>2195</ele>
        <time>2012-03-31T09:49:11Z</time>
      </trkpt>
      <trkpt lat="42.83593" lon="0.05162">
        <ele>2195</ele>
        <time>2012-03-31T09:49:16Z</time>
      </trkpt>
      <trkpt lat="42.83592" lon="0.05165">
        <ele>2197</ele>
        <time>2012-03-31T09:49:21Z</time>
      </trkpt>
      <trkpt lat="42.83591" lon="0.05167">
        <ele>2198</ele>
        <time>2012-03-31T09:49:24Z</time>
      </trkpt>
      <trkpt lat="42.8359" lon="0.05171">
        <ele>2198</ele>
        <time>2012-03-31T09:49:29Z</time>
      </trkpt>
      <trkpt lat="42.83588" lon="0.05172">
        <ele>2198</ele>
        <time>2012-03-31T09:49:32Z</time>
      </trkpt>
      <trkpt lat="42.83588" lon="0.05174">
        <ele>2199</ele>
        <time>2012-03-31T09:49:35Z</time>
      </trkpt>
      <trkpt lat="42.83587" lon="0.05173">
        <ele>2199</ele>
        <time>2012-03-31T09:49:45Z</time>
      </trkpt>
      <trkpt lat="42.83585" lon="0.05172">
        <ele>2199</ele>
        <time>2012-03-31T09:49:49Z</time>
      </trkpt>
      <trkpt lat="42.83582" lon="0.05171">
        <ele>2199</ele>
        <time>2012-03-31T09:49:53Z</time>
      </trkpt>
      <trkpt lat="42.83583" lon="0.05173">
        <ele>2199</ele>
        <time>2012-03-31T09:50:00Z</time>
      </trkpt>
      <trkpt lat="42.83582" lon="0.05175">
        <ele>2199</ele>
        <time>2012-03-31T09:50:03Z</time>
      </trkpt>
      <trkpt lat="42.8358" lon="0.05178">
        <ele>2199</ele>
        <time>2012-03-31T09:50:08Z</time>
      </trkpt>
      <trkpt lat="42.83579" lon="0.05181">
        <ele>2199</ele>
        <time>2012-03-31T09:50:12Z</time>
      </trkpt>
      <trkpt lat="42.83578" lon="0.05184">
        <ele>2199</ele>
        <time>2012-03-31T09:50:16Z</time>
      </trkpt>
      <trkpt lat="42.83577" lon="0.05188">
        <ele>2200</ele>
        <time>2012-03-31T09:50:20Z</time>
      </trkpt>
      <trkpt lat="42.83577" lon="0.05191">
        <ele>2201</ele>
        <time>2012-03-31T09:50:24Z</time>
      </trkpt>
      <trkpt lat="42.83577" lon="0.05192">
        <ele>2202</ele>
        <time>2012-03-31T09:50:46Z</time>
      </trkpt>
      <trkpt lat="42.83577" lon="0.05196">
        <ele>2202</ele>
        <time>2012-03-31T09:50:51Z</time>
      </trkpt>
      <trkpt lat="42.83578" lon="0.052">
        <ele>2203</ele>
        <time>2012-03-31T09:50:55Z</time>
      </trkpt>
      <trkpt lat="42.83578" lon="0.05204">
        <ele>2204</ele>
        <time>2012-03-31T09:50:59Z</time>
      </trkpt>
      <trkpt lat="42.83577" lon="0.05208">
        <ele>2205</ele>
        <time>2012-03-31T09:51:03Z</time>
      </trkpt>
      <trkpt lat="42.83578" lon="0.05211">
        <ele>2206</ele>
        <time>2012-03-31T09:51:07Z</time>
      </trkpt>
      <trkpt lat="42.83578" lon="0.05214">
        <ele>2206</ele>
        <time>2012-03-31T09:51:11Z</time>
      </trkpt>
      <trkpt lat="42.83576" lon="0.05216">
        <ele>2207</ele>
        <time>2012-03-31T09:51:14Z</time>
      </trkpt>
      <trkpt lat="42.83575" lon="0.05217">
        <ele>2211</ele>
        <time>2012-03-31T09:51:21Z</time>
      </trkpt>
      <trkpt lat="42.83575" lon="0.05219">
        <ele>2212</ele>
        <time>2012-03-31T09:51:43Z</time>
      </trkpt>
      <trkpt lat="42.83572" lon="0.0522">
        <ele>2212</ele>
        <time>2012-03-31T09:51:48Z</time>
      </trkpt>
      <trkpt lat="42.83572" lon="0.0522">
        <ele>2212</ele>
        <time>2012-03-31T09:51:57Z</time>
      </trkpt>
      <trkpt lat="42.8357" lon="0.05221">
        <ele>2213</ele>
        <time>2012-03-31T09:52:01Z</time>
      </trkpt>
      <trkpt lat="42.83567" lon="0.05222">
        <ele>2213</ele>
        <time>2012-03-31T09:52:05Z</time>
      </trkpt>
      <trkpt lat="42.83566" lon="0.0522">
        <ele>2214</ele>
        <time>2012-03-31T09:52:14Z</time>
      </trkpt>
      <trkpt lat="42.83566" lon="0.05218">
        <ele>2214</ele>
        <time>2012-03-31T09:52:19Z</time>
      </trkpt>
      <trkpt lat="42.83567" lon="0.05218">
        <ele>2214</ele>
        <time>2012-03-31T09:52:25Z</time>
      </trkpt>
      <trkpt lat="42.83568" lon="0.0522">
        <ele>2215</ele>
        <time>2012-03-31T09:52:29Z</time>
      </trkpt>
      <trkpt lat="42.83566" lon="0.05221">
        <ele>2215</ele>
        <time>2012-03-31T09:52:35Z</time>
      </trkpt>
      <trkpt lat="42.83562" lon="0.0522">
        <ele>2212</ele>
        <time>2012-03-31T09:52:49Z</time>
      </trkpt>
      <trkpt lat="42.83564" lon="0.0522">
        <ele>2211</ele>
        <time>2012-03-31T09:52:56Z</time>
      </trkpt>
      <trkpt lat="42.83567" lon="0.05221">
        <ele>2211</ele>
        <time>2012-03-31T09:53:00Z</time>
      </trkpt>
      <trkpt lat="42.8357" lon="0.05222">
        <ele>2213</ele>
        <time>2012-03-31T09:53:04Z</time>
      </trkpt>
      <trkpt lat="42.83572" lon="0.05222">
        <ele>2217</ele>
        <time>2012-03-31T09:53:09Z</time>
      </trkpt>
      <trkpt lat="42.83573" lon="0.05224">
        <ele>2219</ele>
        <time>2012-03-31T09:53:14Z</time>
      </trkpt>
      <trkpt lat="42.83572" lon="0.05226">
        <ele>2219</ele>
        <time>2012-03-31T09:53:33Z</time>
      </trkpt>
      <trkpt lat="42.83571" lon="0.05226">
        <ele>2219</ele>
        <time>2012-03-31T09:53:39Z</time>
      </trkpt>
      <trkpt lat="42.83572" lon="0.05226">
        <ele>2220</ele>
        <time>2012-03-31T09:53:51Z</time>
      </trkpt>
      <trkpt lat="42.83573" lon="0.05225">
        <ele>2220</ele>
        <time>2012-03-31T09:53:57Z</time>
      </trkpt>
      <trkpt lat="42.83568" lon="0.05222">
        <ele>2220</ele>
        <time>2012-03-31T09:54:00Z</time>
      </trkpt>
      <trkpt lat="42.83564" lon="0.05219">
        <ele>2218</ele>
        <time>2012-03-31T09:54:03Z</time>
      </trkpt>
      <trkpt lat="42.83563" lon="0.05217">
        <ele>2213</ele>
        <time>2012-03-31T09:54:11Z</time>
      </trkpt>
      <trkpt lat="42.83564" lon="0.05217">
        <ele>2213</ele>
        <time>2012-03-31T09:54:15Z</time>
      </trkpt>
      <trkpt lat="42.83565" lon="0.05217">
        <ele>2214</ele>
        <time>2012-03-31T09:54:19Z</time>
      </trkpt>
      <trkpt lat="42.83567" lon="0.05217">
        <ele>2215</ele>
        <time>2012-03-31T09:54:23Z</time>
      </trkpt>
      <trkpt lat="42.83567" lon="0.05219">
        <ele>2215</ele>
        <time>2012-03-31T09:54:28Z</time>
      </trkpt>
      <trkpt lat="42.83568" lon="0.05219">
        <ele>2215</ele>
        <time>2012-03-31T09:54:31Z</time>
      </trkpt>
      <trkpt lat="42.8357" lon="0.0522">
        <ele>2215</ele>
        <time>2012-03-31T09:54:39Z</time>
      </trkpt>
      <trkpt lat="42.83571" lon="0.05221">
        <ele>2215</ele>
        <time>2012-03-31T09:54:58Z</time>
      </trkpt>
      <trkpt lat="42.83571" lon="0.05222">
        <ele>2215</ele>
        <time>2012-03-31T09:55:05Z</time>
      </trkpt>
      <trkpt lat="42.83569" lon="0.05221">
        <ele>2215</ele>
        <time>2012-03-31T09:55:14Z</time>
      </trkpt>
      <trkpt lat="42.83565" lon="0.0522">
        <ele>2213</ele>
        <time>2012-03-31T09:55:17Z</time>
      </trkpt>
      <trkpt lat="42.83564" lon="0.0522">
        <ele>2208</ele>
        <time>2012-03-31T09:55:29Z</time>
      </trkpt>
      <trkpt lat="42.83569" lon="0.05222">
        <ele>2208</ele>
        <time>2012-03-31T09:55:32Z</time>
      </trkpt>
      <trkpt lat="42.83573" lon="0.05223">
        <ele>2208</ele>
        <time>2012-03-31T09:55:35Z</time>
      </trkpt>
      <trkpt lat="42.83571" lon="0.05223">
        <ele>2209</ele>
        <time>2012-03-31T09:55:38Z</time>
      </trkpt>
      <trkpt lat="42.8357" lon="0.05222">
        <ele>2209</ele>
        <time>2012-03-31T09:55:41Z</time>
      </trkpt>
      <trkpt lat="42.83569" lon="0.05221">
        <ele>2209</ele>
        <time>2012-03-31T09:55:47Z</time>
      </trkpt>
      <trkpt lat="42.83569" lon="0.05221">
        <ele>2209</ele>
        <time>2012-03-31T09:55:58Z</time>
      </trkpt>
      <trkpt lat="42.8357" lon="0.05221">
        <ele>2209</ele>
        <time>2012-03-31T09:56:03Z</time>
      </trkpt>
      <trkpt lat="42.83572" lon="0.05221">
        <ele>2209</ele>
        <time>2012-03-31T09:56:11Z</time>
      </trkpt>
      <trkpt lat="42.83574" lon="0.05221">
        <ele>2213</ele>
        <time>2012-03-31T09:56:16Z</time>
      </trkpt>
      <trkpt lat="42.83573" lon="0.05222">
        <ele>2215</ele>
        <time>2012-03-31T09:56:22Z</time>
      </trkpt>
      <trkpt lat="42.8357" lon="0.05222">
        <ele>2215</ele>
        <time>2012-03-31T09:56:26Z</time>
      </trkpt>
      <trkpt lat="42.83568" lon="0.05222">
        <ele>2215</ele>
        <time>2012-03-31T09:56:31Z</time>
      </trkpt>
      <trkpt lat="42.83568" lon="0.05221">
        <ele>2214</ele>
        <time>2012-03-31T09:56:39Z</time>
      </trkpt>
      <trkpt lat="42.83566" lon="0.05221">
        <ele>2214</ele>
        <time>2012-03-31T09:56:44Z</time>
      </trkpt>
      <trkpt lat="42.83563" lon="0.05222">
        <ele>2213</ele>
        <time>2012-03-31T09:56:47Z</time>
      </trkpt>
      <trkpt lat="42.83563" lon="0.05223">
        <ele>2208</ele>
        <time>2012-03-31T09:56:57Z</time>
      </trkpt>
      <trkpt lat="42.83566" lon="0.05223">
        <ele>2208</ele>
        <time>2012-03-31T09:57:01Z</time>
      </trkpt>
      <trkpt lat="42.83568" lon="0.05224">
        <ele>2209</ele>
        <time>2012-03-31T09:57:06Z</time>
      </trkpt>
      <trkpt lat="42.83571" lon="0.05224">
        <ele>2212</ele>
        <time>2012-03-31T09:57:10Z</time>
      </trkpt>
      <trkpt lat="42.83571" lon="0.05223">
        <ele>2217</ele>
        <time>2012-03-31T09:57:17Z</time>
      </trkpt>
      <trkpt lat="42.83567" lon="0.05221">
        <ele>2217</ele>
        <time>2012-03-31T09:57:21Z</time>
      </trkpt>
      <trkpt lat="42.83567" lon="0.05219">
        <ele>2217</ele>
        <time>2012-03-31T09:57:24Z</time>
      </trkpt>
      <trkpt lat="42.83569" lon="0.0522">
        <ele>2217</ele>
        <time>2012-03-31T09:57:30Z</time>
      </trkpt>
      <trkpt lat="42.83572" lon="0.05219">
        <ele>2217</ele>
        <time>2012-03-31T09:57:34Z</time>
      </trkpt>
      <trkpt lat="42.83575" lon="0.0522">
        <ele>2221</ele>
        <time>2012-03-31T09:57:38Z</time>
      </trkpt>
      <trkpt lat="42.83576" lon="0.0522">
        <ele>2223</ele>
        <time>2012-03-31T09:57:42Z</time>
      </trkpt>
      <trkpt lat="42.83575" lon="0.0522">
        <ele>2225</ele>
        <time>2012-03-31T09:57:52Z</time>
      </trkpt>
      <trkpt lat="42.83574" lon="0.0522">
        <ele>2225</ele>
        <time>2012-03-31T09:57:55Z</time>
      </trkpt>
      <trkpt lat="42.83574" lon="0.0522">
        <ele>2224</ele>
        <time>2012-03-31T09:58:02Z</time>
      </trkpt>
      <trkpt lat="42.83575" lon="0.05219">
        <ele>2224</ele>
        <time>2012-03-31T09:58:06Z</time>
      </trkpt>
      <trkpt lat="42.83579" lon="0.05218">
        <ele>2226</ele>
        <time>2012-03-31T09:58:10Z</time>
      </trkpt>
      <trkpt lat="42.83577" lon="0.05218">
        <ele>2231</ele>
        <time>2012-03-31T09:58:15Z</time>
      </trkpt>
      <trkpt lat="42.83574" lon="0.05217">
        <ele>2231</ele>
        <time>2012-03-31T09:58:18Z</time>
      </trkpt>
      <trkpt lat="42.8357" lon="0.05214">
        <ele>2231</ele>
        <time>2012-03-31T09:58:22Z</time>
      </trkpt>
      <trkpt lat="42.83568" lon="0.05213">
        <ele>2231</ele>
        <time>2012-03-31T09:58:25Z</time>
      </trkpt>
      <trkpt lat="42.83564" lon="0.05213">
        <ele>2231</ele>
        <time>2012-03-31T09:58:28Z</time>
      </trkpt>
      <trkpt lat="42.83561" lon="0.05212">
        <ele>2230</ele>
        <time>2012-03-31T09:58:31Z</time>
      </trkpt>
      <trkpt lat="42.83559" lon="0.05209">
        <ele>2228</ele>
        <time>2012-03-31T09:58:36Z</time>
      </trkpt>
      <trkpt lat="42.83557" lon="0.05206">
        <ele>2227</ele>
        <time>2012-03-31T09:58:40Z</time>
      </trkpt>
      <trkpt lat="42.83555" lon="0.05202">
        <ele>2227</ele>
        <time>2012-03-31T09:58:45Z</time>
      </trkpt>
      <trkpt lat="42.83551" lon="0.05199">
        <ele>2226</ele>
        <time>2012-03-31T09:58:50Z</time>
      </trkpt>
      <trkpt lat="42.8355" lon="0.05197">
        <ele>2225</ele>
        <time>2012-03-31T09:58:53Z</time>
      </trkpt>
      <trkpt lat="42.83547" lon="0.05195">
        <ele>2223</ele>
        <time>2012-03-31T09:59:06Z</time>
      </trkpt>
      <trkpt lat="42.83544" lon="0.05195">
        <ele>2223</ele>
        <time>2012-03-31T09:59:12Z</time>
      </trkpt>
      <trkpt lat="42.83544" lon="0.05196">
        <ele>2223</ele>
        <time>2012-03-31T09:59:15Z</time>
      </trkpt>
      <trkpt lat="42.83542" lon="0.05196">
        <ele>2223</ele>
        <time>2012-03-31T09:59:18Z</time>
      </trkpt>
      <trkpt lat="42.8354" lon="0.05198">
        <ele>2223</ele>
        <time>2012-03-31T09:59:24Z</time>
      </trkpt>
      <trkpt lat="42.83537" lon="0.05197">
        <ele>2223</ele>
        <time>2012-03-31T09:59:28Z</time>
      </trkpt>
      <trkpt lat="42.83535" lon="0.05198">
        <ele>2223</ele>
        <time>2012-03-31T09:59:48Z</time>
      </trkpt>
      <trkpt lat="42.83533" lon="0.05199">
        <ele>2223</ele>
        <time>2012-03-31T09:59:53Z</time>
      </trkpt>
      <trkpt lat="42.83532" lon="0.05199">
        <ele>2223</ele>
        <time>2012-03-31T09:59:56Z</time>
      </trkpt>
      <trkpt lat="42.83531" lon="0.05197">
        <ele>2223</ele>
        <time>2012-03-31T10:00:04Z</time>
      </trkpt>
      <trkpt lat="42.8353" lon="0.05193">
        <ele>2223</ele>
        <time>2012-03-31T10:00:08Z</time>
      </trkpt>
      <trkpt lat="42.83531" lon="0.05189">
        <ele>2223</ele>
        <time>2012-03-31T10:00:12Z</time>
      </trkpt>
      <trkpt lat="42.83531" lon="0.05186">
        <ele>2223</ele>
        <time>2012-03-31T10:00:16Z</time>
      </trkpt>
      <trkpt lat="42.83532" lon="0.05183">
        <ele>2225</ele>
        <time>2012-03-31T10:00:20Z</time>
      </trkpt>
      <trkpt lat="42.83532" lon="0.05179">
        <ele>2226</ele>
        <time>2012-03-31T10:00:24Z</time>
      </trkpt>
      <trkpt lat="42.83531" lon="0.05176">
        <ele>2226</ele>
        <time>2012-03-31T10:00:28Z</time>
      </trkpt>
      <trkpt lat="42.83529" lon="0.05173">
        <ele>2226</ele>
        <time>2012-03-31T10:00:33Z</time>
      </trkpt>
      <trkpt lat="42.83528" lon="0.05169">
        <ele>2226</ele>
        <time>2012-03-31T10:00:37Z</time>
      </trkpt>
      <trkpt lat="42.83527" lon="0.05166">
        <ele>2226</ele>
        <time>2012-03-31T10:00:41Z</time>
      </trkpt>
      <trkpt lat="42.83526" lon="0.05162">
        <ele>2226</ele>
        <time>2012-03-31T10:00:46Z</time>
      </trkpt>
      <trkpt lat="42.83527" lon="0.05158">
        <ele>2226</ele>
        <time>2012-03-31T10:00:50Z</time>
      </trkpt>
      <trkpt lat="42.83527" lon="0.05156">
        <ele>2228</ele>
        <time>2012-03-31T10:00:53Z</time>
      </trkpt>
      <trkpt lat="42.83525" lon="0.05153">
        <ele>2229</ele>
        <time>2012-03-31T10:00:57Z</time>
      </trkpt>
      <trkpt lat="42.83525" lon="0.05151">
        <ele>2229</ele>
        <time>2012-03-31T10:01:00Z</time>
      </trkpt>
      <trkpt lat="42.83525" lon="0.0515">
        <ele>2229</ele>
        <time>2012-03-31T10:01:03Z</time>
      </trkpt>
      <trkpt lat="42.83525" lon="0.05148">
        <ele>2229</ele>
        <time>2012-03-31T10:01:17Z</time>
      </trkpt>
      <trkpt lat="42.83525" lon="0.05144">
        <ele>2229</ele>
        <time>2012-03-31T10:01:22Z</time>
      </trkpt>
      <trkpt lat="42.83524" lon="0.05145">
        <ele>2230</ele>
        <time>2012-03-31T10:01:36Z</time>
      </trkpt>
      <trkpt lat="42.83522" lon="0.05147">
        <ele>2230</ele>
        <time>2012-03-31T10:01:39Z</time>
      </trkpt>
      <trkpt lat="42.8352" lon="0.05148">
        <ele>2230</ele>
        <time>2012-03-31T10:01:42Z</time>
      </trkpt>
      <trkpt lat="42.83518" lon="0.05151">
        <ele>2230</ele>
        <time>2012-03-31T10:01:47Z</time>
      </trkpt>
      <trkpt lat="42.83517" lon="0.05153">
        <ele>2231</ele>
        <time>2012-03-31T10:01:50Z</time>
      </trkpt>
      <trkpt lat="42.83515" lon="0.05154">
        <ele>2231</ele>
        <time>2012-03-31T10:01:53Z</time>
      </trkpt>
      <trkpt lat="42.83514" lon="0.05156">
        <ele>2232</ele>
        <time>2012-03-31T10:01:56Z</time>
      </trkpt>
      <trkpt lat="42.83514" lon="0.05157">
        <ele>2234</ele>
        <time>2012-03-31T10:02:25Z</time>
      </trkpt>
      <trkpt lat="42.83512" lon="0.05159">
        <ele>2234</ele>
        <time>2012-03-31T10:02:29Z</time>
      </trkpt>
      <trkpt lat="42.8351" lon="0.05161">
        <ele>2235</ele>
        <time>2012-03-31T10:02:34Z</time>
      </trkpt>
      <trkpt lat="42.83507" lon="0.05161">
        <ele>2236</ele>
        <time>2012-03-31T10:02:38Z</time>
      </trkpt>
      <trkpt lat="42.83506" lon="0.05163">
        <ele>2237</ele>
        <time>2012-03-31T10:02:42Z</time>
      </trkpt>
      <trkpt lat="42.83504" lon="0.05165">
        <ele>2238</ele>
        <time>2012-03-31T10:02:47Z</time>
      </trkpt>
      <trkpt lat="42.83502" lon="0.05166">
        <ele>2239</ele>
        <time>2012-03-31T10:02:51Z</time>
      </trkpt>
      <trkpt lat="42.83501" lon="0.05167">
        <ele>2240</ele>
        <time>2012-03-31T10:02:54Z</time>
      </trkpt>
      <trkpt lat="42.835" lon="0.05167">
        <ele>2241</ele>
        <time>2012-03-31T10:02:59Z</time>
      </trkpt>
      <trkpt lat="42.835" lon="0.0517">
        <ele>2241</ele>
        <time>2012-03-31T10:03:02Z</time>
      </trkpt>
      <trkpt lat="42.835" lon="0.05168">
        <ele>2243</ele>
        <time>2012-03-31T10:03:18Z</time>
      </trkpt>
      <trkpt lat="42.83499" lon="0.05165">
        <ele>2243</ele>
        <time>2012-03-31T10:03:21Z</time>
      </trkpt>
      <trkpt lat="42.83498" lon="0.05161">
        <ele>2243</ele>
        <time>2012-03-31T10:03:25Z</time>
      </trkpt>
      <trkpt lat="42.83499" lon="0.05157">
        <ele>2243</ele>
        <time>2012-03-31T10:03:29Z</time>
      </trkpt>
      <trkpt lat="42.83499" lon="0.05154">
        <ele>2245</ele>
        <time>2012-03-31T10:03:33Z</time>
      </trkpt>
      <trkpt lat="42.83498" lon="0.0515">
        <ele>2245</ele>
        <time>2012-03-31T10:03:37Z</time>
      </trkpt>
      <trkpt lat="42.83496" lon="0.05147">
        <ele>2245</ele>
        <time>2012-03-31T10:03:41Z</time>
      </trkpt>
      <trkpt lat="42.83495" lon="0.05144">
        <ele>2245</ele>
        <time>2012-03-31T10:03:45Z</time>
      </trkpt>
      <trkpt lat="42.83494" lon="0.05144">
        <ele>2245</ele>
        <time>2012-03-31T10:03:53Z</time>
      </trkpt>
      <trkpt lat="42.83493" lon="0.05145">
        <ele>2245</ele>
        <time>2012-03-31T10:03:59Z</time>
      </trkpt>
      <trkpt lat="42.83497" lon="0.05145">
        <ele>2245</ele>
        <time>2012-03-31T10:04:03Z</time>
      </trkpt>
      <trkpt lat="42.83499" lon="0.05144">
        <ele>2247</ele>
        <time>2012-03-31T10:04:08Z</time>
      </trkpt>
      <trkpt lat="42.835" lon="0.05143">
        <ele>2249</ele>
        <time>2012-03-31T10:04:14Z</time>
      </trkpt>
      <trkpt lat="42.83498" lon="0.0514">
        <ele>2250</ele>
        <time>2012-03-31T10:04:19Z</time>
      </trkpt>
      <trkpt lat="42.83498" lon="0.05137">
        <ele>2250</ele>
        <time>2012-03-31T10:04:23Z</time>
      </trkpt>
      <trkpt lat="42.83496" lon="0.05134">
        <ele>2250</ele>
        <time>2012-03-31T10:04:27Z</time>
      </trkpt>
      <trkpt lat="42.83495" lon="0.05131">
        <ele>2250</ele>
        <time>2012-03-31T10:04:31Z</time>
      </trkpt>
      <trkpt lat="42.83494" lon="0.05128">
        <ele>2250</ele>
        <time>2012-03-31T10:04:35Z</time>
      </trkpt>
      <trkpt lat="42.83492" lon="0.05127">
        <ele>2251</ele>
        <time>2012-03-31T10:04:48Z</time>
      </trkpt>
      <trkpt lat="42.83492" lon="0.05128">
        <ele>2251</ele>
        <time>2012-03-31T10:04:52Z</time>
      </trkpt>
      <trkpt lat="42.83492" lon="0.0513">
        <ele>2251</ele>
        <time>2012-03-31T10:04:56Z</time>
      </trkpt>
      <trkpt lat="42.83491" lon="0.05131">
        <ele>2251</ele>
        <time>2012-03-31T10:04:59Z</time>
      </trkpt>
      <trkpt lat="42.8349" lon="0.05133">
        <ele>2251</ele>
        <time>2012-03-31T10:05:02Z</time>
      </trkpt>
      <trkpt lat="42.83489" lon="0.05135">
        <ele>2251</ele>
        <time>2012-03-31T10:05:05Z</time>
      </trkpt>
      <trkpt lat="42.83488" lon="0.05137">
        <ele>2251</ele>
        <time>2012-03-31T10:05:10Z</time>
      </trkpt>
      <trkpt lat="42.83486" lon="0.0514">
        <ele>2251</ele>
        <time>2012-03-31T10:05:14Z</time>
      </trkpt>
      <trkpt lat="42.83485" lon="0.05141">
        <ele>2251</ele>
        <time>2012-03-31T10:05:17Z</time>
      </trkpt>
      <trkpt lat="42.83484" lon="0.05144">
        <ele>2252</ele>
        <time>2012-03-31T10:05:21Z</time>
      </trkpt>
      <trkpt lat="42.83483" lon="0.05146">
        <ele>2253</ele>
        <time>2012-03-31T10:05:27Z</time>
      </trkpt>
      <trkpt lat="42.83483" lon="0.05147">
        <ele>2255</ele>
        <time>2012-03-31T10:05:55Z</time>
      </trkpt>
      <trkpt lat="42.83482" lon="0.05149">
        <ele>2255</ele>
        <time>2012-03-31T10:05:58Z</time>
      </trkpt>
      <trkpt lat="42.83479" lon="0.05152">
        <ele>2255</ele>
        <time>2012-03-31T10:06:03Z</time>
      </trkpt>
      <trkpt lat="42.83478" lon="0.05153">
        <ele>2255</ele>
        <time>2012-03-31T10:06:06Z</time>
      </trkpt>
      <trkpt lat="42.83477" lon="0.05155">
        <ele>2256</ele>
        <time>2012-03-31T10:06:09Z</time>
      </trkpt>
      <trkpt lat="42.83477" lon="0.05157">
        <ele>2256</ele>
        <time>2012-03-31T10:06:12Z</time>
      </trkpt>
      <trkpt lat="42.83475" lon="0.05159">
        <ele>2257</ele>
        <time>2012-03-31T10:06:16Z</time>
      </trkpt>
      <trkpt lat="42.83474" lon="0.0516">
        <ele>2257</ele>
        <time>2012-03-31T10:06:19Z</time>
      </trkpt>
      <trkpt lat="42.83473" lon="0.05161">
        <ele>2258</ele>
        <time>2012-03-31T10:06:22Z</time>
      </trkpt>
      <trkpt lat="42.8347" lon="0.05163">
        <ele>2258</ele>
        <time>2012-03-31T10:06:27Z</time>
      </trkpt>
      <trkpt lat="42.83469" lon="0.05165">
        <ele>2259</ele>
        <time>2012-03-31T10:06:51Z</time>
      </trkpt>
      <trkpt lat="42.83467" lon="0.05167">
        <ele>2259</ele>
        <time>2012-03-31T10:06:54Z</time>
      </trkpt>
      <trkpt lat="42.83466" lon="0.05168">
        <ele>2259</ele>
        <time>2012-03-31T10:06:57Z</time>
      </trkpt>
      <trkpt lat="42.83465" lon="0.05169">
        <ele>2260</ele>
        <time>2012-03-31T10:07:00Z</time>
      </trkpt>
      <trkpt lat="42.83464" lon="0.05171">
        <ele>2260</ele>
        <time>2012-03-31T10:07:03Z</time>
      </trkpt>
      <trkpt lat="42.83463" lon="0.05172">
        <ele>2261</ele>
        <time>2012-03-31T10:07:06Z</time>
      </trkpt>
      <trkpt lat="42.83463" lon="0.0517">
        <ele>2263</ele>
        <time>2012-03-31T10:07:18Z</time>
      </trkpt>
      <trkpt lat="42.83462" lon="0.05167">
        <ele>2263</ele>
        <time>2012-03-31T10:07:22Z</time>
      </trkpt>
      <trkpt lat="42.83461" lon="0.05163">
        <ele>2263</ele>
        <time>2012-03-31T10:07:26Z</time>
      </trkpt>
      <trkpt lat="42.83459" lon="0.05159">
        <ele>2263</ele>
        <time>2012-03-31T10:07:30Z</time>
      </trkpt>
      <trkpt lat="42.83458" lon="0.05157">
        <ele>2263</ele>
        <time>2012-03-31T10:07:48Z</time>
      </trkpt>
      <trkpt lat="42.83456" lon="0.05156">
        <ele>2264</ele>
        <time>2012-03-31T10:08:22Z</time>
      </trkpt>
      <trkpt lat="42.83454" lon="0.05152">
        <ele>2264</ele>
        <time>2012-03-31T10:08:26Z</time>
      </trkpt>
      <trkpt lat="42.83453" lon="0.05149">
        <ele>2264</ele>
        <time>2012-03-31T10:08:30Z</time>
      </trkpt>
      <trkpt lat="42.83453" lon="0.05145">
        <ele>2264</ele>
        <time>2012-03-31T10:08:34Z</time>
      </trkpt>
      <trkpt lat="42.83453" lon="0.05142">
        <ele>2265</ele>
        <time>2012-03-31T10:08:38Z</time>
      </trkpt>
      <trkpt lat="42.83453" lon="0.05138">
        <ele>2266</ele>
        <time>2012-03-31T10:08:42Z</time>
      </trkpt>
      <trkpt lat="42.83452" lon="0.05136">
        <ele>2266</ele>
        <time>2012-03-31T10:08:45Z</time>
      </trkpt>
      <trkpt lat="42.83451" lon="0.05133">
        <ele>2266</ele>
        <time>2012-03-31T10:08:49Z</time>
      </trkpt>
      <trkpt lat="42.8345" lon="0.05129">
        <ele>2267</ele>
        <time>2012-03-31T10:08:54Z</time>
      </trkpt>
      <trkpt lat="42.83448" lon="0.05126">
        <ele>2268</ele>
        <time>2012-03-31T10:08:58Z</time>
      </trkpt>
      <trkpt lat="42.83446" lon="0.05125">
        <ele>2268</ele>
        <time>2012-03-31T10:09:01Z</time>
      </trkpt>
      <trkpt lat="42.83447" lon="0.05124">
        <ele>2269</ele>
        <time>2012-03-31T10:09:26Z</time>
      </trkpt>
      <trkpt lat="42.83445" lon="0.05123">
        <ele>2270</ele>
        <time>2012-03-31T10:09:46Z</time>
      </trkpt>
      <trkpt lat="42.83443" lon="0.05121">
        <ele>2270</ele>
        <time>2012-03-31T10:09:50Z</time>
      </trkpt>
      <trkpt lat="42.83442" lon="0.05119">
        <ele>2271</ele>
        <time>2012-03-31T10:09:53Z</time>
      </trkpt>
      <trkpt lat="42.8344" lon="0.05118">
        <ele>2271</ele>
        <time>2012-03-31T10:09:56Z</time>
      </trkpt>
      <trkpt lat="42.83438" lon="0.05116">
        <ele>2272</ele>
        <time>2012-03-31T10:10:14Z</time>
      </trkpt>
      <trkpt lat="42.83436" lon="0.05113">
        <ele>2272</ele>
        <time>2012-03-31T10:10:18Z</time>
      </trkpt>
      <trkpt lat="42.83435" lon="0.05111">
        <ele>2272</ele>
        <time>2012-03-31T10:10:21Z</time>
      </trkpt>
      <trkpt lat="42.83432" lon="0.05107">
        <ele>2273</ele>
        <time>2012-03-31T10:10:28Z</time>
      </trkpt>
      <trkpt lat="42.8343" lon="0.05104">
        <ele>2274</ele>
        <time>2012-03-31T10:10:34Z</time>
      </trkpt>
      <trkpt lat="42.83428" lon="0.05101">
        <ele>2275</ele>
        <time>2012-03-31T10:10:39Z</time>
      </trkpt>
      <trkpt lat="42.83427" lon="0.05099">
        <ele>2276</ele>
        <time>2012-03-31T10:10:43Z</time>
      </trkpt>
      <trkpt lat="42.83426" lon="0.05097">
        <ele>2276</ele>
        <time>2012-03-31T10:10:46Z</time>
      </trkpt>
      <trkpt lat="42.83425" lon="0.05096">
        <ele>2277</ele>
        <time>2012-03-31T10:10:49Z</time>
      </trkpt>
      <trkpt lat="42.83424" lon="0.05094">
        <ele>2277</ele>
        <time>2012-03-31T10:10:52Z</time>
      </trkpt>
      <trkpt lat="42.83423" lon="0.05092">
        <ele>2278</ele>
        <time>2012-03-31T10:10:59Z</time>
      </trkpt>
      <trkpt lat="42.83422" lon="0.05091">
        <ele>2279</ele>
        <time>2012-03-31T10:11:28Z</time>
      </trkpt>
      <trkpt lat="42.8342" lon="0.05087">
        <ele>2279</ele>
        <time>2012-03-31T10:11:34Z</time>
      </trkpt>
      <trkpt lat="42.83418" lon="0.05084">
        <ele>2279</ele>
        <time>2012-03-31T10:11:39Z</time>
      </trkpt>
      <trkpt lat="42.83416" lon="0.05081">
        <ele>2280</ele>
        <time>2012-03-31T10:11:45Z</time>
      </trkpt>
      <trkpt lat="42.83413" lon="0.05077">
        <ele>2281</ele>
        <time>2012-03-31T10:11:52Z</time>
      </trkpt>
      <trkpt lat="42.8341" lon="0.05075">
        <ele>2282</ele>
        <time>2012-03-31T10:11:57Z</time>
      </trkpt>
      <trkpt lat="42.83407" lon="0.05074">
        <ele>2284</ele>
        <time>2012-03-31T10:12:03Z</time>
      </trkpt>
      <trkpt lat="42.83406" lon="0.05075">
        <ele>2285</ele>
        <time>2012-03-31T10:12:41Z</time>
      </trkpt>
      <trkpt lat="42.83405" lon="0.05074">
        <ele>2285</ele>
        <time>2012-03-31T10:13:04Z</time>
      </trkpt>
      <trkpt lat="42.83402" lon="0.05074">
        <ele>2285</ele>
        <time>2012-03-31T10:13:08Z</time>
      </trkpt>
      <trkpt lat="42.83401" lon="0.05074">
        <ele>2285</ele>
        <time>2012-03-31T10:13:11Z</time>
      </trkpt>
      <trkpt lat="42.83398" lon="0.05073">
        <ele>2285</ele>
        <time>2012-03-31T10:13:16Z</time>
      </trkpt>
      <trkpt lat="42.83397" lon="0.05073">
        <ele>2286</ele>
        <time>2012-03-31T10:13:19Z</time>
      </trkpt>
      <trkpt lat="42.83395" lon="0.05073">
        <ele>2286</ele>
        <time>2012-03-31T10:13:22Z</time>
      </trkpt>
      <trkpt lat="42.83393" lon="0.05072">
        <ele>2287</ele>
        <time>2012-03-31T10:13:26Z</time>
      </trkpt>
      <trkpt lat="42.8339" lon="0.05073">
        <ele>2288</ele>
        <time>2012-03-31T10:13:30Z</time>
      </trkpt>
      <trkpt lat="42.83388" lon="0.05072">
        <ele>2289</ele>
        <time>2012-03-31T10:13:34Z</time>
      </trkpt>
      <trkpt lat="42.83385" lon="0.05071">
        <ele>2291</ele>
        <time>2012-03-31T10:13:39Z</time>
      </trkpt>
      <trkpt lat="42.83384" lon="0.05071">
        <ele>2293</ele>
        <time>2012-03-31T10:14:10Z</time>
      </trkpt>
      <trkpt lat="42.83382" lon="0.05071">
        <ele>2293</ele>
        <time>2012-03-31T10:14:14Z</time>
      </trkpt>
      <trkpt lat="42.83379" lon="0.0507">
        <ele>2295</ele>
        <time>2012-03-31T10:14:18Z</time>
      </trkpt>
      <trkpt lat="42.83378" lon="0.0507">
        <ele>2295</ele>
        <time>2012-03-31T10:14:21Z</time>
      </trkpt>
      <trkpt lat="42.83376" lon="0.0507">
        <ele>2296</ele>
        <time>2012-03-31T10:14:25Z</time>
      </trkpt>
      <trkpt lat="42.83373" lon="0.0507">
        <ele>2297</ele>
        <time>2012-03-31T10:14:30Z</time>
      </trkpt>
      <trkpt lat="42.8337" lon="0.0507">
        <ele>2298</ele>
        <time>2012-03-31T10:14:34Z</time>
      </trkpt>
      <trkpt lat="42.83369" lon="0.0507">
        <ele>2299</ele>
        <time>2012-03-31T10:14:37Z</time>
      </trkpt>
      <trkpt lat="42.83369" lon="0.05071">
        <ele>2299</ele>
        <time>2012-03-31T10:15:03Z</time>
      </trkpt>
      <trkpt lat="42.83368" lon="0.05072">
        <ele>2299</ele>
        <time>2012-03-31T10:15:16Z</time>
      </trkpt>
      <trkpt lat="42.83365" lon="0.05071">
        <ele>2299</ele>
        <time>2012-03-31T10:15:20Z</time>
      </trkpt>
      <trkpt lat="42.83363" lon="0.05069">
        <ele>2299</ele>
        <time>2012-03-31T10:15:24Z</time>
      </trkpt>
      <trkpt lat="42.8336" lon="0.05068">
        <ele>2300</ele>
        <time>2012-03-31T10:15:28Z</time>
      </trkpt>
      <trkpt lat="42.83357" lon="0.05066">
        <ele>2301</ele>
        <time>2012-03-31T10:15:33Z</time>
      </trkpt>
      <trkpt lat="42.83354" lon="0.05064">
        <ele>2302</ele>
        <time>2012-03-31T10:15:37Z</time>
      </trkpt>
      <trkpt lat="42.83352" lon="0.05063">
        <ele>2302</ele>
        <time>2012-03-31T10:15:41Z</time>
      </trkpt>
      <trkpt lat="42.83349" lon="0.05063">
        <ele>2303</ele>
        <time>2012-03-31T10:15:45Z</time>
      </trkpt>
      <trkpt lat="42.83346" lon="0.05062">
        <ele>2304</ele>
        <time>2012-03-31T10:15:49Z</time>
      </trkpt>
      <trkpt lat="42.83343" lon="0.05062">
        <ele>2305</ele>
        <time>2012-03-31T10:15:53Z</time>
      </trkpt>
      <trkpt lat="42.83339" lon="0.05063">
        <ele>2306</ele>
        <time>2012-03-31T10:16:37Z</time>
      </trkpt>
      <trkpt lat="42.83336" lon="0.05063">
        <ele>2306</ele>
        <time>2012-03-31T10:16:41Z</time>
      </trkpt>
      <trkpt lat="42.83333" lon="0.05062">
        <ele>2307</ele>
        <time>2012-03-31T10:16:45Z</time>
      </trkpt>
      <trkpt lat="42.83329" lon="0.05063">
        <ele>2307</ele>
        <time>2012-03-31T10:16:49Z</time>
      </trkpt>
      <trkpt lat="42.83326" lon="0.05064">
        <ele>2307</ele>
        <time>2012-03-31T10:16:53Z</time>
      </trkpt>
      <trkpt lat="42.83322" lon="0.05065">
        <ele>2307</ele>
        <time>2012-03-31T10:16:57Z</time>
      </trkpt>
      <trkpt lat="42.83318" lon="0.05066">
        <ele>2307</ele>
        <time>2012-03-31T10:17:01Z</time>
      </trkpt>
      <trkpt lat="42.83315" lon="0.05068">
        <ele>2308</ele>
        <time>2012-03-31T10:17:05Z</time>
      </trkpt>
      <trkpt lat="42.83312" lon="0.05071">
        <ele>2308</ele>
        <time>2012-03-31T10:17:09Z</time>
      </trkpt>
      <trkpt lat="42.83308" lon="0.05073">
        <ele>2308</ele>
        <time>2012-03-31T10:17:13Z</time>
      </trkpt>
      <trkpt lat="42.83305" lon="0.05074">
        <ele>2309</ele>
        <time>2012-03-31T10:17:17Z</time>
      </trkpt>
      <trkpt lat="42.83302" lon="0.05075">
        <ele>2309</ele>
        <time>2012-03-31T10:17:21Z</time>
      </trkpt>
      <trkpt lat="42.83299" lon="0.05075">
        <ele>2309</ele>
        <time>2012-03-31T10:17:24Z</time>
      </trkpt>
      <trkpt lat="42.83296" lon="0.05076">
        <ele>2309</ele>
        <time>2012-03-31T10:17:28Z</time>
      </trkpt>
      <trkpt lat="42.83292" lon="0.05076">
        <ele>2310</ele>
        <time>2012-03-31T10:17:32Z</time>
      </trkpt>
      <trkpt lat="42.8329" lon="0.05076">
        <ele>2310</ele>
        <time>2012-03-31T10:17:35Z</time>
      </trkpt>
      <trkpt lat="42.83286" lon="0.05075">
        <ele>2311</ele>
        <time>2012-03-31T10:17:39Z</time>
      </trkpt>
      <trkpt lat="42.83282" lon="0.05077">
        <ele>2311</ele>
        <time>2012-03-31T10:17:43Z</time>
      </trkpt>
      <trkpt lat="42.8328" lon="0.0508">
        <ele>2311</ele>
        <time>2012-03-31T10:17:47Z</time>
      </trkpt>
      <trkpt lat="42.83281" lon="0.05082">
        <ele>2311</ele>
        <time>2012-03-31T10:18:01Z</time>
      </trkpt>
      <trkpt lat="42.83281" lon="0.05079">
        <ele>2311</ele>
        <time>2012-03-31T10:18:06Z</time>
      </trkpt>
      <trkpt lat="42.83279" lon="0.05075">
        <ele>2311</ele>
        <time>2012-03-31T10:18:10Z</time>
      </trkpt>
      <trkpt lat="42.83278" lon="0.05074">
        <ele>2311</ele>
        <time>2012-03-31T10:18:18Z</time>
      </trkpt>
      <trkpt lat="42.83277" lon="0.05073">
        <ele>2311</ele>
        <time>2012-03-31T10:18:35Z</time>
      </trkpt>
      <trkpt lat="42.83276" lon="0.05072">
        <ele>2311</ele>
        <time>2012-03-31T10:18:57Z</time>
      </trkpt>
      <trkpt lat="42.83272" lon="0.05072">
        <ele>2311</ele>
        <time>2012-03-31T10:19:01Z</time>
      </trkpt>
      <trkpt lat="42.83269" lon="0.05072">
        <ele>2311</ele>
        <time>2012-03-31T10:19:05Z</time>
      </trkpt>
      <trkpt lat="42.83268" lon="0.05074">
        <ele>2311</ele>
        <time>2012-03-31T10:19:08Z</time>
      </trkpt>
      <trkpt lat="42.83266" lon="0.05077">
        <ele>2311</ele>
        <time>2012-03-31T10:19:12Z</time>
      </trkpt>
      <trkpt lat="42.83265" lon="0.05079">
        <ele>2311</ele>
        <time>2012-03-31T10:19:16Z</time>
      </trkpt>
      <trkpt lat="42.83264" lon="0.05082">
        <ele>2311</ele>
        <time>2012-03-31T10:19:20Z</time>
      </trkpt>
      <trkpt lat="42.83262" lon="0.05084">
        <ele>2311</ele>
        <time>2012-03-31T10:19:24Z</time>
      </trkpt>
      <trkpt lat="42.8326" lon="0.05088">
        <ele>2311</ele>
        <time>2012-03-31T10:19:28Z</time>
      </trkpt>
      <trkpt lat="42.83258" lon="0.05091">
        <ele>2311</ele>
        <time>2012-03-31T10:19:33Z</time>
      </trkpt>
      <trkpt lat="42.83257" lon="0.05093">
        <ele>2312</ele>
        <time>2012-03-31T10:19:36Z</time>
      </trkpt>
      <trkpt lat="42.83255" lon="0.05095">
        <ele>2313</ele>
        <time>2012-03-31T10:19:39Z</time>
      </trkpt>
      <trkpt lat="42.83253" lon="0.05096">
        <ele>2313</ele>
        <time>2012-03-31T10:19:42Z</time>
      </trkpt>
      <trkpt lat="42.83251" lon="0.05098">
        <ele>2314</ele>
        <time>2012-03-31T10:19:46Z</time>
      </trkpt>
      <trkpt lat="42.83252" lon="0.05099">
        <ele>2316</ele>
        <time>2012-03-31T10:20:19Z</time>
      </trkpt>
      <trkpt lat="42.83251" lon="0.051">
        <ele>2316</ele>
        <time>2012-03-31T10:20:25Z</time>
      </trkpt>
      <trkpt lat="42.83249" lon="0.05101">
        <ele>2316</ele>
        <time>2012-03-31T10:20:29Z</time>
      </trkpt>
      <trkpt lat="42.83246" lon="0.05102">
        <ele>2317</ele>
        <time>2012-03-31T10:20:33Z</time>
      </trkpt>
      <trkpt lat="42.83244" lon="0.05103">
        <ele>2318</ele>
        <time>2012-03-31T10:20:37Z</time>
      </trkpt>
      <trkpt lat="42.83241" lon="0.05103">
        <ele>2319</ele>
        <time>2012-03-31T10:20:41Z</time>
      </trkpt>
      <trkpt lat="42.83239" lon="0.05103">
        <ele>2320</ele>
        <time>2012-03-31T10:20:44Z</time>
      </trkpt>
      <trkpt lat="42.83238" lon="0.05102">
        <ele>2320</ele>
        <time>2012-03-31T10:20:47Z</time>
      </trkpt>
      <trkpt lat="42.83235" lon="0.051">
        <ele>2321</ele>
        <time>2012-03-31T10:20:52Z</time>
      </trkpt>
      <trkpt lat="42.83232" lon="0.05098">
        <ele>2323</ele>
        <time>2012-03-31T10:20:57Z</time>
      </trkpt>
      <trkpt lat="42.83229" lon="0.05097">
        <ele>2324</ele>
        <time>2012-03-31T10:21:04Z</time>
      </trkpt>
      <trkpt lat="42.8323" lon="0.05097">
        <ele>2325</ele>
        <time>2012-03-31T10:21:14Z</time>
      </trkpt>
      <trkpt lat="42.8323" lon="0.05096">
        <ele>2325</ele>
        <time>2012-03-31T10:21:22Z</time>
      </trkpt>
      <trkpt lat="42.83231" lon="0.05096">
        <ele>2312</ele>
        <time>2012-03-31T10:21:38Z</time>
      </trkpt>
      <trkpt lat="42.83233" lon="0.051">
        <ele>2309</ele>
        <time>2012-03-31T10:21:53Z</time>
      </trkpt>
      <trkpt lat="42.83231" lon="0.051">
        <ele>2308</ele>
        <time>2012-03-31T10:21:58Z</time>
      </trkpt>
      <trkpt lat="42.83229" lon="0.051">
        <ele>2304</ele>
        <time>2012-03-31T10:22:04Z</time>
      </trkpt>
      <trkpt lat="42.83231" lon="0.05103">
        <ele>2304</ele>
        <time>2012-03-31T10:22:07Z</time>
      </trkpt>
      <trkpt lat="42.83232" lon="0.0511">
        <ele>2307</ele>
        <time>2012-03-31T10:22:11Z</time>
      </trkpt>
      <trkpt lat="42.83232" lon="0.05109">
        <ele>2308</ele>
        <time>2012-03-31T10:22:22Z</time>
      </trkpt>
      <trkpt lat="42.83232" lon="0.05108">
        <ele>2302</ele>
        <time>2012-03-31T10:22:25Z</time>
      </trkpt>
      <trkpt lat="42.8323" lon="0.05108">
        <ele>2295</ele>
        <time>2012-03-31T10:22:31Z</time>
      </trkpt>
      <trkpt lat="42.83232" lon="0.05108">
        <ele>2291</ele>
        <time>2012-03-31T10:22:35Z</time>
      </trkpt>
      <trkpt lat="42.83232" lon="0.05102">
        <ele>2288</ele>
        <time>2012-03-31T10:22:38Z</time>
      </trkpt>
      <trkpt lat="42.83232" lon="0.05099">
        <ele>2284</ele>
        <time>2012-03-31T10:22:42Z</time>
      </trkpt>
      <trkpt lat="42.83232" lon="0.05098">
        <ele>2283</ele>
        <time>2012-03-31T10:22:45Z</time>
      </trkpt>
      <trkpt lat="42.83231" lon="0.05096">
        <ele>2287</ele>
        <time>2012-03-31T10:22:54Z</time>
      </trkpt>
      <trkpt lat="42.8323" lon="0.05096">
        <ele>2291</ele>
        <time>2012-03-31T10:22:58Z</time>
      </trkpt>
      <trkpt lat="42.83229" lon="0.05093">
        <ele>2296</ele>
        <time>2012-03-31T10:23:03Z</time>
      </trkpt>
      <trkpt lat="42.83228" lon="0.05091">
        <ele>2302</ele>
        <time>2012-03-31T10:23:11Z</time>
      </trkpt>
      <trkpt lat="42.83229" lon="0.05093">
        <ele>2305</ele>
        <time>2012-03-31T10:23:14Z</time>
      </trkpt>
      <trkpt lat="42.83228" lon="0.05095">
        <ele>2312</ele>
        <time>2012-03-31T10:23:21Z</time>
      </trkpt>
      <trkpt lat="42.83228" lon="0.05096">
        <ele>2316</ele>
        <time>2012-03-31T10:23:25Z</time>
      </trkpt>
      <trkpt lat="42.83229" lon="0.05097">
        <ele>2316</ele>
        <time>2012-03-31T10:23:33Z</time>
      </trkpt>
      <trkpt lat="42.83228" lon="0.05096">
        <ele>2316</ele>
        <time>2012-03-31T10:23:36Z</time>
      </trkpt>
      <trkpt lat="42.83226" lon="0.05096">
        <ele>2316</ele>
        <time>2012-03-31T10:23:42Z</time>
      </trkpt>
      <trkpt lat="42.83227" lon="0.05097">
        <ele>2316</ele>
        <time>2012-03-31T10:23:47Z</time>
      </trkpt>
      <trkpt lat="42.83226" lon="0.05097">
        <ele>2319</ele>
        <time>2012-03-31T10:23:56Z</time>
      </trkpt>
      <trkpt lat="42.83223" lon="0.05095">
        <ele>2320</ele>
        <time>2012-03-31T10:24:00Z</time>
      </trkpt>
      <trkpt lat="42.83222" lon="0.05096">
        <ele>2321</ele>
        <time>2012-03-31T10:24:03Z</time>
      </trkpt>
      <trkpt lat="42.8322" lon="0.05097">
        <ele>2323</ele>
        <time>2012-03-31T10:24:08Z</time>
      </trkpt>
      <trkpt lat="42.83219" lon="0.051">
        <ele>2325</ele>
        <time>2012-03-31T10:24:12Z</time>
      </trkpt>
      <trkpt lat="42.83218" lon="0.05104">
        <ele>2327</ele>
        <time>2012-03-31T10:24:16Z</time>
      </trkpt>
      <trkpt lat="42.83218" lon="0.05107">
        <ele>2329</ele>
        <time>2012-03-31T10:24:20Z</time>
      </trkpt>
      <trkpt lat="42.83218" lon="0.05111">
        <ele>2330</ele>
        <time>2012-03-31T10:24:24Z</time>
      </trkpt>
      <trkpt lat="42.83218" lon="0.05114">
        <ele>2330</ele>
        <time>2012-03-31T10:24:28Z</time>
      </trkpt>
      <trkpt lat="42.83217" lon="0.05117">
        <ele>2333</ele>
        <time>2012-03-31T10:24:47Z</time>
      </trkpt>
      <trkpt lat="42.83217" lon="0.0512">
        <ele>2334</ele>
        <time>2012-03-31T10:24:51Z</time>
      </trkpt>
      <trkpt lat="42.83216" lon="0.05123">
        <ele>2334</ele>
        <time>2012-03-31T10:24:55Z</time>
      </trkpt>
      <trkpt lat="42.83216" lon="0.05127">
        <ele>2335</ele>
        <time>2012-03-31T10:24:59Z</time>
      </trkpt>
      <trkpt lat="42.83216" lon="0.05129">
        <ele>2335</ele>
        <time>2012-03-31T10:25:02Z</time>
      </trkpt>
      <trkpt lat="42.83215" lon="0.05132">
        <ele>2335</ele>
        <time>2012-03-31T10:25:06Z</time>
      </trkpt>
      <trkpt lat="42.83215" lon="0.05135">
        <ele>2335</ele>
        <time>2012-03-31T10:25:17Z</time>
      </trkpt>
      <trkpt lat="42.83215" lon="0.05137">
        <ele>2335</ele>
        <time>2012-03-31T10:25:34Z</time>
      </trkpt>
      <trkpt lat="42.83216" lon="0.05138">
        <ele>2335</ele>
        <time>2012-03-31T10:25:38Z</time>
      </trkpt>
      <trkpt lat="42.83215" lon="0.0514">
        <ele>2335</ele>
        <time>2012-03-31T10:25:42Z</time>
      </trkpt>
      <trkpt lat="42.83213" lon="0.05141">
        <ele>2337</ele>
        <time>2012-03-31T10:25:46Z</time>
      </trkpt>
      <trkpt lat="42.83214" lon="0.05144">
        <ele>2341</ele>
        <time>2012-03-31T10:25:50Z</time>
      </trkpt>
      <trkpt lat="42.83215" lon="0.05142">
        <ele>2344</ele>
        <time>2012-03-31T10:25:55Z</time>
      </trkpt>
      <trkpt lat="42.83215" lon="0.0514">
        <ele>2344</ele>
        <time>2012-03-31T10:26:00Z</time>
      </trkpt>
      <trkpt lat="42.83215" lon="0.05139">
        <ele>2344</ele>
        <time>2012-03-31T10:26:06Z</time>
      </trkpt>
      <trkpt lat="42.83215" lon="0.0514">
        <ele>2344</ele>
        <time>2012-03-31T10:26:14Z</time>
      </trkpt>
      <trkpt lat="42.83214" lon="0.05142">
        <ele>2344</ele>
        <time>2012-03-31T10:26:17Z</time>
      </trkpt>
      <trkpt lat="42.83213" lon="0.05142">
        <ele>2344</ele>
        <time>2012-03-31T10:26:30Z</time>
      </trkpt>
      <trkpt lat="42.83212" lon="0.0514">
        <ele>2343</ele>
        <time>2012-03-31T10:26:33Z</time>
      </trkpt>
      <trkpt lat="42.8321" lon="0.05139">
        <ele>2343</ele>
        <time>2012-03-31T10:26:36Z</time>
      </trkpt>
      <trkpt lat="42.83209" lon="0.05138">
        <ele>2343</ele>
        <time>2012-03-31T10:26:39Z</time>
      </trkpt>
      <trkpt lat="42.83207" lon="0.05137">
        <ele>2343</ele>
        <time>2012-03-31T10:26:42Z</time>
      </trkpt>
      <trkpt lat="42.83206" lon="0.05136">
        <ele>2343</ele>
        <time>2012-03-31T10:26:45Z</time>
      </trkpt>
      <trkpt lat="42.83205" lon="0.05134">
        <ele>2343</ele>
        <time>2012-03-31T10:26:48Z</time>
      </trkpt>
      <trkpt lat="42.83202" lon="0.05133">
        <ele>2343</ele>
        <time>2012-03-31T10:26:53Z</time>
      </trkpt>
      <trkpt lat="42.832" lon="0.05132">
        <ele>2343</ele>
        <time>2012-03-31T10:26:56Z</time>
      </trkpt>
      <trkpt lat="42.83197" lon="0.05131">
        <ele>2343</ele>
        <time>2012-03-31T10:27:00Z</time>
      </trkpt>
      <trkpt lat="42.83195" lon="0.0513">
        <ele>2343</ele>
        <time>2012-03-31T10:27:04Z</time>
      </trkpt>
      <trkpt lat="42.83192" lon="0.05129">
        <ele>2343</ele>
        <time>2012-03-31T10:27:08Z</time>
      </trkpt>
      <trkpt lat="42.83191" lon="0.0513">
        <ele>2345</ele>
        <time>2012-03-31T10:27:24Z</time>
      </trkpt>
      <trkpt lat="42.8319" lon="0.05131">
        <ele>2346</ele>
        <time>2012-03-31T10:27:31Z</time>
      </trkpt>
      <trkpt lat="42.83188" lon="0.05131">
        <ele>2346</ele>
        <time>2012-03-31T10:27:35Z</time>
      </trkpt>
      <trkpt lat="42.83185" lon="0.05131">
        <ele>2346</ele>
        <time>2012-03-31T10:27:40Z</time>
      </trkpt>
      <trkpt lat="42.83182" lon="0.05131">
        <ele>2346</ele>
        <time>2012-03-31T10:27:44Z</time>
      </trkpt>
      <trkpt lat="42.83179" lon="0.0513">
        <ele>2346</ele>
        <time>2012-03-31T10:27:48Z</time>
      </trkpt>
      <trkpt lat="42.83176" lon="0.05128">
        <ele>2347</ele>
        <time>2012-03-31T10:27:52Z</time>
      </trkpt>
      <trkpt lat="42.83173" lon="0.05128">
        <ele>2348</ele>
        <time>2012-03-31T10:27:56Z</time>
      </trkpt>
      <trkpt lat="42.8317" lon="0.05127">
        <ele>2349</ele>
        <time>2012-03-31T10:28:00Z</time>
      </trkpt>
      <trkpt lat="42.83168" lon="0.05125">
        <ele>2350</ele>
        <time>2012-03-31T10:28:05Z</time>
      </trkpt>
      <trkpt lat="42.83168" lon="0.05124">
        <ele>2352</ele>
        <time>2012-03-31T10:28:12Z</time>
      </trkpt>
      <trkpt lat="42.83169" lon="0.05125">
        <ele>2353</ele>
        <time>2012-03-31T10:28:25Z</time>
      </trkpt>
      <trkpt lat="42.83167" lon="0.05124">
        <ele>2353</ele>
        <time>2012-03-31T10:28:32Z</time>
      </trkpt>
      <trkpt lat="42.83166" lon="0.05124">
        <ele>2353</ele>
        <time>2012-03-31T10:28:35Z</time>
      </trkpt>
      <trkpt lat="42.83164" lon="0.05124">
        <ele>2353</ele>
        <time>2012-03-31T10:28:38Z</time>
      </trkpt>
      <trkpt lat="42.83162" lon="0.05124">
        <ele>2353</ele>
        <time>2012-03-31T10:28:42Z</time>
      </trkpt>
      <trkpt lat="42.8316" lon="0.05124">
        <ele>2353</ele>
        <time>2012-03-31T10:28:45Z</time>
      </trkpt>
      <trkpt lat="42.83157" lon="0.05126">
        <ele>2356</ele>
        <time>2012-03-31T10:28:50Z</time>
      </trkpt>
      <trkpt lat="42.83154" lon="0.05127">
        <ele>2358</ele>
        <time>2012-03-31T10:28:55Z</time>
      </trkpt>
      <trkpt lat="42.83153" lon="0.05127">
        <ele>2358</ele>
        <time>2012-03-31T10:28:58Z</time>
      </trkpt>
      <trkpt lat="42.83151" lon="0.05127">
        <ele>2359</ele>
        <time>2012-03-31T10:29:01Z</time>
      </trkpt>
      <trkpt lat="42.8315" lon="0.05127">
        <ele>2359</ele>
        <time>2012-03-31T10:29:04Z</time>
      </trkpt>
      <trkpt lat="42.83148" lon="0.05125">
        <ele>2359</ele>
        <time>2012-03-31T10:29:07Z</time>
      </trkpt>
      <trkpt lat="42.83147" lon="0.05124">
        <ele>2359</ele>
        <time>2012-03-31T10:29:10Z</time>
      </trkpt>
      <trkpt lat="42.83146" lon="0.05125">
        <ele>2359</ele>
        <time>2012-03-31T10:29:28Z</time>
      </trkpt>
      <trkpt lat="42.83145" lon="0.05125">
        <ele>2359</ele>
        <time>2012-03-31T10:29:31Z</time>
      </trkpt>
      <trkpt lat="42.83142" lon="0.05125">
        <ele>2359</ele>
        <time>2012-03-31T10:29:36Z</time>
      </trkpt>
      <trkpt lat="42.83139" lon="0.05125">
        <ele>2359</ele>
        <time>2012-03-31T10:29:41Z</time>
      </trkpt>
      <trkpt lat="42.83137" lon="0.05124">
        <ele>2359</ele>
        <time>2012-03-31T10:29:46Z</time>
      </trkpt>
      <trkpt lat="42.83136" lon="0.05125">
        <ele>2359</ele>
        <time>2012-03-31T10:29:49Z</time>
      </trkpt>
      <trkpt lat="42.83133" lon="0.05124">
        <ele>2359</ele>
        <time>2012-03-31T10:29:53Z</time>
      </trkpt>
      <trkpt lat="42.83131" lon="0.05125">
        <ele>2359</ele>
        <time>2012-03-31T10:29:58Z</time>
      </trkpt>
      <trkpt lat="42.83131" lon="0.05126">
        <ele>2359</ele>
        <time>2012-03-31T10:30:06Z</time>
      </trkpt>
      <trkpt lat="42.83132" lon="0.05128">
        <ele>2359</ele>
        <time>2012-03-31T10:31:11Z</time>
      </trkpt>
      <trkpt lat="42.83132" lon="0.05131">
        <ele>2359</ele>
        <time>2012-03-31T10:31:15Z</time>
      </trkpt>
      <trkpt lat="42.83132" lon="0.05135">
        <ele>2359</ele>
        <time>2012-03-31T10:31:19Z</time>
      </trkpt>
      <trkpt lat="42.83133" lon="0.05138">
        <ele>2359</ele>
        <time>2012-03-31T10:31:23Z</time>
      </trkpt>
      <trkpt lat="42.83133" lon="0.0514">
        <ele>2360</ele>
        <time>2012-03-31T10:31:26Z</time>
      </trkpt>
      <trkpt lat="42.83134" lon="0.05143">
        <ele>2361</ele>
        <time>2012-03-31T10:31:30Z</time>
      </trkpt>
      <trkpt lat="42.83135" lon="0.05145">
        <ele>2361</ele>
        <time>2012-03-31T10:31:33Z</time>
      </trkpt>
      <trkpt lat="42.83135" lon="0.05148">
        <ele>2362</ele>
        <time>2012-03-31T10:31:37Z</time>
      </trkpt>
      <trkpt lat="42.83136" lon="0.05149">
        <ele>2363</ele>
        <time>2012-03-31T10:31:40Z</time>
      </trkpt>
      <trkpt lat="42.83136" lon="0.05151">
        <ele>2364</ele>
        <time>2012-03-31T10:31:43Z</time>
      </trkpt>
      <trkpt lat="42.83137" lon="0.05155">
        <ele>2366</ele>
        <time>2012-03-31T10:31:47Z</time>
      </trkpt>
      <trkpt lat="42.83138" lon="0.05157">
        <ele>2368</ele>
        <time>2012-03-31T10:31:50Z</time>
      </trkpt>
      <trkpt lat="42.83139" lon="0.05157">
        <ele>2370</ele>
        <time>2012-03-31T10:32:00Z</time>
      </trkpt>
      <trkpt lat="42.8314" lon="0.05156">
        <ele>2370</ele>
        <time>2012-03-31T10:32:05Z</time>
      </trkpt>
      <trkpt lat="42.83141" lon="0.05154">
        <ele>2370</ele>
        <time>2012-03-31T10:32:08Z</time>
      </trkpt>
      <trkpt lat="42.8314" lon="0.05153">
        <ele>2366</ele>
        <time>2012-03-31T10:32:21Z</time>
      </trkpt>
      <trkpt lat="42.83139" lon="0.05153">
        <ele>2366</ele>
        <time>2012-03-31T10:32:24Z</time>
      </trkpt>
      <trkpt lat="42.83136" lon="0.05152">
        <ele>2366</ele>
        <time>2012-03-31T10:32:28Z</time>
      </trkpt>
      <trkpt lat="42.83134" lon="0.05152">
        <ele>2366</ele>
        <time>2012-03-31T10:32:32Z</time>
      </trkpt>
      <trkpt lat="42.83132" lon="0.05153">
        <ele>2366</ele>
        <time>2012-03-31T10:32:35Z</time>
      </trkpt>
      <trkpt lat="42.8313" lon="0.0515">
        <ele>2366</ele>
        <time>2012-03-31T10:32:49Z</time>
      </trkpt>
      <trkpt lat="42.83131" lon="0.05152">
        <ele>2366</ele>
        <time>2012-03-31T10:32:54Z</time>
      </trkpt>
      <trkpt lat="42.83131" lon="0.05156">
        <ele>2366</ele>
        <time>2012-03-31T10:32:58Z</time>
      </trkpt>
      <trkpt lat="42.83132" lon="0.05157">
        <ele>2361</ele>
        <time>2012-03-31T10:33:23Z</time>
      </trkpt>
      <trkpt lat="42.83131" lon="0.05156">
        <ele>2358</ele>
        <time>2012-03-31T10:33:33Z</time>
      </trkpt>
      <trkpt lat="42.83132" lon="0.05156">
        <ele>2356</ele>
        <time>2012-03-31T10:33:38Z</time>
      </trkpt>
      <trkpt lat="42.83132" lon="0.05155">
        <ele>2355</ele>
        <time>2012-03-31T10:33:47Z</time>
      </trkpt>
      <trkpt lat="42.83131" lon="0.05153">
        <ele>2354</ele>
        <time>2012-03-31T10:33:50Z</time>
      </trkpt>
      <trkpt lat="42.8313" lon="0.05152">
        <ele>2354</ele>
        <time>2012-03-31T10:33:56Z</time>
      </trkpt>
      <trkpt lat="42.83129" lon="0.05153">
        <ele>2356</ele>
        <time>2012-03-31T10:34:00Z</time>
      </trkpt>
      <trkpt lat="42.83128" lon="0.05152">
        <ele>2361</ele>
        <time>2012-03-31T10:34:05Z</time>
      </trkpt>
      <trkpt lat="42.83128" lon="0.05154">
        <ele>2361</ele>
        <time>2012-03-31T10:34:11Z</time>
      </trkpt>
      <trkpt lat="42.83128" lon="0.05156">
        <ele>2361</ele>
        <time>2012-03-31T10:34:16Z</time>
      </trkpt>
      <trkpt lat="42.83127" lon="0.05156">
        <ele>2361</ele>
        <time>2012-03-31T10:34:27Z</time>
      </trkpt>
      <trkpt lat="42.83126" lon="0.05156">
        <ele>2363</ele>
        <time>2012-03-31T10:34:30Z</time>
      </trkpt>
      <trkpt lat="42.83124" lon="0.05155">
        <ele>2364</ele>
        <time>2012-03-31T10:34:33Z</time>
      </trkpt>
      <trkpt lat="42.83123" lon="0.05155">
        <ele>2364</ele>
        <time>2012-03-31T10:34:36Z</time>
      </trkpt>
      <trkpt lat="42.83121" lon="0.05155">
        <ele>2365</ele>
        <time>2012-03-31T10:34:39Z</time>
      </trkpt>
      <trkpt lat="42.8312" lon="0.05156">
        <ele>2366</ele>
        <time>2012-03-31T10:34:43Z</time>
      </trkpt>
      <trkpt lat="42.83118" lon="0.05156">
        <ele>2367</ele>
        <time>2012-03-31T10:34:46Z</time>
      </trkpt>
      <trkpt lat="42.83115" lon="0.05156">
        <ele>2368</ele>
        <time>2012-03-31T10:34:50Z</time>
      </trkpt>
      <trkpt lat="42.83113" lon="0.05156">
        <ele>2370</ele>
        <time>2012-03-31T10:34:54Z</time>
      </trkpt>
      <trkpt lat="42.8311" lon="0.05157">
        <ele>2372</ele>
        <time>2012-03-31T10:34:58Z</time>
      </trkpt>
      <trkpt lat="42.83109" lon="0.05158">
        <ele>2375</ele>
        <time>2012-03-31T10:35:16Z</time>
      </trkpt>
      <trkpt lat="42.8311" lon="0.0516">
        <ele>2375</ele>
        <time>2012-03-31T10:35:20Z</time>
      </trkpt>
      <trkpt lat="42.83111" lon="0.05161">
        <ele>2375</ele>
        <time>2012-03-31T10:35:26Z</time>
      </trkpt>
      <trkpt lat="42.8311" lon="0.05161">
        <ele>2375</ele>
        <time>2012-03-31T10:35:42Z</time>
      </trkpt>
      <trkpt lat="42.83108" lon="0.05161">
        <ele>2375</ele>
        <time>2012-03-31T10:35:45Z</time>
      </trkpt>
      <trkpt lat="42.83107" lon="0.05161">
        <ele>2375</ele>
        <time>2012-03-31T10:35:48Z</time>
      </trkpt>
      <trkpt lat="42.83105" lon="0.05163">
        <ele>2380</ele>
        <time>2012-03-31T10:35:59Z</time>
      </trkpt>
      <trkpt lat="42.83105" lon="0.05164">
        <ele>2383</ele>
        <time>2012-03-31T10:36:22Z</time>
      </trkpt>
      <trkpt lat="42.83104" lon="0.05165">
        <ele>2384</ele>
        <time>2012-03-31T10:36:25Z</time>
      </trkpt>
      <trkpt lat="42.83101" lon="0.05166">
        <ele>2386</ele>
        <time>2012-03-31T10:36:30Z</time>
      </trkpt>
      <trkpt lat="42.83099" lon="0.05167">
        <ele>2388</ele>
        <time>2012-03-31T10:36:33Z</time>
      </trkpt>
      <trkpt lat="42.83097" lon="0.05166">
        <ele>2389</ele>
        <time>2012-03-31T10:36:37Z</time>
      </trkpt>
      <trkpt lat="42.83094" lon="0.05166">
        <ele>2390</ele>
        <time>2012-03-31T10:36:41Z</time>
      </trkpt>
      <trkpt lat="42.83091" lon="0.05164">
        <ele>2391</ele>
        <time>2012-03-31T10:36:45Z</time>
      </trkpt>
      <trkpt lat="42.83088" lon="0.05164">
        <ele>2392</ele>
        <time>2012-03-31T10:36:50Z</time>
      </trkpt>
      <trkpt lat="42.83086" lon="0.05162">
        <ele>2392</ele>
        <time>2012-03-31T10:36:54Z</time>
      </trkpt>
      <trkpt lat="42.83083" lon="0.05159">
        <ele>2392</ele>
        <time>2012-03-31T10:36:58Z</time>
      </trkpt>
      <trkpt lat="42.83081" lon="0.05159">
        <ele>2392</ele>
        <time>2012-03-31T10:37:01Z</time>
      </trkpt>
      <trkpt lat="42.83083" lon="0.05158">
        <ele>2392</ele>
        <time>2012-03-31T10:37:16Z</time>
      </trkpt>
      <trkpt lat="42.83083" lon="0.05156">
        <ele>2392</ele>
        <time>2012-03-31T10:37:31Z</time>
      </trkpt>
      <trkpt lat="42.83082" lon="0.05155">
        <ele>2392</ele>
        <time>2012-03-31T10:37:34Z</time>
      </trkpt>
      <trkpt lat="42.83081" lon="0.05154">
        <ele>2393</ele>
        <time>2012-03-31T10:37:39Z</time>
      </trkpt>
      <trkpt lat="42.83078" lon="0.05153">
        <ele>2393</ele>
        <time>2012-03-31T10:37:44Z</time>
      </trkpt>
      <trkpt lat="42.83077" lon="0.05153">
        <ele>2393</ele>
        <time>2012-03-31T10:37:47Z</time>
      </trkpt>
      <trkpt lat="42.83075" lon="0.05152">
        <ele>2393</ele>
        <time>2012-03-31T10:37:50Z</time>
      </trkpt>
      <trkpt lat="42.83074" lon="0.05151">
        <ele>2393</ele>
        <time>2012-03-31T10:37:54Z</time>
      </trkpt>
      <trkpt lat="42.83073" lon="0.0515">
        <ele>2394</ele>
        <time>2012-03-31T10:37:57Z</time>
      </trkpt>
      <trkpt lat="42.83072" lon="0.05148">
        <ele>2394</ele>
        <time>2012-03-31T10:38:00Z</time>
      </trkpt>
      <trkpt lat="42.8307" lon="0.05147">
        <ele>2395</ele>
        <time>2012-03-31T10:38:03Z</time>
      </trkpt>
      <trkpt lat="42.83069" lon="0.05147">
        <ele>2396</ele>
        <time>2012-03-31T10:38:06Z</time>
      </trkpt>
      <trkpt lat="42.83067" lon="0.05145">
        <ele>2396</ele>
        <time>2012-03-31T10:38:09Z</time>
      </trkpt>
      <trkpt lat="42.83066" lon="0.05144">
        <ele>2396</ele>
        <time>2012-03-31T10:38:12Z</time>
      </trkpt>
      <trkpt lat="42.83065" lon="0.05143">
        <ele>2396</ele>
        <time>2012-03-31T10:38:15Z</time>
      </trkpt>
      <trkpt lat="42.83062" lon="0.05141">
        <ele>2397</ele>
        <time>2012-03-31T10:38:20Z</time>
      </trkpt>
      <trkpt lat="42.83061" lon="0.05141">
        <ele>2397</ele>
        <time>2012-03-31T10:38:50Z</time>
      </trkpt>
      <trkpt lat="42.83059" lon="0.05139">
        <ele>2397</ele>
        <time>2012-03-31T10:38:53Z</time>
      </trkpt>
      <trkpt lat="42.83058" lon="0.05138">
        <ele>2397</ele>
        <time>2012-03-31T10:38:56Z</time>
      </trkpt>
      <trkpt lat="42.83055" lon="0.05136">
        <ele>2397</ele>
        <time>2012-03-31T10:39:00Z</time>
      </trkpt>
      <trkpt lat="42.83054" lon="0.05135">
        <ele>2397</ele>
        <time>2012-03-31T10:39:03Z</time>
      </trkpt>
      <trkpt lat="42.83052" lon="0.05134">
        <ele>2397</ele>
        <time>2012-03-31T10:39:07Z</time>
      </trkpt>
      <trkpt lat="42.8305" lon="0.05133">
        <ele>2398</ele>
        <time>2012-03-31T10:39:10Z</time>
      </trkpt>
      <trkpt lat="42.83049" lon="0.05132">
        <ele>2398</ele>
        <time>2012-03-31T10:39:13Z</time>
      </trkpt>
      <trkpt lat="42.83048" lon="0.0513">
        <ele>2398</ele>
        <time>2012-03-31T10:39:16Z</time>
      </trkpt>
      <trkpt lat="42.83046" lon="0.05128">
        <ele>2398</ele>
        <time>2012-03-31T10:39:19Z</time>
      </trkpt>
      <trkpt lat="42.83046" lon="0.05127">
        <ele>2401</ele>
        <time>2012-03-31T10:39:43Z</time>
      </trkpt>
      <trkpt lat="42.83045" lon="0.05125">
        <ele>2407</ele>
        <time>2012-03-31T10:40:13Z</time>
      </trkpt>
      <trkpt lat="42.83044" lon="0.05125">
        <ele>2407</ele>
        <time>2012-03-31T10:40:17Z</time>
      </trkpt>
      <trkpt lat="42.83041" lon="0.05122">
        <ele>2407</ele>
        <time>2012-03-31T10:40:21Z</time>
      </trkpt>
      <trkpt lat="42.83041" lon="0.05124">
        <ele>2407</ele>
        <time>2012-03-31T10:40:38Z</time>
      </trkpt>
      <trkpt lat="42.8304" lon="0.05127">
        <ele>2407</ele>
        <time>2012-03-31T10:40:44Z</time>
      </trkpt>
      <trkpt lat="42.8304" lon="0.05131">
        <ele>2407</ele>
        <time>2012-03-31T10:40:48Z</time>
      </trkpt>
      <trkpt lat="42.8304" lon="0.05135">
        <ele>2407</ele>
        <time>2012-03-31T10:40:52Z</time>
      </trkpt>
      <trkpt lat="42.8304" lon="0.05139">
        <ele>2407</ele>
        <time>2012-03-31T10:40:56Z</time>
      </trkpt>
      <trkpt lat="42.83039" lon="0.05142">
        <ele>2407</ele>
        <time>2012-03-31T10:41:00Z</time>
      </trkpt>
      <trkpt lat="42.83039" lon="0.05146">
        <ele>2407</ele>
        <time>2012-03-31T10:41:05Z</time>
      </trkpt>
      <trkpt lat="42.83038" lon="0.05149">
        <ele>2407</ele>
        <time>2012-03-31T10:41:09Z</time>
      </trkpt>
      <trkpt lat="42.83038" lon="0.05152">
        <ele>2407</ele>
        <time>2012-03-31T10:41:13Z</time>
      </trkpt>
      <trkpt lat="42.83038" lon="0.05154">
        <ele>2409</ele>
        <time>2012-03-31T10:41:28Z</time>
      </trkpt>
      <trkpt lat="42.83036" lon="0.05151">
        <ele>2411</ele>
        <time>2012-03-31T10:41:31Z</time>
      </trkpt>
      <trkpt lat="42.83036" lon="0.05149">
        <ele>2416</ele>
        <time>2012-03-31T10:41:50Z</time>
      </trkpt>
      <trkpt lat="42.83037" lon="0.05151">
        <ele>2416</ele>
        <time>2012-03-31T10:41:59Z</time>
      </trkpt>
      <trkpt lat="42.83037" lon="0.05156">
        <ele>2416</ele>
        <time>2012-03-31T10:42:03Z</time>
      </trkpt>
      <trkpt lat="42.83037" lon="0.0516">
        <ele>2416</ele>
        <time>2012-03-31T10:42:07Z</time>
      </trkpt>
      <trkpt lat="42.83036" lon="0.05164">
        <ele>2416</ele>
        <time>2012-03-31T10:42:11Z</time>
      </trkpt>
      <trkpt lat="42.83037" lon="0.05166">
        <ele>2417</ele>
        <time>2012-03-31T10:42:14Z</time>
      </trkpt>
      <trkpt lat="42.83037" lon="0.05169">
        <ele>2418</ele>
        <time>2012-03-31T10:42:18Z</time>
      </trkpt>
      <trkpt lat="42.83037" lon="0.05173">
        <ele>2420</ele>
        <time>2012-03-31T10:42:23Z</time>
      </trkpt>
      <trkpt lat="42.83037" lon="0.05175">
        <ele>2420</ele>
        <time>2012-03-31T10:42:31Z</time>
      </trkpt>
      <trkpt lat="42.83037" lon="0.05176">
        <ele>2420</ele>
        <time>2012-03-31T10:42:36Z</time>
      </trkpt>
      <trkpt lat="42.83036" lon="0.05176">
        <ele>2420</ele>
        <time>2012-03-31T10:42:39Z</time>
      </trkpt>
      <trkpt lat="42.83032" lon="0.05175">
        <ele>2425</ele>
        <time>2012-03-31T10:42:47Z</time>
      </trkpt>
      <trkpt lat="42.83033" lon="0.05177">
        <ele>2428</ele>
        <time>2012-03-31T10:42:50Z</time>
      </trkpt>
      <trkpt lat="42.83035" lon="0.05177">
        <ele>2432</ele>
        <time>2012-03-31T10:42:54Z</time>
      </trkpt>
      <trkpt lat="42.83037" lon="0.05179">
        <ele>2433</ele>
        <time>2012-03-31T10:42:58Z</time>
      </trkpt>
      <trkpt lat="42.83038" lon="0.05181">
        <ele>2433</ele>
        <time>2012-03-31T10:43:01Z</time>
      </trkpt>
      <trkpt lat="42.83038" lon="0.05182">
        <ele>2432</ele>
        <time>2012-03-31T10:43:04Z</time>
      </trkpt>
      <trkpt lat="42.83038" lon="0.05184">
        <ele>2430</ele>
        <time>2012-03-31T10:43:07Z</time>
      </trkpt>
      <trkpt lat="42.83039" lon="0.05186">
        <ele>2428</ele>
        <time>2012-03-31T10:43:12Z</time>
      </trkpt>
      <trkpt lat="42.83039" lon="0.05188">
        <ele>2427</ele>
        <time>2012-03-31T10:43:15Z</time>
      </trkpt>
      <trkpt lat="42.8304" lon="0.0519">
        <ele>2427</ele>
        <time>2012-03-31T10:43:18Z</time>
      </trkpt>
      <trkpt lat="42.8304" lon="0.05192">
        <ele>2427</ele>
        <time>2012-03-31T10:43:24Z</time>
      </trkpt>
      <trkpt lat="42.8304" lon="0.05195">
        <ele>2427</ele>
        <time>2012-03-31T10:43:43Z</time>
      </trkpt>
      <trkpt lat="42.8304" lon="0.05196">
        <ele>2428</ele>
        <time>2012-03-31T10:43:51Z</time>
      </trkpt>
      <trkpt lat="42.8304" lon="0.05195">
        <ele>2432</ele>
        <time>2012-03-31T10:44:00Z</time>
      </trkpt>
      <trkpt lat="42.83039" lon="0.05196">
        <ele>2431</ele>
        <time>2012-03-31T10:44:12Z</time>
      </trkpt>
      <trkpt lat="42.83039" lon="0.05199">
        <ele>2431</ele>
        <time>2012-03-31T10:44:17Z</time>
      </trkpt>
      <trkpt lat="42.83039" lon="0.05203">
        <ele>2434</ele>
        <time>2012-03-31T10:44:22Z</time>
      </trkpt>
      <trkpt lat="42.83038" lon="0.05204">
        <ele>2435</ele>
        <time>2012-03-31T10:44:27Z</time>
      </trkpt>
      <trkpt lat="42.83037" lon="0.05205">
        <ele>2437</ele>
        <time>2012-03-31T10:44:31Z</time>
      </trkpt>
      <trkpt lat="42.83036" lon="0.05203">
        <ele>2439</ele>
        <time>2012-03-31T10:44:38Z</time>
      </trkpt>
      <trkpt lat="42.83037" lon="0.052">
        <ele>2439</ele>
        <time>2012-03-31T10:44:44Z</time>
      </trkpt>
      <trkpt lat="42.83038" lon="0.05199">
        <ele>2438</ele>
        <time>2012-03-31T10:44:54Z</time>
      </trkpt>
      <trkpt lat="42.83038" lon="0.05196">
        <ele>2435</ele>
        <time>2012-03-31T10:44:59Z</time>
      </trkpt>
      <trkpt lat="42.83039" lon="0.05196">
        <ele>2424</ele>
        <time>2012-03-31T10:45:13Z</time>
      </trkpt>
      <trkpt lat="42.83038" lon="0.05198">
        <ele>2420</ele>
        <time>2012-03-31T10:45:24Z</time>
      </trkpt>
      <trkpt lat="42.83038" lon="0.05195">
        <ele>2420</ele>
        <time>2012-03-31T10:45:28Z</time>
      </trkpt>
      <trkpt lat="42.83038" lon="0.05193">
        <ele>2420</ele>
        <time>2012-03-31T10:45:33Z</time>
      </trkpt>
      <trkpt lat="42.83038" lon="0.05195">
        <ele>2420</ele>
        <time>2012-03-31T10:45:38Z</time>
      </trkpt>
      <trkpt lat="42.83038" lon="0.05197">
        <ele>2420</ele>
        <time>2012-03-31T10:45:41Z</time>
      </trkpt>
      <trkpt lat="42.83038" lon="0.05195">
        <ele>2420</ele>
        <time>2012-03-31T10:45:46Z</time>
      </trkpt>
      <trkpt lat="42.83039" lon="0.05192">
        <ele>2419</ele>
        <time>2012-03-31T10:46:02Z</time>
      </trkpt>
      <trkpt lat="42.8304" lon="0.05194">
        <ele>2419</ele>
        <time>2012-03-31T10:46:27Z</time>
      </trkpt>
      <trkpt lat="42.8304" lon="0.05196">
        <ele>2419</ele>
        <time>2012-03-31T10:46:31Z</time>
      </trkpt>
      <trkpt lat="42.83041" lon="0.05199">
        <ele>2419</ele>
        <time>2012-03-31T10:46:35Z</time>
      </trkpt>
      <trkpt lat="42.83042" lon="0.05202">
        <ele>2419</ele>
        <time>2012-03-31T10:46:39Z</time>
      </trkpt>
      <trkpt lat="42.83043" lon="0.05206">
        <ele>2419</ele>
        <time>2012-03-31T10:46:44Z</time>
      </trkpt>
      <trkpt lat="42.83043" lon="0.05208">
        <ele>2419</ele>
        <time>2012-03-31T10:46:47Z</time>
      </trkpt>
      <trkpt lat="42.83044" lon="0.05212">
        <ele>2419</ele>
        <time>2012-03-31T10:46:52Z</time>
      </trkpt>
      <trkpt lat="42.83044" lon="0.05215">
        <ele>2421</ele>
        <time>2012-03-31T10:46:56Z</time>
      </trkpt>
      <trkpt lat="42.83045" lon="0.05217">
        <ele>2422</ele>
        <time>2012-03-31T10:46:59Z</time>
      </trkpt>
      <trkpt lat="42.83044" lon="0.05218">
        <ele>2426</ele>
        <time>2012-03-31T10:47:20Z</time>
      </trkpt>
      <trkpt lat="42.83045" lon="0.0522">
        <ele>2427</ele>
        <time>2012-03-31T10:47:24Z</time>
      </trkpt>
      <trkpt lat="42.83045" lon="0.05223">
        <ele>2427</ele>
        <time>2012-03-31T10:47:28Z</time>
      </trkpt>
      <trkpt lat="42.83046" lon="0.05225">
        <ele>2427</ele>
        <time>2012-03-31T10:47:31Z</time>
      </trkpt>
      <trkpt lat="42.83046" lon="0.05228">
        <ele>2428</ele>
        <time>2012-03-31T10:47:35Z</time>
      </trkpt>
      <trkpt lat="42.83047" lon="0.05231">
        <ele>2429</ele>
        <time>2012-03-31T10:47:40Z</time>
      </trkpt>
      <trkpt lat="42.83046" lon="0.05231">
        <ele>2434</ele>
        <time>2012-03-31T10:47:58Z</time>
      </trkpt>
      <trkpt lat="42.83044" lon="0.05229">
        <ele>2434</ele>
        <time>2012-03-31T10:48:01Z</time>
      </trkpt>
      <trkpt lat="42.83043" lon="0.05228">
        <ele>2434</ele>
        <time>2012-03-31T10:48:04Z</time>
      </trkpt>
      <trkpt lat="42.83041" lon="0.05227">
        <ele>2435</ele>
        <time>2012-03-31T10:48:07Z</time>
      </trkpt>
      <trkpt lat="42.83039" lon="0.05225">
        <ele>2436</ele>
        <time>2012-03-31T10:48:12Z</time>
      </trkpt>
      <trkpt lat="42.83036" lon="0.05223">
        <ele>2438</ele>
        <time>2012-03-31T10:48:17Z</time>
      </trkpt>
      <trkpt lat="42.83035" lon="0.05222">
        <ele>2438</ele>
        <time>2012-03-31T10:48:20Z</time>
      </trkpt>
      <trkpt lat="42.83033" lon="0.05221">
        <ele>2438</ele>
        <time>2012-03-31T10:48:23Z</time>
      </trkpt>
      <trkpt lat="42.83032" lon="0.0522">
        <ele>2438</ele>
        <time>2012-03-31T10:48:26Z</time>
      </trkpt>
      <trkpt lat="42.83031" lon="0.05219">
        <ele>2439</ele>
        <time>2012-03-31T10:49:15Z</time>
      </trkpt>
      <trkpt lat="42.8303" lon="0.05218">
        <ele>2439</ele>
        <time>2012-03-31T10:49:18Z</time>
      </trkpt>
      <trkpt lat="42.83028" lon="0.05218">
        <ele>2439</ele>
        <time>2012-03-31T10:49:21Z</time>
      </trkpt>
      <trkpt lat="42.83027" lon="0.05217">
        <ele>2439</ele>
        <time>2012-03-31T10:49:24Z</time>
      </trkpt>
      <trkpt lat="42.83025" lon="0.05215">
        <ele>2439</ele>
        <time>2012-03-31T10:49:28Z</time>
      </trkpt>
      <trkpt lat="42.83022" lon="0.05213">
        <ele>2439</ele>
        <time>2012-03-31T10:49:32Z</time>
      </trkpt>
      <trkpt lat="42.8302" lon="0.05212">
        <ele>2439</ele>
        <time>2012-03-31T10:49:35Z</time>
      </trkpt>
      <trkpt lat="42.83018" lon="0.05211">
        <ele>2439</ele>
        <time>2012-03-31T10:49:40Z</time>
      </trkpt>
      <trkpt lat="42.83015" lon="0.05209">
        <ele>2439</ele>
        <time>2012-03-31T10:49:44Z</time>
      </trkpt>
      <trkpt lat="42.83013" lon="0.05208">
        <ele>2439</ele>
        <time>2012-03-31T10:49:49Z</time>
      </trkpt>
      <trkpt lat="42.83012" lon="0.05206">
        <ele>2440</ele>
        <time>2012-03-31T10:50:07Z</time>
      </trkpt>
      <trkpt lat="42.83009" lon="0.05204">
        <ele>2440</ele>
        <time>2012-03-31T10:50:13Z</time>
      </trkpt>
      <trkpt lat="42.83008" lon="0.05204">
        <ele>2440</ele>
        <time>2012-03-31T10:50:16Z</time>
      </trkpt>
      <trkpt lat="42.83005" lon="0.05201">
        <ele>2440</ele>
        <time>2012-03-31T10:50:20Z</time>
      </trkpt>
      <trkpt lat="42.83004" lon="0.052">
        <ele>2440</ele>
        <time>2012-03-31T10:50:23Z</time>
      </trkpt>
      <trkpt lat="42.83002" lon="0.05199">
        <ele>2441</ele>
        <time>2012-03-31T10:50:26Z</time>
      </trkpt>
      <trkpt lat="42.83001" lon="0.05198">
        <ele>2441</ele>
        <time>2012-03-31T10:50:29Z</time>
      </trkpt>
      <trkpt lat="42.82999" lon="0.05197">
        <ele>2443</ele>
        <time>2012-03-31T10:50:54Z</time>
      </trkpt>
      <trkpt lat="42.82997" lon="0.05194">
        <ele>2443</ele>
        <time>2012-03-31T10:50:58Z</time>
      </trkpt>
      <trkpt lat="42.82996" lon="0.05193">
        <ele>2444</ele>
        <time>2012-03-31T10:51:01Z</time>
      </trkpt>
      <trkpt lat="42.82995" lon="0.05191">
        <ele>2444</ele>
        <time>2012-03-31T10:51:05Z</time>
      </trkpt>
      <trkpt lat="42.82994" lon="0.0519">
        <ele>2444</ele>
        <time>2012-03-31T10:51:08Z</time>
      </trkpt>
      <trkpt lat="42.82992" lon="0.05188">
        <ele>2444</ele>
        <time>2012-03-31T10:51:11Z</time>
      </trkpt>
      <trkpt lat="42.82991" lon="0.05186">
        <ele>2445</ele>
        <time>2012-03-31T10:51:16Z</time>
      </trkpt>
      <trkpt lat="42.82992" lon="0.05188">
        <ele>2446</ele>
        <time>2012-03-31T10:51:46Z</time>
      </trkpt>
      <trkpt lat="42.82992" lon="0.05189">
        <ele>2446</ele>
        <time>2012-03-31T10:51:59Z</time>
      </trkpt>
      <trkpt lat="42.82992" lon="0.05191">
        <ele>2447</ele>
        <time>2012-03-31T10:52:12Z</time>
      </trkpt>
      <trkpt lat="42.82992" lon="0.05193">
        <ele>2447</ele>
        <time>2012-03-31T10:52:15Z</time>
      </trkpt>
      <trkpt lat="42.82993" lon="0.05195">
        <ele>2448</ele>
        <time>2012-03-31T10:52:18Z</time>
      </trkpt>
      <trkpt lat="42.82993" lon="0.05198">
        <ele>2448</ele>
        <time>2012-03-31T10:52:22Z</time>
      </trkpt>
      <trkpt lat="42.82993" lon="0.05201">
        <ele>2448</ele>
        <time>2012-03-31T10:52:26Z</time>
      </trkpt>
      <trkpt lat="42.82993" lon="0.05203">
        <ele>2449</ele>
        <time>2012-03-31T10:52:29Z</time>
      </trkpt>
      <trkpt lat="42.82994" lon="0.05206">
        <ele>2449</ele>
        <time>2012-03-31T10:52:33Z</time>
      </trkpt>
      <trkpt lat="42.82994" lon="0.05209">
        <ele>2449</ele>
        <time>2012-03-31T10:52:38Z</time>
      </trkpt>
      <trkpt lat="42.82995" lon="0.05213">
        <ele>2450</ele>
        <time>2012-03-31T10:52:42Z</time>
      </trkpt>
      <trkpt lat="42.82996" lon="0.05215">
        <ele>2451</ele>
        <time>2012-03-31T10:53:11Z</time>
      </trkpt>
      <trkpt lat="42.82996" lon="0.05218">
        <ele>2451</ele>
        <time>2012-03-31T10:53:15Z</time>
      </trkpt>
      <trkpt lat="42.82998" lon="0.05221">
        <ele>2452</ele>
        <time>2012-03-31T10:53:19Z</time>
      </trkpt>
      <trkpt lat="42.82999" lon="0.05225">
        <ele>2452</ele>
        <time>2012-03-31T10:53:24Z</time>
      </trkpt>
      <trkpt lat="42.83" lon="0.05228">
        <ele>2453</ele>
        <time>2012-03-31T10:53:29Z</time>
      </trkpt>
      <trkpt lat="42.83001" lon="0.05229">
        <ele>2454</ele>
        <time>2012-03-31T10:53:38Z</time>
      </trkpt>
      <trkpt lat="42.83002" lon="0.05232">
        <ele>2454</ele>
        <time>2012-03-31T10:53:42Z</time>
      </trkpt>
      <trkpt lat="42.83003" lon="0.05235">
        <ele>2454</ele>
        <time>2012-03-31T10:53:45Z</time>
      </trkpt>
      <trkpt lat="42.83004" lon="0.05237">
        <ele>2455</ele>
        <time>2012-03-31T10:53:48Z</time>
      </trkpt>
      <trkpt lat="42.83006" lon="0.0524">
        <ele>2455</ele>
        <time>2012-03-31T10:53:52Z</time>
      </trkpt>
      <trkpt lat="42.83007" lon="0.05243">
        <ele>2456</ele>
        <time>2012-03-31T10:54:40Z</time>
      </trkpt>
      <trkpt lat="42.83008" lon="0.05245">
        <ele>2456</ele>
        <time>2012-03-31T10:54:43Z</time>
      </trkpt>
      <trkpt lat="42.83009" lon="0.05248">
        <ele>2456</ele>
        <time>2012-03-31T10:54:47Z</time>
      </trkpt>
      <trkpt lat="42.83009" lon="0.05248">
        <ele>2458</ele>
        <time>2012-03-31T10:55:30Z</time>
      </trkpt>
      <trkpt lat="42.83008" lon="0.05247">
        <ele>2458</ele>
        <time>2012-03-31T10:55:39Z</time>
      </trkpt>
      <trkpt lat="42.83007" lon="0.05245">
        <ele>2459</ele>
        <time>2012-03-31T10:56:04Z</time>
      </trkpt>
      <trkpt lat="42.83007" lon="0.05247">
        <ele>2459</ele>
        <time>2012-03-31T10:56:17Z</time>
      </trkpt>
      <trkpt lat="42.83008" lon="0.05248">
        <ele>2459</ele>
        <time>2012-03-31T10:56:36Z</time>
      </trkpt>
      <trkpt lat="42.83008" lon="0.05247">
        <ele>2459</ele>
        <time>2012-03-31T10:56:54Z</time>
      </trkpt>
      <trkpt lat="42.83009" lon="0.05249">
        <ele>2459</ele>
        <time>2012-03-31T10:56:58Z</time>
      </trkpt>
      <trkpt lat="42.8301" lon="0.0525">
        <ele>2459</ele>
        <time>2012-03-31T10:57:02Z</time>
      </trkpt>
      <trkpt lat="42.83009" lon="0.05249">
        <ele>2459</ele>
        <time>2012-03-31T10:57:17Z</time>
      </trkpt>
      <trkpt lat="42.83008" lon="0.05248">
        <ele>2458</ele>
        <time>2012-03-31T10:57:23Z</time>
      </trkpt>
      <trkpt lat="42.83005" lon="0.05246">
        <ele>2458</ele>
        <time>2012-03-31T10:57:29Z</time>
      </trkpt>
      <trkpt lat="42.83003" lon="0.05246">
        <ele>2458</ele>
        <time>2012-03-31T10:57:35Z</time>
      </trkpt>
      <trkpt lat="42.82999" lon="0.05244">
        <ele>2458</ele>
        <time>2012-03-31T10:57:41Z</time>
      </trkpt>
      <trkpt lat="42.82997" lon="0.05243">
        <ele>2458</ele>
        <time>2012-03-31T10:57:46Z</time>
      </trkpt>
      <trkpt lat="42.82994" lon="0.05241">
        <ele>2458</ele>
        <time>2012-03-31T10:57:50Z</time>
      </trkpt>
      <trkpt lat="42.82993" lon="0.05241">
        <ele>2459</ele>
        <time>2012-03-31T10:57:53Z</time>
      </trkpt>
      <trkpt lat="42.8299" lon="0.0524">
        <ele>2460</ele>
        <time>2012-03-31T10:57:58Z</time>
      </trkpt>
      <trkpt lat="42.82991" lon="0.05241">
        <ele>2460</ele>
        <time>2012-03-31T10:58:03Z</time>
      </trkpt>
      <trkpt lat="42.8299" lon="0.05241">
        <ele>2462</ele>
        <time>2012-03-31T10:58:26Z</time>
      </trkpt>
      <trkpt lat="42.8299" lon="0.05242">
        <ele>2463</ele>
        <time>2012-03-31T10:58:32Z</time>
      </trkpt>
      <trkpt lat="42.82991" lon="0.05244">
        <ele>2463</ele>
        <time>2012-03-31T10:58:39Z</time>
      </trkpt>
      <trkpt lat="42.82993" lon="0.05247">
        <ele>2463</ele>
        <time>2012-03-31T10:58:43Z</time>
      </trkpt>
      <trkpt lat="42.82995" lon="0.0525">
        <ele>2463</ele>
        <time>2012-03-31T10:58:47Z</time>
      </trkpt>
      <trkpt lat="42.82997" lon="0.05254">
        <ele>2463</ele>
        <time>2012-03-31T10:58:52Z</time>
      </trkpt>
      <trkpt lat="42.82999" lon="0.05257">
        <ele>2463</ele>
        <time>2012-03-31T10:58:58Z</time>
      </trkpt>
      <trkpt lat="42.83" lon="0.05261">
        <ele>2463</ele>
        <time>2012-03-31T10:59:04Z</time>
      </trkpt>
      <trkpt lat="42.83001" lon="0.05265">
        <ele>2463</ele>
        <time>2012-03-31T10:59:10Z</time>
      </trkpt>
      <trkpt lat="42.83002" lon="0.05269">
        <ele>2464</ele>
        <time>2012-03-31T10:59:16Z</time>
      </trkpt>
      <trkpt lat="42.83002" lon="0.05267">
        <ele>2469</ele>
        <time>2012-03-31T10:59:55Z</time>
      </trkpt>
      <trkpt lat="42.82999" lon="0.05265">
        <ele>2470</ele>
        <time>2012-03-31T11:00:01Z</time>
      </trkpt>
      <trkpt lat="42.82997" lon="0.05264">
        <ele>2471</ele>
        <time>2012-03-31T11:00:05Z</time>
      </trkpt>
      <trkpt lat="42.82994" lon="0.05263">
        <ele>2472</ele>
        <time>2012-03-31T11:00:09Z</time>
      </trkpt>
      <trkpt lat="42.82992" lon="0.05263">
        <ele>2472</ele>
        <time>2012-03-31T11:00:13Z</time>
      </trkpt>
      <trkpt lat="42.82989" lon="0.05262">
        <ele>2473</ele>
        <time>2012-03-31T11:00:17Z</time>
      </trkpt>
      <trkpt lat="42.82987" lon="0.0526">
        <ele>2473</ele>
        <time>2012-03-31T11:00:21Z</time>
      </trkpt>
      <trkpt lat="42.82985" lon="0.0526">
        <ele>2474</ele>
        <time>2012-03-31T11:00:25Z</time>
      </trkpt>
      <trkpt lat="42.82982" lon="0.05258">
        <ele>2476</ele>
        <time>2012-03-31T11:00:35Z</time>
      </trkpt>
      <trkpt lat="42.82983" lon="0.0526">
        <ele>2476</ele>
        <time>2012-03-31T11:01:01Z</time>
      </trkpt>
      <trkpt lat="42.82981" lon="0.05259">
        <ele>2476</ele>
        <time>2012-03-31T11:01:11Z</time>
      </trkpt>
      <trkpt lat="42.82979" lon="0.05258">
        <ele>2476</ele>
        <time>2012-03-31T11:01:15Z</time>
      </trkpt>
      <trkpt lat="42.82976" lon="0.05257">
        <ele>2476</ele>
        <time>2012-03-31T11:01:19Z</time>
      </trkpt>
      <trkpt lat="42.82974" lon="0.05256">
        <ele>2477</ele>
        <time>2012-03-31T11:01:24Z</time>
      </trkpt>
      <trkpt lat="42.82973" lon="0.05257">
        <ele>2478</ele>
        <time>2012-03-31T11:01:41Z</time>
      </trkpt>
      <trkpt lat="42.82975" lon="0.0526">
        <ele>2479</ele>
        <time>2012-03-31T11:01:46Z</time>
      </trkpt>
      <trkpt lat="42.82977" lon="0.05264">
        <ele>2479</ele>
        <time>2012-03-31T11:01:52Z</time>
      </trkpt>
      <trkpt lat="42.82979" lon="0.05267">
        <ele>2481</ele>
        <time>2012-03-31T11:01:58Z</time>
      </trkpt>
      <trkpt lat="42.8298" lon="0.05269">
        <ele>2482</ele>
        <time>2012-03-31T11:02:03Z</time>
      </trkpt>
      <trkpt lat="42.82981" lon="0.05271">
        <ele>2482</ele>
        <time>2012-03-31T11:02:06Z</time>
      </trkpt>
      <trkpt lat="42.82982" lon="0.05274">
        <ele>2483</ele>
        <time>2012-03-31T11:02:10Z</time>
      </trkpt>
      <trkpt lat="42.82983" lon="0.05275">
        <ele>2483</ele>
        <time>2012-03-31T11:02:14Z</time>
      </trkpt>
      <trkpt lat="42.82983" lon="0.05277">
        <ele>2484</ele>
        <time>2012-03-31T11:02:44Z</time>
      </trkpt>
      <trkpt lat="42.82983" lon="0.05279">
        <ele>2484</ele>
        <time>2012-03-31T11:03:11Z</time>
      </trkpt>
      <trkpt lat="42.82984" lon="0.0528">
        <ele>2484</ele>
        <time>2012-03-31T11:03:14Z</time>
      </trkpt>
      <trkpt lat="42.82985" lon="0.05282">
        <ele>2484</ele>
        <time>2012-03-31T11:03:17Z</time>
      </trkpt>
      <trkpt lat="42.82986" lon="0.05283">
        <ele>2486</ele>
        <time>2012-03-31T11:03:20Z</time>
      </trkpt>
      <trkpt lat="42.82986" lon="0.05282">
        <ele>2489</ele>
        <time>2012-03-31T11:03:45Z</time>
      </trkpt>
      <trkpt lat="42.82984" lon="0.0528">
        <ele>2490</ele>
        <time>2012-03-31T11:03:48Z</time>
      </trkpt>
      <trkpt lat="42.82983" lon="0.0528">
        <ele>2491</ele>
        <time>2012-03-31T11:03:51Z</time>
      </trkpt>
      <trkpt lat="42.8298" lon="0.05279">
        <ele>2492</ele>
        <time>2012-03-31T11:03:56Z</time>
      </trkpt>
      <trkpt lat="42.82978" lon="0.05277">
        <ele>2493</ele>
        <time>2012-03-31T11:04:00Z</time>
      </trkpt>
      <trkpt lat="42.82975" lon="0.05277">
        <ele>2494</ele>
        <time>2012-03-31T11:04:04Z</time>
      </trkpt>
      <trkpt lat="42.82973" lon="0.05275">
        <ele>2496</ele>
        <time>2012-03-31T11:04:08Z</time>
      </trkpt>
      <trkpt lat="42.82972" lon="0.05274">
        <ele>2498</ele>
        <time>2012-03-31T11:04:27Z</time>
      </trkpt>
      <trkpt lat="42.82971" lon="0.05274">
        <ele>2499</ele>
        <time>2012-03-31T11:04:38Z</time>
      </trkpt>
      <trkpt lat="42.82968" lon="0.05273">
        <ele>2500</ele>
        <time>2012-03-31T11:04:43Z</time>
      </trkpt>
      <trkpt lat="42.82966" lon="0.05272">
        <ele>2501</ele>
        <time>2012-03-31T11:04:47Z</time>
      </trkpt>
      <trkpt lat="42.82963" lon="0.0527">
        <ele>2501</ele>
        <time>2012-03-31T11:04:51Z</time>
      </trkpt>
      <trkpt lat="42.82961" lon="0.05269">
        <ele>2502</ele>
        <time>2012-03-31T11:04:56Z</time>
      </trkpt>
      <trkpt lat="42.82961" lon="0.05271">
        <ele>2504</ele>
        <time>2012-03-31T11:05:12Z</time>
      </trkpt>
      <trkpt lat="42.8296" lon="0.05272">
        <ele>2504</ele>
        <time>2012-03-31T11:05:20Z</time>
      </trkpt>
      <trkpt lat="42.82961" lon="0.05274">
        <ele>2504</ele>
        <time>2012-03-31T11:05:24Z</time>
      </trkpt>
      <trkpt lat="42.82962" lon="0.05275">
        <ele>2504</ele>
        <time>2012-03-31T11:05:28Z</time>
      </trkpt>
      <trkpt lat="42.82963" lon="0.05278">
        <ele>2504</ele>
        <time>2012-03-31T11:05:32Z</time>
      </trkpt>
      <trkpt lat="42.82964" lon="0.05281">
        <ele>2505</ele>
        <time>2012-03-31T11:05:36Z</time>
      </trkpt>
      <trkpt lat="42.82965" lon="0.05285">
        <ele>2505</ele>
        <time>2012-03-31T11:05:40Z</time>
      </trkpt>
      <trkpt lat="42.82967" lon="0.05285">
        <ele>2506</ele>
        <time>2012-03-31T11:05:44Z</time>
      </trkpt>
      <trkpt lat="42.82967" lon="0.05284">
        <ele>2506</ele>
        <time>2012-03-31T11:06:04Z</time>
      </trkpt>
      <trkpt lat="42.82966" lon="0.05283">
        <ele>2506</ele>
        <time>2012-03-31T11:06:37Z</time>
      </trkpt>
      <trkpt lat="42.82963" lon="0.05283">
        <ele>2506</ele>
        <time>2012-03-31T11:06:42Z</time>
      </trkpt>
      <trkpt lat="42.8296" lon="0.05282">
        <ele>2506</ele>
        <time>2012-03-31T11:06:47Z</time>
      </trkpt>
      <trkpt lat="42.82959" lon="0.05282">
        <ele>2506</ele>
        <time>2012-03-31T11:06:50Z</time>
      </trkpt>
      <trkpt lat="42.82957" lon="0.05282">
        <ele>2506</ele>
        <time>2012-03-31T11:06:53Z</time>
      </trkpt>
      <trkpt lat="42.82956" lon="0.05281">
        <ele>2506</ele>
        <time>2012-03-31T11:06:56Z</time>
      </trkpt>
      <trkpt lat="42.82955" lon="0.0528">
        <ele>2507</ele>
        <time>2012-03-31T11:06:59Z</time>
      </trkpt>
      <trkpt lat="42.82953" lon="0.0528">
        <ele>2508</ele>
        <time>2012-03-31T11:07:02Z</time>
      </trkpt>
      <trkpt lat="42.82951" lon="0.05279">
        <ele>2509</ele>
        <time>2012-03-31T11:07:07Z</time>
      </trkpt>
      <trkpt lat="42.82951" lon="0.05281">
        <ele>2510</ele>
        <time>2012-03-31T11:07:23Z</time>
      </trkpt>
      <trkpt lat="42.82951" lon="0.05282">
        <ele>2510</ele>
        <time>2012-03-31T11:07:33Z</time>
      </trkpt>
      <trkpt lat="42.82951" lon="0.05284">
        <ele>2510</ele>
        <time>2012-03-31T11:07:40Z</time>
      </trkpt>
      <trkpt lat="42.82951" lon="0.05285">
        <ele>2510</ele>
        <time>2012-03-31T11:07:55Z</time>
      </trkpt>
      <trkpt lat="42.82949" lon="0.05285">
        <ele>2510</ele>
        <time>2012-03-31T11:08:02Z</time>
      </trkpt>
      <trkpt lat="42.82946" lon="0.05283">
        <ele>2510</ele>
        <time>2012-03-31T11:08:08Z</time>
      </trkpt>
      <trkpt lat="42.82945" lon="0.05282">
        <ele>2510</ele>
        <time>2012-03-31T11:08:11Z</time>
      </trkpt>
      <trkpt lat="42.82944" lon="0.05281">
        <ele>2510</ele>
        <time>2012-03-31T11:08:14Z</time>
      </trkpt>
      <trkpt lat="42.82942" lon="0.05279">
        <ele>2510</ele>
        <time>2012-03-31T11:08:17Z</time>
      </trkpt>
      <trkpt lat="42.82941" lon="0.05278">
        <ele>2510</ele>
        <time>2012-03-31T11:08:20Z</time>
      </trkpt>
      <trkpt lat="42.82938" lon="0.05275">
        <ele>2510</ele>
        <time>2012-03-31T11:08:27Z</time>
      </trkpt>
      <trkpt lat="42.82936" lon="0.05273">
        <ele>2510</ele>
        <time>2012-03-31T11:08:30Z</time>
      </trkpt>
      <trkpt lat="42.82935" lon="0.05272">
        <ele>2510</ele>
        <time>2012-03-31T11:08:33Z</time>
      </trkpt>
      <trkpt lat="42.82934" lon="0.0527">
        <ele>2511</ele>
        <time>2012-03-31T11:08:37Z</time>
      </trkpt>
      <trkpt lat="42.82932" lon="0.05267">
        <ele>2511</ele>
        <time>2012-03-31T11:08:42Z</time>
      </trkpt>
      <trkpt lat="42.8293" lon="0.05266">
        <ele>2511</ele>
        <time>2012-03-31T11:08:46Z</time>
      </trkpt>
      <trkpt lat="42.82929" lon="0.05266">
        <ele>2511</ele>
        <time>2012-03-31T11:09:16Z</time>
      </trkpt>
      <trkpt lat="42.82928" lon="0.05268">
        <ele>2511</ele>
        <time>2012-03-31T11:09:33Z</time>
      </trkpt>
      <trkpt lat="42.82928" lon="0.05269">
        <ele>2511</ele>
        <time>2012-03-31T11:09:36Z</time>
      </trkpt>
      <trkpt lat="42.82928" lon="0.05273">
        <ele>2511</ele>
        <time>2012-03-31T11:09:40Z</time>
      </trkpt>
      <trkpt lat="42.82929" lon="0.05276">
        <ele>2513</ele>
        <time>2012-03-31T11:09:49Z</time>
      </trkpt>
      <trkpt lat="42.82929" lon="0.05277">
        <ele>2513</ele>
        <time>2012-03-31T11:09:52Z</time>
      </trkpt>
      <trkpt lat="42.8293" lon="0.05281">
        <ele>2514</ele>
        <time>2012-03-31T11:09:57Z</time>
      </trkpt>
      <trkpt lat="42.82929" lon="0.05279">
        <ele>2515</ele>
        <time>2012-03-31T11:10:20Z</time>
      </trkpt>
      <trkpt lat="42.82928" lon="0.05278">
        <ele>2515</ele>
        <time>2012-03-31T11:10:23Z</time>
      </trkpt>
      <trkpt lat="42.82927" lon="0.05277">
        <ele>2515</ele>
        <time>2012-03-31T11:10:26Z</time>
      </trkpt>
      <trkpt lat="42.82926" lon="0.05275">
        <ele>2515</ele>
        <time>2012-03-31T11:10:29Z</time>
      </trkpt>
      <trkpt lat="42.82924" lon="0.05271">
        <ele>2515</ele>
        <time>2012-03-31T11:10:33Z</time>
      </trkpt>
      <trkpt lat="42.82924" lon="0.0527">
        <ele>2517</ele>
        <time>2012-03-31T11:10:36Z</time>
      </trkpt>
      <trkpt lat="42.82922" lon="0.05267">
        <ele>2519</ele>
        <time>2012-03-31T11:10:41Z</time>
      </trkpt>
      <trkpt lat="42.82922" lon="0.05265">
        <ele>2524</ele>
        <time>2012-03-31T11:11:22Z</time>
      </trkpt>
      <trkpt lat="42.82921" lon="0.05264">
        <ele>2525</ele>
        <time>2012-03-31T11:11:27Z</time>
      </trkpt>
      <trkpt lat="42.82919" lon="0.05263">
        <ele>2525</ele>
        <time>2012-03-31T11:11:47Z</time>
      </trkpt>
      <trkpt lat="42.82919" lon="0.05265">
        <ele>2525</ele>
        <time>2012-03-31T11:11:55Z</time>
      </trkpt>
      <trkpt lat="42.82918" lon="0.05265">
        <ele>2526</ele>
        <time>2012-03-31T11:12:07Z</time>
      </trkpt>
      <trkpt lat="42.82917" lon="0.05266">
        <ele>2528</ele>
        <time>2012-03-31T11:12:27Z</time>
      </trkpt>
      <trkpt lat="42.82917" lon="0.05268">
        <ele>2528</ele>
        <time>2012-03-31T11:12:40Z</time>
      </trkpt>
      <trkpt lat="42.82917" lon="0.05269">
        <ele>2528</ele>
        <time>2012-03-31T11:12:51Z</time>
      </trkpt>
      <trkpt lat="42.82917" lon="0.05271">
        <ele>2528</ele>
        <time>2012-03-31T11:13:00Z</time>
      </trkpt>
      <trkpt lat="42.82919" lon="0.05272">
        <ele>2528</ele>
        <time>2012-03-31T11:13:08Z</time>
      </trkpt>
      <trkpt lat="42.8292" lon="0.05272">
        <ele>2527</ele>
        <time>2012-03-31T11:13:26Z</time>
      </trkpt>
      <trkpt lat="42.82919" lon="0.05271">
        <ele>2527</ele>
        <time>2012-03-31T11:13:34Z</time>
      </trkpt>
      <trkpt lat="42.82919" lon="0.05269">
        <ele>2527</ele>
        <time>2012-03-31T11:13:42Z</time>
      </trkpt>
      <trkpt lat="42.82917" lon="0.05269">
        <ele>2527</ele>
        <time>2012-03-31T11:13:54Z</time>
      </trkpt>
      <trkpt lat="42.82917" lon="0.05271">
        <ele>2527</ele>
        <time>2012-03-31T11:14:10Z</time>
      </trkpt>
      <trkpt lat="42.82917" lon="0.05272">
        <ele>2527</ele>
        <time>2012-03-31T11:14:13Z</time>
      </trkpt>
      <trkpt lat="42.82917" lon="0.05274">
        <ele>2527</ele>
        <time>2012-03-31T11:14:16Z</time>
      </trkpt>
      <trkpt lat="42.82917" lon="0.05272">
        <ele>2527</ele>
        <time>2012-03-31T11:14:46Z</time>
      </trkpt>
      <trkpt lat="42.82916" lon="0.05271">
        <ele>2527</ele>
        <time>2012-03-31T11:14:50Z</time>
      </trkpt>
      <trkpt lat="42.82915" lon="0.05268">
        <ele>2527</ele>
        <time>2012-03-31T11:14:54Z</time>
      </trkpt>
      <trkpt lat="42.82914" lon="0.05267">
        <ele>2527</ele>
        <time>2012-03-31T11:16:34Z</time>
      </trkpt>
      <trkpt lat="42.82914" lon="0.05268">
        <ele>2527</ele>
        <time>2012-03-31T11:16:36Z</time>
      </trkpt>
    </trkseg>
  </trk>
</gpx>